ftp/pub/palmer/observations_modified/2019/September/original_files/AR190902_BASE.txt
Download
Sample DateTime Unit Id WS Avg 2min WD Avg 2min WGS 10min WGD 10min Air Temp Rel Humidity Dew Point Pyranometer Quantum Air Pressure Snow Level Rainfall PW Current Visibility CBase 1 CBase 2 CBase 3 Vert Vis
2019/09/02 00:00:02 BASE 6.85 263 11.27 262 -6.4 100 -6.4 0 0 1008.9 NA 0.0000 9999 690 0 0 0
2019/09/02 00:01:03 BASE 6.63 262 11.27 262 -6.4 100 -6.4 0 0 1008.9 NA 0.0000 9999 720 0 0 0
2019/09/02 00:02:02 BASE 6.42 265 11.27 262 -6.3 100 -6.3 0 0 1008.9 NA 0.0000 9999 750 0 0 0
2019/09/02 00:03:02 BASE 8.29 259 11.27 262 -6.3 100 -6.3 0 0 1008.9 NA 0.0000 9999 690 0 0 0
2019/09/02 00:04:02 BASE 9.56 255 10.75 256 -6.3 100 -6.3 0 0 1008.9 NA 0.0000 9999 750 0 0 0
2019/09/02 00:05:04 BASE 8.08 260 10.75 256 -6.3 100 -6.3 0 0 1008.9 NA 0.0000 9999 790 0 0 0
2019/09/02 00:06:02 BASE 7.38 259 10.75 256 -6.3 100 -6.3 0 0 1008.9 NA 0.0000 9999 790 0 0 0
2019/09/02 00:07:02 BASE 8.13 253 10.75 256 -6.3 100 -6.3 0 0 1008.9 NA 0.0000 9999 850 0 0 0
2019/09/02 00:08:02 BASE 8.88 255 11.01 258 -6.3 100 -6.3 0 0 1008.8 NA 0.0000 9999 980 0 0 0
2019/09/02 00:09:02 BASE 8.11 261 11.01 258 -6.3 100 -6.3 0 0 1008.9 NA 0.0000 9999 720 0 0 0
2019/09/02 00:10:03 BASE 6.70 266 11.01 258 -6.3 100 -6.3 0 0 1008.9 NA 0.0000 9999 690 0 0 0
2019/09/02 00:11:02 BASE 6.01 272 11.01 258 -6.3 100 -6.3 0 0 1008.9 NA 0.0000 9999 750 0 0 0
2019/09/02 00:12:02 BASE 5.78 279 11.01 258 -6.3 100 -6.3 0 0 1008.9 NA 0.0000 9999 720 0 0 0
2019/09/02 00:13:02 BASE 6.31 277 11.01 258 -6.3 100 -6.3 0 0 1008.9 NA 0.0000 9999 660 0 0 0
2019/09/02 00:14:02 BASE 6.81 271 11.01 258 -6.2 100 -6.2 0 0 1008.9 NA 0.0000 9999 690 0 0 0
2019/09/02 00:15:02 BASE 7.27 272 11.01 258 -6.2 100 -6.2 0 0 1008.9 NA 0.0000 9999 690 0 0 0
2019/09/02 00:16:02 BASE 8.48 267 11.01 258 -6.2 100 -6.2 0 0 1008.8 NA 0.0000 9999 750 0 0 0
2019/09/02 00:17:02 BASE 9.65 253 11.01 258 -6.2 100 -6.2 0 0 1008.8 NA 0.0000 9999 750 0 0 0
2019/09/02 00:18:02 BASE 9.29 248 10.91 243 -6.2 100 -6.2 0 0 1008.8 NA 0.0000 9999 750 0 0 0
2019/09/02 00:19:02 BASE 8.02 247 10.91 243 -6.2 100 -6.2 0 0 1008.8 NA 0.0000 9999 720 0 0 0
2019/09/02 00:20:02 BASE 7.68 250 10.91 243 -6.2 100 -6.2 0 0 1008.8 NA 0.0000 9999 790 0 0 0
2019/09/02 00:21:02 BASE 8.18 253 10.91 243 -6.2 100 -6.2 0 0 1008.8 NA 0.0000 9999 820 0 0 0
2019/09/02 00:22:02 BASE 8.34 256 10.91 243 -6.2 100 -6.2 0 0 1008.8 NA 0.0000 9999 850 0 0 0
2019/09/02 00:23:02 BASE 7.95 256 10.91 243 -6.2 100 -6.2 0 0 1008.8 NA 0.0000 9999 890 0 0 0
2019/09/02 00:24:02 BASE 7.77 255 10.91 243 -6.2 100 -6.2 0 0 1008.7 NA 0.0000 9999 890 0 0 0
2019/09/02 00:25:02 BASE 7.88 255 10.91 243 -6.2 100 -6.2 0 0 1008.7 NA 0.0000 9999 890 0 0 0
2019/09/02 00:26:03 BASE 7.83 254 10.91 243 -6.2 100 -6.2 0 0 1008.7 NA 0.0000 9999 920 0 0 0
2019/09/02 00:27:02 BASE 8.09 255 10.08 246 -6.2 100 -6.2 0 0 1008.7 NA 0.0000 9999 850 0 0 0
2019/09/02 00:28:02 BASE 7.73 252 9.62 263 -6.2 100 -6.2 0 0 1008.7 NA 0.0000 9999 750 0 0 0
2019/09/02 00:29:02 BASE 7.18 249 9.62 263 -6.2 100 -6.2 0 0 1008.7 NA 0.0000 9999 820 0 0 0
2019/09/02 00:30:02 BASE 8.10 251 11.94 249 -6.2 100 -6.2 0 0 1008.7 NA 0.0000 9999 890 0 0 0
2019/09/02 00:31:02 BASE 9.68 251 11.94 249 -6.2 100 -6.2 0 0 1008.6 NA 0.0000 9999 820 0 0 0
2019/09/02 00:32:02 BASE 9.35 253 11.94 249 -6.2 100 -6.2 0 0 1008.7 NA 0.0000 9999 820 0 0 0
2019/09/02 00:33:03 BASE 8.23 256 11.94 249 -6.2 100 -6.2 0 0 1008.6 NA 0.0000 9999 750 0 0 0
2019/09/02 00:34:02 BASE 7.71 259 11.94 249 -6.2 100 -6.2 0 0 1008.6 NA 0.0000 9999 790 0 0 0
2019/09/02 00:35:03 BASE 8.51 258 11.94 249 -6.2 100 -6.2 0 0 1008.6 NA 0.0000 9999 790 0 0 0
2019/09/02 00:36:02 BASE 9.36 246 11.94 249 -6.2 100 -6.2 0 0 1008.6 NA 0.0000 9999 820 0 0 0
2019/09/02 00:37:02 BASE 8.68 244 11.94 249 -6.2 100 -6.2 0 0 1008.6 NA 0.0000 9999 820 0 0 0
2019/09/02 00:38:02 BASE 7.73 253 11.94 249 -6.2 100 -6.2 0 0 1008.6 NA 0.0000 9999 820 0 0 0
2019/09/02 00:39:02 BASE 7.26 246 11.94 249 -6.1 100 -6.1 0 0 1008.5 NA 0.0000 9999 750 0 0 0
2019/09/02 00:40:02 BASE 7.94 223 11.68 246 -6.1 100 -6.1 0 0 1008.5 NA 0.0000 9999 820 0 0 0
2019/09/02 00:41:02 BASE 8.91 227 11.47 261 -6.1 100 -6.1 0 0 1008.5 NA 0.0000 9999 720 0 0 0
2019/09/02 00:42:03 BASE 10.38 247 13.68 252 -6.1 100 -6.1 0 0 1008.4 NA 0.0000 9999 790 0 0 0
2019/09/02 00:43:02 BASE 11.15 243 13.68 252 -6.1 100 -6.1 0 0 1008.4 NA 0.0000 9999 720 0 0 0
2019/09/02 00:44:02 BASE 10.62 236 13.68 252 -6.1 100 -6.1 0 0 1008.4 NA 0.0000 9999 750 0 0 0
2019/09/02 00:45:02 BASE 10.67 238 13.68 252 -6.2 100 -6.2 0 0 1008.4 NA 0.0000 9999 850 0 0 0
2019/09/02 00:46:02 BASE 10.62 238 13.68 252 -6.2 100 -6.2 0 0 1008.4 NA 0.0000 9999 790 0 0 0
2019/09/02 00:47:02 BASE 9.93 240 13.68 252 -6.3 100 -6.3 0 0 1008.4 NA 0.0000 9999 850 0 0 0
2019/09/02 00:48:02 BASE 9.36 242 13.68 252 -6.3 100 -6.3 0 0 1008.4 NA 0.0000 9999 750 0 0 0
2019/09/02 00:49:02 BASE 10.23 243 13.68 252 -6.3 100 -6.3 0 0 1008.4 NA 0.0000 9999 790 0 0 0
2019/09/02 00:50:02 BASE 10.39 239 13.68 252 -6.4 100 -6.4 0 0 1008.4 NA 0.0000 9999 850 0 0 0
2019/09/02 00:51:02 BASE 11.15 231 13.68 252 -6.4 100 -6.4 0 0 1008.4 NA 0.0000 9999 820 0 0 0
2019/09/02 00:52:02 BASE 12.83 229 14.25 226 -6.4 100 -6.4 0 0 1008.4 NA 0.0000 9999 850 0 0 0
2019/09/02 00:53:02 BASE 12.54 234 14.25 226 -6.4 100 -6.4 0 0 1008.5 NA 0.0000 9999 950 0 0 0
2019/09/02 00:54:02 BASE 11.89 240 14.25 226 -6.4 100 -6.4 0 0 1008.5 NA 0.0000 9999 950 0 0 0
2019/09/02 00:55:02 BASE 11.29 241 14.25 226 -6.4 100 -6.4 0 0 1008.6 NA 0.0000 9999 950 0 0 0
2019/09/02 00:56:02 BASE 11.26 241 14.25 226 -6.4 100 -6.4 0 0 1008.5 NA 0.0000 9999 1020 0 0 0
2019/09/02 00:57:02 BASE 10.83 238 14.25 226 -6.5 100 -6.5 0 0 1008.6 NA 0.0000 9999 920 0 0 0
2019/09/02 00:58:02 BASE 9.33 235 14.25 226 -6.5 100 -6.5 0 0 1008.5 NA 0.0000 9999 980 0 0 0
2019/09/02 00:59:02 BASE 9.05 233 14.25 226 -6.4 100 -6.4 0 0 1008.4 NA 0.0000 9999 1080 0 0 0
2019/09/02 01:00:02 BASE 8.85 232 14.25 226 -6.5 100 -6.5 0 0 1008.4 NA 0.0000 9999 1080 0 0 0
2019/09/02 01:01:02 BASE 7.90 229 14.25 226 -6.5 100 -6.5 0 0 1008.4 NA 0.0000 9999 1050 0 0 0
2019/09/02 01:02:02 BASE 7.91 231 13.27 241 -6.5 100 -6.5 0 0 1008.4 NA 0.0000 9999 1080 0 0 0
2019/09/02 01:03:02 BASE 7.74 233 13.27 241 -6.5 100 -6.5 0 0 1008.4 NA 0.0000 9999 1120 0 0 0
2019/09/02 01:04:02 BASE 8.03 234 12.50 245 -6.5 100 -6.5 0 0 1008.4 NA 0.0000 9999 1120 0 0 0
2019/09/02 01:05:03 BASE 8.74 238 12.50 245 -6.4 100 -6.4 0 0 1008.4 NA 0.0000 9999 1120 0 0 0
2019/09/02 01:06:03 BASE 8.47 239 11.57 240 -6.4 100 -6.4 0 0 1008.4 NA 0.0000 9999 1150 0 0 0
2019/09/02 01:07:02 BASE 7.41 237 10.39 241 -6.4 100 -6.4 0 0 1008.4 NA 0.0000 9999 1120 0 0 0
2019/09/02 01:08:02 BASE 6.79 240 10.39 241 -6.4 100 -6.4 0 0 1008.4 NA 0.0000 9999 1020 0 0 0
2019/09/02 01:09:02 BASE 7.48 247 9.67 234 -6.4 100 -6.4 0 0 1008.4 NA 0.0000 9999 1020 0 0 0
2019/09/02 01:10:03 BASE 7.86 248 9.67 234 -6.5 100 -6.5 0 0 1008.4 NA 0.0000 9999 1050 0 0 0
2019/09/02 01:11:02 BASE 7.54 248 9.67 234 -6.5 100 -6.5 0 0 1008.4 NA 0.0000 9999 950 0 0 0
2019/09/02 01:12:02 BASE 7.38 244 9.67 234 -6.5 100 -6.5 0 0 1008.4 NA 0.0000 9999 950 0 0 0
2019/09/02 01:13:02 BASE 7.63 236 9.67 234 -6.5 100 -6.5 0 0 1008.4 NA 0.0000 9999 920 0 0 0
2019/09/02 01:14:02 BASE 8.36 233 10.75 231 -6.5 100 -6.5 0 0 1008.3 NA 0.0000 9999 920 0 0 0
2019/09/02 01:15:03 BASE 9.92 240 11.68 249 -6.4 100 -6.4 0 0 1008.3 NA 0.0000 9999 850 0 0 0
2019/09/02 01:16:02 BASE 10.01 242 11.68 249 -6.4 100 -6.4 0 0 1008.4 NA 0.0000 9999 820 0 0 0
2019/09/02 01:17:02 BASE 8.27 241 11.68 249 -6.4 100 -6.4 0 0 1008.4 NA 0.0000 9999 820 0 0 0
2019/09/02 01:18:03 BASE 7.51 247 11.68 249 -6.5 100 -6.5 0 0 1008.4 NA 0.0000 9999 890 0 0 0
2019/09/02 01:19:02 BASE 7.91 248 11.68 249 -6.5 100 -6.5 0 0 1008.4 NA 0.0000 9999 820 0 0 0
2019/09/02 01:20:02 BASE 8.78 247 11.68 249 -6.5 100 -6.5 0 0 1008.4 NA 0.0000 9999 790 0 0 0
2019/09/02 01:21:02 BASE 9.23 239 11.68 249 -6.5 100 -6.5 0 0 1008.4 NA 0.0000 9999 820 0 0 0
2019/09/02 01:22:02 BASE 8.99 233 11.68 249 -6.5 100 -6.5 0 0 1008.4 NA 0.0000 9999 950 0 0 0
2019/09/02 01:23:02 BASE 8.14 236 11.68 249 -6.4 100 -6.4 0 0 1008.4 NA 0.0000 9999 920 0 0 0
2019/09/02 01:24:02 BASE 7.19 231 11.68 249 -6.4 100 -6.4 0 0 1008.4 NA 0.0000 9999 920 0 0 0
2019/09/02 01:25:02 BASE 7.06 227 11.11 246 -6.5 100 -6.5 0 0 1008.4 NA 0.0000 9999 850 0 0 0
2019/09/02 01:26:02 BASE 7.36 234 11.11 246 -6.4 100 -6.4 0 0 1008.4 NA 0.0000 9999 890 0 0 0
2019/09/02 01:27:03 BASE 8.08 244 11.11 246 -6.5 100 -6.5 0 0 1008.4 NA 0.0000 9999 850 0 0 0
2019/09/02 01:28:03 BASE 8.17 251 11.11 246 -6.5 100 -6.5 0 0 1008.3 NA 0.0000 9999 820 0 0 0
2019/09/02 01:29:02 BASE 7.34 253 11.11 246 -6.5 100 -6.5 0 0 1008.3 NA 0.0000 9999 890 0 0 0
2019/09/02 01:30:03 BASE 7.16 243 10.91 239 -6.5 100 -6.5 0 0 1008.3 NA 0.0000 9999 920 0 0 0
2019/09/02 01:31:02 BASE 7.98 231 10.75 233 -6.5 100 -6.5 0 0 1008.2 NA 0.0000 9999 950 0 0 0
2019/09/02 01:32:02 BASE 8.22 229 10.24 222 -6.5 100 -6.5 0 0 1008.2 NA 0.0000 9999 890 0 0 0
2019/09/02 01:33:02 BASE 8.21 236 10.24 238 -6.5 100 -6.5 0 0 1008.2 NA 0.0000 9999 920 0 0 0
2019/09/02 01:34:03 BASE 8.37 241 10.24 238 -6.5 100 -6.5 0 0 1008.1 NA 0.0000 9999 950 0 0 0
2019/09/02 01:35:02 BASE 8.27 244 10.24 238 -6.5 100 -6.5 0 0 1008.0 NA 0.0000 9999 920 0 0 0
2019/09/02 01:36:03 BASE 8.64 245 10.24 238 -6.5 100 -6.5 0 0 1008.0 NA 0.0000 9999 920 0 0 0
2019/09/02 01:37:02 BASE 8.21 248 10.24 238 -6.5 100 -6.5 0 0 1008.0 NA 0.0000 9999 920 0 0 0
2019/09/02 01:38:02 BASE 8.18 245 10.24 238 -6.5 100 -6.5 0 0 1008.0 NA 0.0000 9999 980 0 0 0
2019/09/02 01:39:02 BASE 8.47 234 10.24 238 -6.5 100 -6.5 0 0 1008.0 NA 0.0000 9999 1080 0 0 0
2019/09/02 01:40:02 BASE 9.48 225 12.14 215 -6.5 100 -6.5 0 0 1007.9 NA 0.0000 9999 1080 0 0 0
2019/09/02 01:41:02 BASE 9.78 224 12.14 215 -6.6 100 -6.6 0 0 1007.9 NA 0.0000 9999 1120 0 0 0
2019/09/02 01:42:03 BASE 9.45 229 12.14 215 -6.5 100 -6.5 0 0 1007.9 NA 0.0000 9999 1120 0 0 0
2019/09/02 01:43:03 BASE 9.66 235 12.14 215 -6.5 100 -6.5 0 0 1007.9 NA 0.0000 9999 1120 0 0 0
2019/09/02 01:44:02 BASE 9.82 235 12.14 215 -6.6 100 -6.6 0 0 1007.8 NA 0.0000 9999 1120 0 0 0
2019/09/02 01:45:02 BASE 10.48 228 12.14 215 -6.6 100 -6.6 0 0 1007.8 NA 0.0000 9999 980 0 0 0
2019/09/02 01:46:02 BASE 10.67 229 12.14 215 -6.6 100 -6.6 0 0 1007.8 NA 0.0000 9999 1050 0 0 0
2019/09/02 01:47:02 BASE 11.09 233 12.60 227 -6.6 100 -6.6 0 0 1007.8 NA 0.0000 9999 1080 0 0 0
2019/09/02 01:48:02 BASE 11.47 230 12.91 227 -6.6 100 -6.6 0 0 1007.8 NA 0.0000 9999 980 0 0 0
2019/09/02 01:49:02 BASE 11.79 229 13.48 221 -6.6 100 -6.6 0 0 1007.8 NA 0.0000 9999 980 0 0 0
2019/09/02 01:50:03 BASE 11.75 230 13.48 221 -6.7 100 -6.7 0 0 1007.8 NA 0.0000 9999 1020 0 0 0
2019/09/02 01:51:02 BASE 11.05 230 13.48 221 -6.7 100 -6.7 0 0 1007.8 NA 0.0000 9999 920 0 0 0
2019/09/02 01:52:02 BASE 10.92 232 13.48 221 -6.7 100 -6.7 0 0 1007.8 NA 0.0000 9999 1020 0 0 0
2019/09/02 01:53:02 BASE 10.75 230 13.48 221 -6.7 100 -6.7 0 0 1007.8 NA 0.0000 9999 980 0 0 0
2019/09/02 01:54:02 BASE 10.64 226 13.48 221 -6.7 100 -6.7 0 0 1007.8 NA 0.0000 9999 950 0 0 0
2019/09/02 01:55:02 BASE 10.31 228 13.48 221 -6.7 100 -6.7 0 0 1007.8 NA 0.0000 9999 1020 0 0 0
2019/09/02 01:56:02 BASE 9.48 234 13.48 221 -6.8 100 -6.8 0 0 1007.9 NA 0.0000 9999 980 0 0 0
2019/09/02 01:57:04 BASE 9.61 238 13.48 221 -6.8 100 -6.8 0 0 1007.8 NA 0.0000 9999 1020 0 0 0
2019/09/02 01:58:02 BASE 9.38 237 13.48 221 -6.8 100 -6.8 0 0 1007.8 NA 0.0000 9999 950 0 0 0
2019/09/02 01:59:02 BASE 9.09 231 12.91 222 -6.8 100 -6.8 0 0 1007.8 NA 0.0000 9999 890 0 0 0
2019/09/02 02:00:02 BASE 8.86 223 12.71 222 -6.8 100 -6.8 0 0 1007.8 NA 0.0000 9999 820 0 0 0
2019/09/02 02:01:03 BASE 9.41 217 12.71 222 -6.8 100 -6.8 0 0 1007.8 NA 0.0000 9999 890 0 0 0
2019/09/02 02:02:02 BASE 10.41 220 12.40 226 -6.8 100 -6.8 0 0 1007.8 NA 0.0000 9999 850 0 0 0
2019/09/02 02:03:02 BASE 10.88 223 12.40 226 -6.8 100 -6.8 0 0 1007.8 NA 0.0000 9999 850 0 0 0
2019/09/02 02:04:02 BASE 10.18 221 12.14 222 -6.8 100 -6.8 0 0 1007.8 NA 0.0000 9999 890 0 0 0
2019/09/02 02:05:03 BASE 8.95 217 12.14 222 -6.9 100 -6.9 0 0 1007.8 NA 0.0000 9999 850 0 0 0
2019/09/02 02:06:02 BASE 8.08 217 12.14 222 -6.9 100 -6.9 0 0 1007.8 NA 0.0000 9999 890 0 0 0
2019/09/02 02:07:02 BASE 7.51 227 12.14 222 -6.9 100 -6.9 0 0 1007.8 NA 0.0000 9999 890 0 0 0
2019/09/02 02:08:02 BASE 8.82 236 12.14 226 -6.9 100 -6.9 0 0 1007.8 NA 0.0000 9999 950 0 0 0
2019/09/02 02:09:02 BASE 10.60 234 12.14 226 -6.9 100 -6.9 0 0 1007.8 NA 0.0000 9999 950 0 0 0
2019/09/02 02:10:02 BASE 12.09 227 14.46 224 -6.9 100 -6.9 0 0 1007.8 NA 0.0000 9999 950 0 0 0
2019/09/02 02:11:03 BASE 11.52 231 14.46 224 -6.9 100 -6.9 0 0 1007.8 NA 0.0000 9999 850 0 0 0
2019/09/02 02:12:02 BASE 9.29 236 14.46 224 -7.0 100 -7.0 0 0 1007.8 NA 0.0000 9999 820 0 0 0
2019/09/02 02:13:02 BASE 8.74 231 14.46 224 -7.1 100 -7.1 0 0 1007.8 NA 0.0000 9999 920 0 0 0
2019/09/02 02:14:03 BASE 9.21 225 14.46 224 -7.1 100 -7.1 0 0 1007.8 NA 0.0000 9999 980 0 0 0
2019/09/02 02:15:03 BASE 9.77 226 14.46 224 -7.0 100 -7.0 0 0 1007.8 NA 0.0000 9999 950 0 0 0
2019/09/02 02:16:03 BASE 9.56 233 14.46 224 -7.0 100 -7.0 0 0 1007.8 NA 0.0000 9999 950 0 0 0
2019/09/02 02:17:02 BASE 9.20 235 14.46 224 -7.0 100 -7.0 0 0 1007.8 NA 0.0000 9999 1020 0 0 0
2019/09/02 02:18:02 BASE 9.53 229 14.46 224 -7.0 100 -7.0 0 0 1007.8 NA 0.0000 9999 980 0 0 0
2019/09/02 02:19:02 BASE 9.98 229 14.46 224 -7.0 100 -7.0 0 0 1007.8 NA 0.0000 9999 1080 0 0 0
2019/09/02 02:20:03 BASE 9.48 231 13.02 231 -7.0 100 -7.0 0 0 1007.8 NA 0.0000 9999 1020 0 0 0
2019/09/02 02:21:03 BASE 10.27 230 13.84 225 -7.0 100 -7.0 0 0 1007.8 NA 0.0000 9999 1020 0 0 0
2019/09/02 02:22:03 BASE 9.70 226 13.84 225 -7.1 100 -7.1 0 0 1007.8 NA 0.0000 9999 720 0 0 0
2019/09/02 02:23:02 BASE 6.64 228 13.84 225 -7.1 100 -7.1 0 0 1007.8 NA 0.0000 9999 820 0 0 0
2019/09/02 02:24:03 BASE 6.76 234 13.84 225 -7.1 100 -7.1 0 0 1007.8 NA 0.0000 9999 890 0 0 0
2019/09/02 02:25:03 BASE 6.85 242 13.84 225 -7.2 100 -7.2 0 0 1007.8 NA 0.0000 9999 750 0 0 0
2019/09/02 02:26:03 BASE 6.00 242 13.84 225 -7.2 100 -7.2 0 0 1007.8 NA 0.0000 9999 950 0 0 0
2019/09/02 02:27:02 BASE 6.83 228 13.84 225 -7.2 100 -7.2 0 0 1007.7 NA 0.0000 9999 950 0 0 0
2019/09/02 02:28:03 BASE 7.68 223 13.84 225 -7.1 100 -7.1 0 0 1007.7 NA 0.0000 9999 850 0 0 0
2019/09/02 02:29:02 BASE 8.41 224 13.84 225 -7.1 100 -7.1 0 0 1007.7 NA 0.0000 9999 850 0 0 0
2019/09/02 02:30:02 BASE 9.16 222 13.84 225 -7.1 100 -7.1 0 0 1007.7 NA 0.0000 9999 820 0 0 0
2019/09/02 02:31:03 BASE 8.68 222 10.75 228 -7.1 100 -7.1 0 0 1007.7 NA 0.0000 9999 820 0 0 0
2019/09/02 02:32:03 BASE 7.79 227 10.75 228 -7.1 100 -7.1 0 0 1007.7 NA 0.0000 9999 790 0 0 0
2019/09/02 02:33:03 BASE 8.41 244 10.75 228 -7.1 100 -7.1 0 0 1007.7 NA 0.0000 9999 890 0 0 0
2019/09/02 02:34:02 BASE 8.40 249 10.75 228 -7.1 100 -7.1 0 0 1007.7 NA 0.0000 9999 920 0 0 0
2019/09/02 02:35:03 BASE 7.16 240 10.75 228 -7.1 100 -7.1 0 0 1007.6 NA 0.0000 9999 850 0 0 0
2019/09/02 02:36:03 BASE 7.94 240 10.75 228 -7.2 100 -7.2 0 0 1007.6 NA 0.0000 9999 890 0 0 0
2019/09/02 02:37:02 BASE 8.47 239 10.75 228 -7.2 100 -7.2 0 0 1007.6 NA 0.0000 9999 790 0 0 0
2019/09/02 02:38:02 BASE 8.60 237 10.80 229 -7.2 100 -7.2 0 0 1007.6 NA 0.0000 9999 850 0 0 0
2019/09/02 02:39:02 BASE 8.35 238 10.80 229 -7.1 100 -7.1 0 0 1007.6 NA 0.0000 9999 890 0 0 0
2019/09/02 02:40:02 BASE 8.71 237 12.14 233 -7.1 100 -7.1 0 0 1007.5 NA 0.0000 9999 850 0 0 0
2019/09/02 02:41:02 BASE 10.15 234 12.35 236 -7.1 100 -7.1 0 0 1007.5 NA 0.0000 9999 790 0 0 0
2019/09/02 02:42:03 BASE 9.73 230 12.35 236 -7.1 100 -7.1 0 0 1007.5 NA 0.0000 9999 660 1350 0 0
2019/09/02 02:43:03 BASE 8.77 227 12.35 236 -7.1 100 -7.1 0 0 1007.5 NA 0.0000 9999 750 0 0 0
2019/09/02 02:44:03 BASE 8.29 229 12.35 236 -7.1 100 -7.1 0 0 1007.5 NA 0.0000 9999 720 0 0 0
2019/09/02 02:45:03 BASE 8.14 232 12.35 236 -7.1 100 -7.1 0 0 1007.5 NA 0.0000 9999 720 0 0 0
2019/09/02 02:46:02 BASE 8.25 237 12.35 236 -7.1 100 -7.1 0 0 1007.5 NA 0.0000 9999 750 1250 0 0
2019/09/02 02:47:02 BASE 9.29 241 12.35 236 -7.1 100 -7.1 0 0 1007.5 NA 0.0000 9999 850 0 0 0
2019/09/02 02:48:02 BASE 9.88 238 12.35 236 -7.1 100 -7.1 0 0 1007.5 NA 0.0000 9999 890 0 0 0
2019/09/02 02:49:03 BASE 8.44 234 12.35 236 -7.1 100 -7.1 0 0 1007.5 NA 0.0000 9999 690 0 0 0
2019/09/02 02:50:03 BASE 6.67 236 12.35 236 -7.1 100 -7.1 0 0 1007.6 NA 0.0000 9999 660 0 0 0
2019/09/02 02:51:03 BASE 6.33 238 11.11 237 -7.1 100 -7.1 0 0 1007.5 NA 0.0000 9999 690 0 0 0
2019/09/02 02:52:03 BASE 6.55 240 11.11 237 -7.1 100 -7.1 0 0 1007.5 NA 0.0000 9999 790 0 0 0
2019/09/02 02:53:03 BASE 7.65 245 11.11 237 -7.1 100 -7.1 0 0 1007.5 NA 0.0000 9999 720 0 0 0
2019/09/02 02:54:02 BASE 8.72 249 11.11 237 -7.1 100 -7.1 0 0 1007.5 NA 0.0000 9999 790 0 0 0
2019/09/02 02:55:02 BASE 8.49 245 11.11 237 -7.1 100 -7.1 0 0 1007.4 NA 0.0000 9999 750 0 0 0
2019/09/02 02:56:02 BASE 7.67 242 11.11 237 -7.0 100 -7.0 0 0 1007.5 NA 0.0000 9999 750 0 0 0
2019/09/02 02:57:03 BASE 7.72 244 11.11 237 -7.0 100 -7.0 0 0 1007.5 NA 0.0000 9999 790 0 0 0
2019/09/02 02:58:02 BASE 8.63 244 10.13 251 -7.0 100 -7.0 0 0 1007.5 NA 0.0000 9999 750 0 0 0
2019/09/02 02:59:02 BASE 8.38 244 10.13 251 -6.9 100 -6.9 0 0 1007.5 NA 0.0000 9999 590 0 0 0
2019/09/02 03:00:03 BASE 8.43 238 10.75 237 -6.9 100 -6.9 0 0 1007.4 NA 0.0000 9999 690 0 0 0
2019/09/02 03:01:02 BASE 9.10 238 10.75 237 -6.9 100 -6.9 0 0 1007.3 NA 0.0000 9999 620 0 0 0
2019/09/02 03:02:03 BASE 9.53 244 10.75 237 -6.9 100 -6.9 0 0 1007.3 NA 0.0000 9999 720 0 0 0
2019/09/02 03:03:03 BASE 8.83 241 10.75 237 -6.9 100 -6.9 0 0 1007.3 NA 0.0000 9999 690 0 0 0
2019/09/02 03:04:02 BASE 8.41 232 10.75 237 -6.9 100 -6.9 0 0 1007.3 NA 0.0000 9999 660 0 0 0
2019/09/02 03:05:04 BASE 9.28 229 11.73 233 -6.9 100 -6.9 0 0 1007.3 NA 0.0000 9999 720 0 0 0
2019/09/02 03:06:03 BASE 9.82 226 11.73 233 -6.9 100 -6.9 0 0 1007.2 NA 0.0000 9999 690 0 0 0
2019/09/02 03:07:02 BASE 9.38 226 11.73 233 -6.8 100 -6.8 0 0 1007.2 NA 0.0000 9999 720 0 0 0
2019/09/02 03:08:03 BASE 8.74 234 11.73 233 -6.8 100 -6.8 0 0 1007.2 NA 0.0000 9999 820 0 0 0
2019/09/02 03:09:02 BASE 8.21 236 11.73 233 -6.8 100 -6.8 0 0 1007.2 NA 0.0000 9999 950 0 0 0
2019/09/02 03:10:02 BASE 9.73 229 12.55 227 -6.7 100 -6.7 0 0 1007.2 NA 0.0000 9999 850 0 0 0
2019/09/02 03:11:03 BASE 11.18 223 12.55 227 -6.7 100 -6.7 0 0 1007.2 NA 0.0000 9999 590 0 0 0
2019/09/02 03:12:02 BASE 10.36 221 12.55 227 -6.7 100 -6.7 0 0 1007.2 NA 0.0000 9999 560 0 0 0
2019/09/02 03:13:03 BASE 10.18 221 12.55 227 -6.7 100 -6.7 0 0 1007.2 NA 0.0000 9999 660 0 0 0
2019/09/02 03:14:02 BASE 10.08 220 12.55 227 -6.7 100 -6.7 0 0 1007.2 NA 0.0000 9999 590 0 0 0
2019/09/02 03:15:03 BASE 9.52 220 12.55 227 -6.7 100 -6.7 0 0 1007.2 NA 0.0000 9999 750 0 0 0
2019/09/02 03:16:03 BASE 9.35 224 12.55 227 -6.7 100 -6.7 0 0 1007.1 NA 0.0000 9999 660 0 0 0
2019/09/02 03:17:02 BASE 10.28 224 13.07 223 -6.7 100 -6.7 0 0 1007.1 NA 0.0000 9999 690 0 0 0
2019/09/02 03:18:02 BASE 10.83 229 13.07 223 -6.7 100 -6.7 0 0 1007.0 NA 0.0000 9999 660 0 0 0
2019/09/02 03:19:02 BASE 10.78 238 13.07 223 -6.7 100 -6.7 0 0 1007.0 NA 0.0000 9999 620 0 0 0
2019/09/02 03:20:02 BASE 10.91 240 14.25 238 -6.7 100 -6.7 0 0 1007.0 NA 0.0000 9999 590 0 0 0
2019/09/02 03:21:03 BASE 11.45 234 14.25 238 -6.7 100 -6.7 0 0 1007.0 NA 0.0000 9999 590 0 0 0
2019/09/02 03:22:02 BASE 11.06 231 14.25 238 -6.7 100 -6.7 0 0 1007.0 NA 0.0000 9999 560 0 0 0
2019/09/02 03:23:02 BASE 10.64 232 14.25 238 -6.7 100 -6.7 0 0 1007.0 NA 0.0000 9999 590 0 0 0
2019/09/02 03:24:03 BASE 10.61 230 14.25 238 -6.7 100 -6.7 0 0 1007.0 NA 0.0000 9999 620 0 0 0
2019/09/02 03:25:02 BASE 9.60 232 14.25 238 -6.7 100 -6.7 0 0 1007.1 NA 0.0000 9999 690 0 0 0
2019/09/02 03:26:02 BASE 8.96 240 14.25 238 -6.7 100 -6.7 0 0 1007.0 NA 0.0000 9999 790 0 0 0
2019/09/02 03:27:02 BASE 9.62 234 14.25 238 -6.7 100 -6.7 0 0 1007.0 NA 0.0000 9999 660 0 0 0
2019/09/02 03:28:02 BASE 10.88 222 14.25 238 -6.8 100 -6.8 0 0 1007.0 NA 0.0000 9999 690 0 0 0
2019/09/02 03:29:02 BASE 11.14 220 14.25 238 -6.8 100 -6.8 0 0 1007.0 NA 0.0000 9999 690 0 0 0
2019/09/02 03:30:02 BASE 10.44 227 13.32 224 -6.7 100 -6.7 0 0 1007.1 NA 0.0000 9999 750 0 0 0
2019/09/02 03:31:03 BASE 9.70 235 13.32 224 -6.7 100 -6.7 0 0 1007.1 NA 0.0000 9999 790 0 0 0
2019/09/02 03:32:02 BASE 9.34 233 13.32 224 -6.8 100 -6.8 0 0 1007.0 NA 0.0000 9999 820 0 0 0
2019/09/02 03:33:02 BASE 8.90 232 13.32 224 -6.8 100 -6.8 0 0 1007.0 NA 0.0000 9999 820 0 0 0
2019/09/02 03:34:03 BASE 9.24 232 13.32 224 -6.7 100 -6.7 0 0 1007.0 NA 0.0000 9999 750 0 0 0
2019/09/02 03:35:02 BASE 9.41 229 13.32 224 -6.7 100 -6.7 0 0 1007.0 NA 0.0000 9999 790 1210 0 0
2019/09/02 03:36:03 BASE 8.31 234 13.32 224 -6.7 100 -6.7 0 0 1007.0 NA 0.0000 9999 750 0 0 0
2019/09/02 03:37:02 BASE 7.37 242 11.99 221 -6.7 100 -6.7 0 0 1007.0 NA 0.0000 9999 750 0 0 0
2019/09/02 03:38:03 BASE 7.50 245 11.99 221 -6.7 100 -6.7 0 0 1007.0 NA 0.0000 9999 790 0 0 0
2019/09/02 03:39:02 BASE 7.28 247 11.47 227 -6.7 100 -6.7 0 0 1006.9 NA 0.0000 9999 720 0 0 0
2019/09/02 03:40:02 BASE 7.37 245 11.47 227 -6.7 100 -6.7 0 0 1006.9 NA 0.0000 9999 720 0 0 0
2019/09/02 03:41:02 BASE 9.41 239 11.52 238 -6.7 100 -6.7 0 0 1006.9 NA 0.0000 9999 820 0 0 0
2019/09/02 03:42:04 BASE 9.79 236 11.52 238 -6.7 100 -6.7 0 0 1006.9 NA 0.0000 9999 820 0 0 0
2019/09/02 03:43:02 BASE 8.25 238 11.52 238 -6.7 100 -6.7 0 0 1006.9 NA 0.0000 9999 820 0 0 0
2019/09/02 03:44:02 BASE 7.20 234 11.52 238 -6.7 100 -6.7 0 0 1006.9 NA 0.0000 9999 820 0 0 0
2019/09/02 03:45:02 BASE 7.83 230 11.52 238 -6.7 100 -6.7 0 0 1006.8 NA 0.0000 9999 820 0 0 0
2019/09/02 03:46:02 BASE 9.42 232 11.52 238 -6.6 100 -6.6 0 0 1006.7 NA 0.0000 9999 750 0 0 0
2019/09/02 03:47:02 BASE 9.55 234 11.52 238 -6.6 100 -6.6 0 0 1006.7 NA 0.0000 9999 820 0 0 0
2019/09/02 03:48:02 BASE 9.55 243 11.78 255 -6.6 100 -6.6 0 0 1006.7 NA 0.0000 9999 750 0 0 0
2019/09/02 03:49:02 BASE 9.10 237 11.78 255 -6.6 100 -6.6 0 0 1006.6 NA 0.0000 9999 850 0 0 0
2019/09/02 03:50:02 BASE 8.87 219 11.78 255 -6.6 100 -6.6 0 0 1006.6 NA 0.0000 9999 890 0 0 0
2019/09/02 03:51:02 BASE 9.10 213 11.78 255 -6.6 100 -6.6 0 0 1006.6 NA 0.0000 9999 790 0 0 0
2019/09/02 03:52:02 BASE 9.07 222 11.78 255 -6.6 100 -6.6 0 0 1006.6 NA 0.0000 9999 790 0 0 0
2019/09/02 03:53:02 BASE 9.31 232 11.78 255 -6.6 100 -6.6 0 0 1006.6 NA 0.0000 9999 690 0 0 0
2019/09/02 03:54:02 BASE 8.95 239 11.78 255 -6.6 100 -6.6 0 0 1006.6 NA 0.0000 9999 790 0 0 0
2019/09/02 03:55:02 BASE 9.27 245 11.99 241 -6.6 100 -6.6 0 0 1006.5 NA 0.0000 9999 790 0 0 0
2019/09/02 03:56:02 BASE 9.64 243 12.04 241 -6.6 100 -6.6 0 0 1006.5 NA 0.0000 9999 750 0 0 0
2019/09/02 03:57:02 BASE 9.95 244 12.04 241 -6.6 100 -6.6 0 0 1006.5 NA 0.0000 9999 750 0 0 0
2019/09/02 03:58:02 BASE 10.53 246 12.04 241 -6.6 100 -6.6 0 0 1006.5 NA 0.0000 9999 720 0 0 0
2019/09/02 03:59:02 BASE 9.99 246 12.04 241 -6.6 100 -6.6 0 0 1006.6 NA 0.0000 9999 750 0 0 0
2019/09/02 04:00:02 BASE 8.29 246 12.04 241 -6.6 100 -6.6 0 0 1006.6 NA 0.0000 9999 720 0 0 0
2019/09/02 04:01:02 BASE 7.30 243 12.04 241 -6.7 100 -6.7 0 0 1006.6 NA 0.0000 9999 750 0 0 0
2019/09/02 04:02:02 BASE 8.04 233 12.04 241 -6.7 100 -6.7 0 0 1006.5 NA 0.0000 9999 820 0 0 0
2019/09/02 04:03:03 BASE 9.12 226 12.04 241 -6.7 100 -6.7 0 0 1006.4 NA 0.0000 9999 850 0 0 0
2019/09/02 04:04:03 BASE 9.40 220 12.04 241 -6.6 100 -6.6 0 0 1006.4 NA 0.0000 9999 920 0 0 0
2019/09/02 04:05:03 BASE 8.98 225 12.04 241 -6.6 100 -6.6 0 0 1006.4 NA 0.0000 9999 890 0 0 0
2019/09/02 04:06:02 BASE 8.83 237 11.94 245 -6.6 100 -6.6 0 0 1006.4 NA 0.0000 9999 790 0 0 0
2019/09/02 04:07:03 BASE 9.29 236 11.37 250 -6.5 100 -6.5 0 0 1006.4 NA 0.0000 9999 720 0 0 0
2019/09/02 04:08:02 BASE 9.26 238 10.75 225 -6.5 100 -6.5 0 0 1006.4 NA 0.0000 9999 660 0 0 0
2019/09/02 04:09:03 BASE 9.04 243 10.91 232 -6.5 100 -6.5 0 0 1006.4 NA 0.0000 9999 720 0 0 0
2019/09/02 04:10:02 BASE 9.98 239 12.14 229 -6.5 100 -6.5 0 0 1006.4 NA 0.0000 9999 750 0 0 0
2019/09/02 04:11:02 BASE 10.90 230 13.12 223 -6.5 100 -6.5 0 0 1006.3 NA 0.0000 9999 850 0 0 0
2019/09/02 04:12:02 BASE 10.82 227 13.12 223 -6.5 100 -6.5 0 0 1006.3 NA 0.0000 9999 660 0 0 0
2019/09/02 04:13:03 BASE 10.07 233 13.12 223 -6.5 100 -6.5 0 0 1006.4 NA 0.0000 9999 690 0 0 0
2019/09/02 04:14:02 BASE 9.71 244 13.12 223 -6.5 100 -6.5 0 0 1006.3 NA 0.0000 9999 720 0 0 0
2019/09/02 04:15:02 BASE 9.87 245 13.12 223 -6.5 100 -6.5 0 0 1006.3 NA 0.0000 9999 820 0 0 0
2019/09/02 04:16:03 BASE 9.83 234 13.12 223 -6.5 100 -6.5 0 0 1006.3 NA 0.0000 9999 790 0 0 0
2019/09/02 04:17:03 BASE 9.46 229 13.12 223 -6.6 100 -6.6 0 0 1006.3 NA 0.0000 9999 750 0 0 0
2019/09/02 04:18:03 BASE 9.93 236 13.12 223 -6.6 100 -6.6 0 0 1006.3 NA 0.0000 9999 790 0 0 0
2019/09/02 04:19:02 BASE 10.28 246 13.12 223 -6.6 100 -6.6 0 0 1006.4 NA 0.0000 9999 750 0 0 0
2019/09/02 04:20:02 BASE 8.31 250 13.12 223 -6.6 100 -6.6 0 0 1006.5 NA 0.0000 9999 890 0 0 0
2019/09/02 04:21:02 BASE 5.97 243 12.14 229 -6.7 100 -6.7 0 0 1006.5 NA 0.0000 9999 790 0 0 0
2019/09/02 04:22:02 BASE 4.91 245 12.14 229 -6.7 100 -6.7 0 0 1006.6 NA 0.0000 9999 790 0 0 0
2019/09/02 04:23:02 BASE 4.80 250 12.14 229 -6.7 100 -6.7 0 0 1006.5 NA 0.0000 9999 790 0 0 0
2019/09/02 04:24:02 BASE 6.56 249 12.14 229 -6.7 100 -6.7 0 0 1006.4 NA 0.0000 9999 790 0 0 0
2019/09/02 04:25:02 BASE 8.12 254 11.99 242 -6.7 100 -6.7 0 0 1006.4 NA 0.0000 9999 790 0 0 0
2019/09/02 04:26:02 BASE 7.64 254 11.99 242 -6.7 100 -6.7 0 0 1006.4 NA 0.0000 9999 820 0 0 0
2019/09/02 04:27:02 BASE 7.31 251 11.99 242 -6.7 100 -6.7 0 0 1006.4 NA 0.0000 9999 850 0 0 0
2019/09/02 04:28:02 BASE 7.54 256 10.60 248 -6.7 100 -6.7 0 0 1006.3 NA 0.0000 9999 790 0 0 0
2019/09/02 04:29:02 BASE 8.46 258 10.60 256 -6.7 100 -6.7 0 0 1006.3 NA 0.0000 9999 790 0 0 0
2019/09/02 04:30:02 BASE 9.72 253 11.32 248 -6.7 100 -6.7 0 0 1006.3 NA 0.0000 9999 820 0 0 0
2019/09/02 04:31:02 BASE 10.36 247 11.68 242 -6.7 100 -6.7 0 0 1006.3 NA 0.0000 9999 820 0 0 0
2019/09/02 04:32:02 BASE 9.43 245 11.68 242 -6.7 100 -6.7 0 0 1006.3 NA 0.0000 9999 750 0 0 0
2019/09/02 04:33:02 BASE 8.18 251 11.68 242 -6.7 100 -6.7 0 0 1006.3 NA 0.0000 9999 720 0 0 0
2019/09/02 04:34:02 BASE 7.46 252 11.68 242 -6.7 100 -6.7 0 0 1006.3 NA 0.0000 9999 820 0 0 0
2019/09/02 04:35:03 BASE 8.39 252 11.94 252 -6.7 100 -6.7 0 0 1006.2 NA 0.0000 9999 720 0 0 0
2019/09/02 04:36:02 BASE 9.67 250 11.94 252 -6.8 100 -6.8 0 0 1006.3 NA 0.0000 9999 820 0 0 0
2019/09/02 04:37:03 BASE 9.11 243 11.94 252 -6.8 100 -6.8 0 0 1006.2 NA 0.0000 9999 750 0 0 0
2019/09/02 04:38:02 BASE 8.09 242 11.94 252 -6.8 100 -6.8 0 0 1006.1 NA 0.0000 9999 790 0 0 0
2019/09/02 04:39:02 BASE 7.68 241 11.94 252 -6.8 100 -6.8 0 0 1006.1 NA 0.0000 9999 890 0 0 0
2019/09/02 04:40:04 BASE 8.48 235 11.94 252 -6.8 100 -6.8 0 0 1006.1 NA 0.0000 9999 890 0 0 0
2019/09/02 04:41:02 BASE 9.15 232 11.94 252 -6.8 100 -6.8 0 0 1006.1 NA 0.0000 9999 820 0 0 0
2019/09/02 04:42:02 BASE 8.45 232 11.94 252 -6.8 100 -6.8 0 0 1006.1 NA 0.0000 9999 790 0 0 0
2019/09/02 04:43:02 BASE 6.81 232 11.94 252 -6.8 100 -6.8 0 0 1006.1 NA 0.0000 9999 890 0 0 0
2019/09/02 04:44:02 BASE 5.92 230 11.94 252 -6.8 100 -6.8 0 0 1006.1 NA 0.0000 9999 1020 0 0 0
2019/09/02 04:45:02 BASE 7.27 229 10.44 220 -6.8 100 -6.8 0 0 1006.1 NA 0.0000 9999 890 0 0 0
2019/09/02 04:46:02 BASE 8.67 227 10.44 220 -6.8 100 -6.8 0 0 1006.1 NA 0.0000 9999 850 0 0 0
2019/09/02 04:47:02 BASE 8.25 231 10.44 220 -6.8 100 -6.8 0 0 1006.1 NA 0.0000 9999 790 0 0 0
2019/09/02 04:48:02 BASE 6.87 247 10.44 220 -6.8 100 -6.8 0 0 1006.1 NA 0.0000 9999 690 0 0 0
2019/09/02 04:49:02 BASE 5.72 251 10.44 220 -6.8 100 -6.8 0 0 1006.1 NA 0.0000 9999 820 0 0 0
2019/09/02 04:50:02 BASE 5.19 245 10.29 235 -6.8 100 -6.8 0 0 1006.1 NA 0.0000 9999 890 0 0 0
2019/09/02 04:51:02 BASE 4.92 250 10.29 235 -6.9 100 -6.9 0 0 1006.1 NA 0.0000 9999 850 0 0 0
2019/09/02 04:52:02 BASE 4.93 250 10.29 235 -6.9 100 -6.9 0 0 1006.1 NA 0.0000 9999 890 0 0 0
2019/09/02 04:53:02 BASE 4.83 244 10.29 235 -6.9 100 -6.9 0 0 1006.1 NA 0.0000 9999 890 0 0 0
2019/09/02 04:54:02 BASE 5.24 248 10.29 235 -6.9 100 -6.9 0 0 1006.1 NA 0.0000 9999 890 0 0 0
2019/09/02 04:55:02 BASE 6.13 247 9.88 227 -6.9 100 -6.9 0 0 1006.1 NA 0.0000 9999 850 0 0 0
2019/09/02 04:56:02 BASE 7.76 237 11.57 229 -6.8 100 -6.8 0 0 1006.1 NA 0.0000 9999 850 0 0 0
2019/09/02 04:57:02 BASE 9.33 230 11.57 229 -6.8 100 -6.8 0 0 1006.1 NA 0.0000 9999 820 0 0 0
2019/09/02 04:58:02 BASE 9.28 225 11.57 229 -6.8 100 -6.8 0 0 1006.1 NA 0.0000 9999 920 0 0 0
2019/09/02 04:59:02 BASE 8.64 227 11.57 229 -6.8 100 -6.8 0 0 1006.1 NA 0.0000 9999 790 0 0 0
2019/09/02 05:00:02 BASE 7.98 234 11.57 229 -6.8 100 -6.8 0 0 1006.1 NA 0.0000 9999 820 0 0 0
2019/09/02 05:01:02 BASE 7.20 242 11.57 229 -6.8 100 -6.8 0 0 1006.1 NA 0.0000 9999 850 0 0 0
2019/09/02 05:02:02 BASE 6.27 245 11.57 229 -6.9 100 -6.9 0 0 1006.1 NA 0.0000 9999 820 0 0 0
2019/09/02 05:03:02 BASE 5.68 244 11.57 229 -6.9 100 -6.9 0 0 1006.1 NA 0.0000 9999 890 0 0 0
2019/09/02 05:04:02 BASE 5.47 252 11.57 229 -6.9 100 -6.9 0 0 1006.0 NA 0.0000 9999 850 0 0 0
2019/09/02 05:05:03 BASE 5.23 263 11.57 229 -6.9 100 -6.9 0 0 1005.9 NA 0.0000 9999 850 0 0 0
2019/09/02 05:06:03 BASE 5.11 266 10.60 228 -6.9 100 -6.9 0 0 1005.9 NA 0.0000 9999 850 0 0 0
2019/09/02 05:07:02 BASE 5.41 264 9.77 227 -6.9 100 -6.9 0 0 1005.9 NA 0.0000 9999 890 0 0 0
2019/09/02 05:08:02 BASE 5.94 260 9.21 228 -6.9 100 -6.9 0 0 1005.9 NA 0.0000 9999 890 0 0 0
2019/09/02 05:09:02 BASE 6.60 260 9.00 236 -6.9 100 -6.9 0 0 1005.8 NA 0.0000 9999 820 0 0 0
2019/09/02 05:10:02 BASE 6.55 256 7.97 261 -6.8 100 -6.8 0 0 1005.8 NA 0.0000 9999 890 0 0 0
2019/09/02 05:11:02 BASE 6.56 253 7.97 261 -6.8 100 -6.8 0 0 1005.8 NA 0.0000 9999 850 0 0 0
2019/09/02 05:12:03 BASE 6.32 257 7.97 261 -6.8 100 -6.8 0 0 1005.8 NA 0.0000 9999 890 0 0 0
2019/09/02 05:13:03 BASE 6.70 258 8.85 249 -6.8 100 -6.8 0 0 1005.8 NA 0.0000 9999 890 0 0 0
2019/09/02 05:14:03 BASE 8.05 255 9.41 254 -6.8 100 -6.8 0 0 1005.8 NA 0.0000 9999 920 0 0 0
2019/09/02 05:15:02 BASE 8.29 251 9.41 254 -6.7 100 -6.7 0 0 1005.9 NA 0.0000 9999 890 0 0 0
2019/09/02 05:16:02 BASE 7.70 248 9.41 254 -6.7 100 -6.7 0 0 1005.9 NA 0.0000 9999 950 0 0 0
2019/09/02 05:17:02 BASE 7.34 251 9.41 254 -6.7 100 -6.7 0 0 1005.8 NA 0.0000 9999 950 0 0 0
2019/09/02 05:18:03 BASE 7.43 251 9.67 249 -6.7 100 -6.7 0 0 1005.9 NA 0.0000 9999 920 0 0 0
2019/09/02 05:19:03 BASE 8.29 250 10.39 251 -6.7 100 -6.7 0 0 1005.8 NA 0.0000 9999 980 0 0 0
2019/09/02 05:20:02 BASE 8.12 246 10.39 251 -6.7 100 -6.7 0 0 1005.9 NA 0.0000 9999 920 0 0 0
2019/09/02 05:21:02 BASE 6.75 248 10.39 251 -6.7 100 -6.7 0 0 1005.9 NA 0.0000 9999 950 0 0 0
2019/09/02 05:22:02 BASE 5.80 252 10.39 251 -6.7 100 -6.7 0 0 1005.9 NA 0.0000 9999 980 0 0 0
2019/09/02 05:23:02 BASE 5.76 254 10.39 251 -6.7 100 -6.7 0 0 1005.9 NA 0.0000 9999 980 0 0 0
2019/09/02 05:24:02 BASE 6.62 255 10.39 251 -6.7 100 -6.7 0 0 1005.9 NA 0.0000 9999 980 0 0 0
2019/09/02 05:25:02 BASE 7.36 248 10.39 251 -6.7 100 -6.7 0 0 1005.9 NA 0.0000 9999 950 0 0 0
2019/09/02 05:26:02 BASE 7.46 238 10.39 251 -6.7 100 -6.7 0 0 1005.9 NA 0.0000 9999 920 0 0 0
2019/09/02 05:27:02 BASE 8.24 233 10.65 242 -6.6 100 -6.6 0 0 1005.8 NA 0.0000 9999 920 0 0 0
2019/09/02 05:28:02 BASE 8.85 236 10.65 242 -6.6 100 -6.6 0 0 1005.9 NA 0.0000 9999 950 0 0 0
2019/09/02 05:29:02 BASE 8.33 241 10.65 242 -6.6 100 -6.6 0 0 1005.8 NA 0.0000 9999 890 0 0 0
2019/09/02 05:30:02 BASE 8.52 240 10.65 242 -6.6 100 -6.6 0 0 1005.8 NA 0.0000 9999 980 0 0 0
2019/09/02 05:31:02 BASE 7.86 238 10.65 242 -6.6 100 -6.6 0 0 1005.9 NA 0.0000 9999 850 0 0 0
2019/09/02 05:32:03 BASE 6.96 243 10.65 242 -6.7 100 -6.7 0 0 1005.8 NA 0.0000 9999 1050 0 0 0
2019/09/02 05:33:02 BASE 7.66 242 10.65 242 -6.7 100 -6.7 0 0 1005.8 NA 0.0000 9999 1080 0 0 0
2019/09/02 05:34:02 BASE 7.87 237 10.65 242 -6.7 100 -6.7 0 0 1005.8 NA 0.0000 9999 980 0 0 0
2019/09/02 05:35:02 BASE 7.28 233 10.65 242 -6.7 100 -6.7 0 0 1005.7 NA 0.0000 9999 920 0 0 0
2019/09/02 05:36:02 BASE 6.94 227 10.65 242 -6.7 100 -6.7 0 0 1005.7 NA 0.0000 9999 1020 0 0 0
2019/09/02 05:37:03 BASE 6.57 223 10.39 247 -6.7 100 -6.7 0 0 1005.7 NA 0.0000 9999 1080 0 0 0
2019/09/02 05:38:02 BASE 6.95 226 10.39 247 -6.7 100 -6.7 0 0 1005.7 NA 0.0000 9999 950 0 0 0
2019/09/02 05:39:03 BASE 7.06 227 9.77 247 -6.7 100 -6.7 0 0 1005.6 NA 0.0000 9999 1020 0 0 0
2019/09/02 05:40:02 BASE 7.31 225 9.67 235 -6.7 100 -6.7 0 0 1005.6 NA 0.0000 9999 1020 0 0 0
2019/09/02 05:41:02 BASE 7.48 223 9.67 235 -6.7 100 -6.7 0 0 1005.6 NA 0.0000 9999 1080 0 0 0
2019/09/02 05:43:00 BASE 6.05 226 9.67 235 -6.7 100 -6.7 0 0 1005.6 NA 0.0000 9999 1050 0 0 0
2019/09/02 05:44:00 BASE 6.15 232 9.67 224 -6.6 100 -6.6 0 0 1005.5 NA 0.0000 9999 1020 0 0 0
2019/09/02 05:45:00 BASE 8.80 231 10.44 229 -6.6 100 -6.6 0 0 1005.4 NA 0.0000 9999 980 0 0 0
2019/09/02 05:46:00 BASE 9.96 232 10.91 228 -6.6 100 -6.6 0 0 1005.4 NA 0.0000 9999 950 0 0 0
2019/09/02 05:47:00 BASE 9.02 232 10.91 228 -6.6 100 -6.6 0 0 1005.4 NA 0.0000 9999 890 0 0 0
2019/09/02 05:48:00 BASE 8.60 230 10.91 228 -6.6 100 -6.6 0 0 1005.4 NA 0.0000 9999 1020 0 0 0
2019/09/02 05:49:01 BASE 9.22 224 10.91 228 -6.6 100 -6.6 0 0 1005.3 NA 0.0000 9999 950 0 0 0
2019/09/02 05:50:00 BASE 9.83 219 11.52 224 -6.6 100 -6.6 0 0 1005.3 NA 0.0000 9999 980 0 0 0
2019/09/02 05:51:01 BASE 10.01 216 11.52 224 -6.6 100 -6.6 0 0 1005.4 NA 0.0000 9999 980 0 0 0
2019/09/02 05:52:01 BASE 8.69 214 11.52 224 -6.6 100 -6.6 0 0 1005.4 NA 0.0000 9999 950 0 0 0
2019/09/02 05:53:00 BASE 7.15 215 11.52 224 -6.6 100 -6.6 0 0 1005.5 NA 0.0000 9999 1080 0 0 0
2019/09/02 05:54:00 BASE 7.90 214 11.52 224 -6.6 100 -6.6 0 0 1005.6 NA 0.0000 9999 1080 0 0 0
2019/09/02 05:55:00 BASE 9.41 213 11.52 224 -6.6 100 -6.6 0 0 1005.6 NA 0.0000 9999 1080 0 0 0
2019/09/02 05:56:01 BASE 8.99 207 11.52 224 -6.6 100 -6.6 0 0 1005.7 NA 0.0000 9999 1080 0 0 0
2019/09/02 05:57:01 BASE 9.04 200 12.09 197 -6.5 100 -6.5 0 0 1005.6 NA 0.0000 9999 1080 0 0 0
2019/09/02 05:58:00 BASE 9.67 203 12.09 197 -6.5 100 -6.5 0 0 1005.6 NA 0.0000 9999 1080 0 0 0
2019/09/02 05:59:00 BASE 10.13 209 12.24 218 -6.5 100 -6.5 0 0 1005.6 NA 0.0000 9999 1120 0 0 0
2019/09/02 06:00:00 BASE 10.13 212 12.24 218 -6.5 100 -6.5 0 0 1005.6 NA 0.0000 9999 1210 0 0 0
2019/09/02 06:01:00 BASE 9.57 216 12.24 218 -6.4 100 -6.4 0 0 1005.6 NA 0.0000 9999 1180 0 0 0
2019/09/02 06:02:00 BASE 9.41 219 12.24 218 -6.4 100 -6.4 0 0 1005.5 NA 0.0000 9999 1180 0 0 0
2019/09/02 06:03:00 BASE 10.10 220 12.71 225 -6.4 100 -6.4 0 0 1005.4 NA 0.0000 9999 1120 0 0 0
2019/09/02 06:04:00 BASE 10.42 215 12.71 225 -6.4 100 -6.4 0 0 1005.4 NA 0.0000 9999 1080 0 0 0
2019/09/02 06:05:00 BASE 9.54 204 12.71 225 -6.3 100 -6.3 0 0 1005.4 NA 0.0000 9999 1150 0 0 0
2019/09/02 06:06:00 BASE 9.47 205 12.71 225 -6.3 100 -6.3 0 0 1005.3 NA 0.0000 9999 1150 0 0 0
2019/09/02 06:07:00 BASE 10.86 208 13.12 208 -6.3 100 -6.3 0 0 1005.3 NA 0.0000 9999 1180 0 0 0
2019/09/02 06:08:01 BASE 11.72 212 13.27 227 -6.3 100 -6.3 0 0 1005.3 NA 0.0000 9999 1150 0 0 0
2019/09/02 06:09:01 BASE 11.42 221 13.27 227 -6.3 100 -6.3 0 0 1005.3 NA 0.0000 9999 1250 0 0 0
2019/09/02 06:10:00 BASE 12.09 223 13.58 223 -6.3 100 -6.3 0 0 1005.2 NA 0.0000 9999 1440 0 0 0
2019/09/02 06:11:01 BASE 12.81 222 14.71 222 -6.3 100 -6.3 0 0 1005.2 NA 0.0000 9999 1380 0 0 0
2019/09/02 06:12:00 BASE 12.94 223 14.71 222 -6.3 100 -6.3 0 0 1005.2 NA 0.0000 9999 1210 0 0 0
2019/09/02 06:13:00 BASE 13.47 225 14.76 225 -6.4 100 -6.4 0 0 1005.3 NA 0.0000 9999 1210 0 0 0
2019/09/02 06:14:00 BASE 13.01 223 15.18 219 -6.4 100 -6.4 0 0 1005.2 NA 0.0000 9999 1380 0 0 0
2019/09/02 06:15:00 BASE 12.78 221 15.18 219 -6.4 100 -6.4 0 0 1005.2 NA 0.0000 9999 1250 0 0 0
2019/09/02 06:16:01 BASE 12.14 222 15.18 219 -6.4 100 -6.4 0 0 1005.2 NA 0.0000 9999 1350 0 0 0
2019/09/02 06:17:00 BASE 11.83 226 15.18 219 -6.4 100 -6.4 0 0 1005.2 NA 0.0000 9999 1120 1710 0 0
2019/09/02 06:18:01 BASE 12.81 229 15.18 219 -6.3 100 -6.3 0 0 1005.1 NA 0.0000 9999 1050 0 0 0
2019/09/02 06:19:00 BASE 12.19 226 15.18 219 -6.3 100 -6.3 0 0 1005.1 NA 0.0000 9999 1080 0 0 0
2019/09/02 06:20:00 BASE 12.19 223 15.18 228 -6.3 100 -6.3 0 0 1005.1 NA 0.0000 9999 1080 0 0 0
2019/09/02 06:21:00 BASE 12.62 218 15.18 228 -6.3 100 -6.3 0 0 1005.1 NA 0.0000 9999 1080 0 0 0
2019/09/02 06:22:00 BASE 11.69 219 15.18 228 -6.3 100 -6.3 0 0 1005.0 NA 0.0000 9999 1080 0 0 0
2019/09/02 06:23:00 BASE 11.38 225 15.18 228 -6.4 100 -6.4 0 0 1005.0 NA 0.0000 9999 1050 0 0 0
2019/09/02 06:24:00 BASE 12.97 224 15.18 228 -6.4 100 -6.4 0 0 1004.9 NA 0.0000 9999 1050 0 0 0
2019/09/02 06:25:00 BASE 13.03 222 15.18 228 -6.5 100 -6.5 0 0 1004.9 NA 0.0000 9999 1050 0 0 0
2019/09/02 06:26:01 BASE 12.41 227 15.18 228 -6.5 100 -6.5 0 0 1004.8 NA 0.0000 9999 1080 0 0 0
2019/09/02 06:27:00 BASE 13.28 229 15.90 229 -6.5 100 -6.5 0 0 1004.8 NA 0.0000 9999 1180 0 0 0
2019/09/02 06:28:00 BASE 12.78 236 15.90 229 -6.5 100 -6.5 0 0 1004.8 NA 0.0000 9999 1120 4460 0 0
2019/09/02 06:29:00 BASE 11.32 235 15.90 229 -6.6 100 -6.6 0 0 1004.8 NA 0.0000 9999 980 4400 0 0
2019/09/02 06:30:00 BASE 10.26 227 15.90 229 -6.6 100 -6.6 0 0 1004.8 NA 0.0000 9999 980 0 0 0
2019/09/02 06:31:00 BASE 10.46 228 15.90 229 -6.6 100 -6.6 0 0 1004.8 NA 0.0000 9999 1020 0 0 0
2019/09/02 06:32:00 BASE 11.26 233 15.90 229 -6.6 100 -6.6 0 0 1004.8 NA 0.0000 9999 1150 4530 0 0
2019/09/02 06:33:00 BASE 11.50 235 15.90 229 -6.6 100 -6.6 0 0 1004.8 NA 0.0000 9999 1120 0 0 0
2019/09/02 06:34:01 BASE 12.55 233 15.90 229 -6.6 100 -6.6 0 0 1004.8 NA 0.0000 9999 1150 4430 0 0
2019/09/02 06:35:00 BASE 12.81 232 15.90 229 -6.6 100 -6.6 0 0 1004.8 NA 0.0000 9999 1120 0 0 0
2019/09/02 06:36:00 BASE 10.99 232 15.90 229 -6.6 100 -6.6 0 0 1004.8 NA 0.0000 9999 1120 4560 0 0
2019/09/02 06:37:00 BASE 12.06 228 15.84 227 -6.5 100 -6.5 0 0 1004.8 NA 0.0000 9999 1210 4590 0 0
2019/09/02 06:38:00 BASE 13.93 225 16.10 225 -6.5 100 -6.5 0 0 1004.8 NA 0.0000 9999 1120 4530 0 0
2019/09/02 06:39:00 BASE 13.82 223 16.10 225 -6.5 100 -6.5 0 0 1004.8 NA 0.0000 9999 1050 0 0 0
2019/09/02 06:40:00 BASE 13.57 226 16.10 225 -6.5 100 -6.5 0 0 1004.8 NA 0.0000 9999 1080 4590 0 0
2019/09/02 06:41:00 BASE 13.32 230 16.10 225 -6.5 100 -6.5 0 0 1004.8 NA 0.0000 9999 1150 4590 0 0
2019/09/02 06:42:00 BASE 14.16 227 16.62 223 -6.5 100 -6.5 0 0 1004.8 NA 0.0000 9999 1180 4590 0 0
2019/09/02 06:43:00 BASE 14.80 223 16.62 223 -6.5 100 -6.5 0 0 1004.8 NA 0.0000 9999 1150 4530 0 0
2019/09/02 06:44:00 BASE 13.30 223 16.62 223 -6.6 100 -6.6 0 0 1004.8 NA 0.0000 9999 1080 0 0 0
2019/09/02 06:45:00 BASE 12.16 226 16.62 223 -6.6 100 -6.6 0 0 1004.8 NA 0.0000 9999 1120 4630 0 0
2019/09/02 06:46:00 BASE 13.25 223 16.62 223 -6.5 100 -6.5 0 0 1004.8 NA 0.0000 9999 1050 0 0 0
2019/09/02 06:47:00 BASE 14.29 221 16.62 223 -6.6 100 -6.6 0 0 1004.8 NA 0.0000 9999 1050 0 0 0
2019/09/02 06:48:00 BASE 14.36 222 16.62 223 -6.6 100 -6.6 0 0 1004.8 NA 0.0000 9999 1080 0 0 0
2019/09/02 06:49:00 BASE 13.69 220 16.62 223 -6.6 100 -6.6 0 0 1004.8 NA 0.0000 9999 1020 0 0 0
2019/09/02 06:50:00 BASE 12.96 218 16.62 223 -6.6 100 -6.6 0 0 1004.8 NA 0.0000 9999 1080 0 0 0
2019/09/02 06:51:00 BASE 13.20 214 16.62 223 -6.6 100 -6.6 0 0 1004.8 NA 0.0000 9999 980 0 0 0
2019/09/02 06:52:00 BASE 13.17 212 15.84 221 -6.6 100 -6.6 0 0 1004.8 NA 0.0000 9999 980 0 0 0
2019/09/02 06:53:00 BASE 13.51 216 15.28 225 -6.6 100 -6.6 0 0 1004.7 NA 0.0000 9999 1210 4530 0 0
2019/09/02 06:54:00 BASE 13.66 214 15.28 225 -6.6 100 -6.6 0 0 1004.7 NA 0.0000 9999 1210 4490 0 0
2019/09/02 06:55:00 BASE 11.96 210 15.28 225 -6.6 100 -6.6 0 0 1004.7 NA 0.0000 9999 1120 4460 0 0
2019/09/02 06:56:00 BASE 11.92 216 15.28 225 -6.7 100 -6.7 0 0 1004.7 NA 0.0000 9999 1020 0 0 0
2019/09/02 06:57:00 BASE 12.39 224 14.97 227 -6.7 100 -6.7 0 0 1004.7 NA 0.0000 9999 1050 4530 0 0
2019/09/02 06:58:00 BASE 12.34 222 14.97 227 -6.7 100 -6.7 0 0 1004.7 NA 0.0000 9999 1020 0 0 0
2019/09/02 06:59:00 BASE 13.31 222 15.07 222 -6.7 100 -6.7 0 0 1004.7 NA 0.0000 9999 1020 0 0 0
2019/09/02 07:00:00 BASE 13.10 225 15.07 222 -6.7 100 -6.7 0 0 1004.7 NA 0.0000 9999 1080 4530 0 0
2019/09/02 07:01:00 BASE 12.84 221 15.07 222 -6.6 100 -6.6 0 0 1004.7 NA 0.0000 9999 1050 0 0 0
2019/09/02 07:02:00 BASE 12.65 219 15.07 222 -6.7 100 -6.7 0 0 1004.7 NA 0.0000 9999 1080 4460 0 0
2019/09/02 07:03:00 BASE 11.50 220 15.07 222 -6.7 100 -6.7 0 0 1004.7 NA 0.0000 9999 980 0 0 0
2019/09/02 07:04:00 BASE 10.84 223 15.07 222 -6.7 100 -6.7 0 0 1004.7 NA 0.0000 9999 1050 0 0 0
2019/09/02 07:05:00 BASE 10.88 223 15.07 222 -6.7 100 -6.7 0 0 1004.7 NA 0.0000 9999 980 0 0 0
2019/09/02 07:06:00 BASE 11.05 224 15.07 222 -6.7 100 -6.7 0 0 1004.7 NA 0.0000 9999 1050 0 0 0
2019/09/02 07:07:00 BASE 10.88 225 15.07 222 -6.7 100 -6.7 0 0 1004.7 NA 0.0000 9999 980 0 0 0
2019/09/02 07:08:00 BASE 10.68 219 15.07 222 -6.7 100 -6.7 0 0 1004.7 NA 0.0000 9999 950 0 0 0
2019/09/02 07:09:00 BASE 9.40 213 14.46 221 -6.7 100 -6.7 0 0 1004.7 NA 0.0000 9999 890 0 0 0
2019/09/02 07:10:00 BASE 8.94 215 13.99 217 -6.7 100 -6.7 0 0 1004.7 NA 0.0000 9999 890 0 0 0
2019/09/02 07:11:00 BASE 9.84 218 13.63 217 -6.7 100 -6.7 0 0 1004.7 NA 0.0000 9999 890 0 0 0
2019/09/02 07:12:00 BASE 10.41 217 12.60 221 -6.6 100 -6.6 0 0 1004.6 NA 0.0000 9999 920 0 0 0
2019/09/02 07:13:00 BASE 10.49 216 12.60 221 -6.6 100 -6.6 0 0 1004.6 NA 0.0000 9999 920 0 0 0
2019/09/02 07:14:00 BASE 9.71 213 12.60 221 -6.6 100 -6.6 0 0 1004.5 NA 0.0000 9999 890 0 0 0
2019/09/02 07:15:00 BASE 9.18 216 12.60 221 -6.6 100 -6.6 0 0 1004.6 NA 0.0000 9999 950 0 0 0
2019/09/02 07:16:00 BASE 9.27 223 12.60 221 -6.7 100 -6.7 0 0 1004.5 NA 0.0000 9999 850 0 0 0
2019/09/02 07:17:00 BASE 10.12 222 12.60 221 -6.7 100 -6.7 0 0 1004.5 NA 0.0000 9999 850 0 0 0
2019/09/02 07:18:00 BASE 9.84 219 12.60 221 -6.7 100 -6.7 0 0 1004.6 NA 0.0000 9999 920 0 0 0
2019/09/02 07:19:00 BASE 9.29 220 12.60 221 -6.7 100 -6.7 0 0 1004.6 NA 0.0000 9999 890 0 0 0
2019/09/02 07:20:00 BASE 9.89 223 12.60 221 -6.7 100 -6.7 0 0 1004.5 NA 0.0000 9999 920 0 0 0
2019/09/02 07:21:00 BASE 9.81 221 12.60 221 -6.7 100 -6.7 0 0 1004.5 NA 0.0000 9999 950 0 0 0
2019/09/02 07:22:00 BASE 9.96 215 11.73 217 -6.7 100 -6.7 0 0 1004.5 NA 0.0000 9999 920 0 0 0
2019/09/02 07:23:00 BASE 9.88 214 11.73 217 -6.7 100 -6.7 0 0 1004.5 NA 0.0000 9999 890 0 0 0
2019/09/02 07:24:00 BASE 9.25 214 11.73 217 -6.7 100 -6.7 0 0 1004.5 NA 0.0000 9999 890 0 0 0
2019/09/02 07:25:00 BASE 9.01 213 11.73 217 -6.7 100 -6.7 0 0 1004.5 NA 0.0000 9999 920 0 0 0
2019/09/02 07:26:00 BASE 8.61 216 11.73 217 -6.7 100 -6.7 0 0 1004.5 NA 0.0000 9999 920 0 0 0
2019/09/02 07:27:00 BASE 8.30 220 11.47 217 -6.7 100 -6.7 0 0 1004.5 NA 0.0000 9999 950 0 0 0
2019/09/02 07:28:00 BASE 8.72 226 11.47 217 -6.7 100 -6.7 0 0 1004.4 NA 0.0000 9999 920 0 0 0
2019/09/02 07:29:00 BASE 9.37 228 11.47 217 -6.7 100 -6.7 0 0 1004.4 NA 0.0000 9999 950 0 0 0
2019/09/02 07:30:00 BASE 9.68 226 11.47 217 -6.7 100 -6.7 0 0 1004.4 NA 0.0000 9999 920 0 0 0
2019/09/02 07:31:00 BASE 9.83 224 11.47 217 -6.7 100 -6.7 0 0 1004.3 NA 0.0000 9999 920 0 0 0
2019/09/02 07:32:00 BASE 10.38 221 11.99 219 -6.7 100 -6.7 0 0 1004.2 NA 0.0000 9999 890 0 0 0
2019/09/02 07:33:00 BASE 10.42 221 11.99 219 -6.7 100 -6.7 0 0 1004.3 NA 0.0000 9999 850 0 0 0
2019/09/02 07:34:00 BASE 10.60 224 11.99 219 -6.7 100 -6.7 0 0 1004.3 NA 0.0000 9999 1020 0 0 0
2019/09/02 07:35:00 BASE 10.90 228 11.99 219 -6.7 100 -6.7 0 0 1004.4 NA 0.0000 9999 1050 0 0 0
2019/09/02 07:36:00 BASE 10.45 225 11.99 219 -6.7 100 -6.7 0 0 1004.4 NA 0.0000 9999 950 0 0 0
2019/09/02 07:37:00 BASE 10.51 220 11.99 219 -6.7 100 -6.7 0 0 1004.4 NA 0.0000 9999 980 0 0 0
2019/09/02 07:38:00 BASE 10.66 218 12.60 222 -6.7 100 -6.7 0 0 1004.3 NA 0.0000 9999 1250 0 0 0
2019/09/02 07:39:00 BASE 10.21 221 12.60 222 -6.7 100 -6.7 0 0 1004.3 NA 0.0000 9999 1120 0 0 0
2019/09/02 07:40:00 BASE 9.41 222 12.60 222 -6.7 100 -6.7 0 0 1004.2 NA 0.0000 9999 1080 0 0 0
2019/09/02 07:41:00 BASE 9.86 220 12.60 222 -6.7 100 -6.7 0 0 1004.1 NA 0.0000 9999 1180 0 0 0
2019/09/02 07:42:00 BASE 10.56 222 12.60 222 -6.7 100 -6.7 0 0 1004.1 NA 0.0000 9999 1120 0 0 0
2019/09/02 07:43:00 BASE 11.00 223 12.60 222 -6.6 100 -6.6 0 0 1004.1 NA 0.0000 9999 1050 0 0 0
2019/09/02 07:44:00 BASE 11.12 220 12.60 222 -6.6 100 -6.6 0 0 1004.1 NA 0.0000 9999 1080 0 0 0
2019/09/02 07:45:00 BASE 9.91 217 12.60 222 -6.6 100 -6.6 0 0 1004.1 NA 0.0000 9999 1120 0 0 0
2019/09/02 07:46:00 BASE 9.52 215 12.60 222 -6.5 100 -6.5 0 0 1004.1 NA 0.0000 9999 1050 0 0 0
2019/09/02 07:47:00 BASE 9.80 217 12.60 222 -6.5 100 -6.5 0 0 1004.1 NA 0.0000 9999 1410 0 0 0
2019/09/02 07:48:00 BASE 10.01 218 12.35 223 -6.5 100 -6.5 0 0 1004.1 NA 0.0000 9999 1180 1610 2590 0
2019/09/02 07:49:00 BASE 10.74 221 12.81 226 -6.5 100 -6.5 0 0 1004.0 NA 0.0000 9999 1120 0 0 0
2019/09/02 07:50:00 BASE 10.66 223 12.81 226 -6.5 100 -6.5 0 0 1004.1 NA 0.0000 9999 1180 0 0 0
2019/09/02 07:51:00 BASE 10.21 219 12.81 226 -6.4 100 -6.4 0 0 1004.1 NA 0.0000 9999 1120 0 0 0
2019/09/02 07:52:00 BASE 10.38 216 12.81 226 -6.4 100 -6.4 0 0 1004.1 NA 0.0000 9999 1080 0 0 0
2019/09/02 07:53:00 BASE 10.57 216 12.81 226 -6.4 100 -6.4 0 0 1004.2 NA 0.0000 9999 1120 0 0 0
2019/09/02 07:54:00 BASE 10.93 218 12.91 220 -6.4 100 -6.4 0 0 1004.1 NA 0.0000 9999 1120 0 0 0
2019/09/02 07:55:00 BASE 11.01 217 12.91 220 -6.3 100 -6.3 0 0 1004.2 NA 0.0000 9999 1150 0 0 0
2019/09/02 07:56:00 BASE 11.91 218 16.77 223 -6.3 100 -6.3 0 0 1004.2 NA 0.0000 9999 1120 0 0 0
2019/09/02 07:57:00 BASE 14.88 219 17.85 221 -6.3 100 -6.3 0 0 1004.2 NA 0.0000 9999 1250 0 0 0
2019/09/02 07:58:00 BASE 16.13 221 17.85 221 -6.2 100 -6.2 0 0 1004.3 NA 0.0000 9999 1250 0 0 0
2019/09/02 07:59:00 BASE 15.28 221 18.01 211 -6.2 100 -6.2 0 0 1004.3 NA 0.0000 9999 1120 0 0 0
2019/09/02 08:00:00 BASE 15.69 220 19.09 226 -6.2 100 -6.2 0 0 1004.4 NA 0.0000 9999 1280 0 0 0
2019/09/02 08:01:00 BASE 16.38 223 19.09 226 -6.2 100 -6.2 0 0 1004.4 NA 0.0000 9999 1150 0 0 0
2019/09/02 08:02:00 BASE 15.29 221 19.09 226 -6.2 100 -6.2 0 0 1004.4 NA 0.0000 9999 1210 0 0 0
2019/09/02 08:03:00 BASE 14.04 220 19.09 226 -6.2 100 -6.2 0 0 1004.4 NA 0.0000 9999 1080 0 0 0
2019/09/02 08:04:00 BASE 15.08 222 19.09 226 -6.2 100 -6.2 0 0 1004.4 NA 0.0000 9999 1050 0 0 0
2019/09/02 08:05:00 BASE 15.59 217 19.09 226 -6.3 100 -6.3 0 0 1004.4 NA 0.0000 9999 1080 0 0 0
2019/09/02 08:06:00 BASE 15.76 216 19.09 226 -6.3 100 -6.3 0 0 1004.4 NA 0.0000 9999 1080 0 0 0
2019/09/02 08:07:00 BASE 16.59 218 19.09 226 -6.3 100 -6.3 0 0 1004.5 NA 0.0000 9999 1050 0 0 0
2019/09/02 08:08:00 BASE 15.66 216 19.09 226 -6.3 100 -6.3 0 0 1004.5 NA 0.0000 9999 1080 0 0 0
2019/09/02 08:09:00 BASE 16.42 218 20.32 229 -6.3 100 -6.3 0 0 1004.5 NA 0.0000 9999 1120 0 0 0
2019/09/02 08:10:00 BASE 18.20 222 20.32 229 -6.3 100 -6.3 0 0 1004.5 NA 0.0000 9999 1050 0 0 0
2019/09/02 08:11:00 BASE 17.56 221 20.32 229 -6.4 100 -6.4 0 0 1004.5 NA 0.0000 9999 1540 0 0 0
2019/09/02 08:12:00 BASE 16.24 218 20.32 229 -6.4 100 -6.4 0 0 1004.5 NA 0.0000 9999 1050 0 0 0
2019/09/02 08:13:00 BASE 16.13 219 20.32 229 -6.4 100 -6.4 0 0 1004.5 NA 0.0000 9999 1120 0 0 0
2019/09/02 08:14:00 BASE 17.07 220 20.32 229 -6.4 100 -6.4 0 0 1004.5 NA 0.0000 9999 1570 0 0 0
2019/09/02 08:15:00 BASE 18.47 222 21.40 219 -6.4 100 -6.4 0 0 1004.5 NA 0.0000 9999 1150 0 0 0
2019/09/02 08:16:00 BASE 18.58 226 21.40 219 -6.4 100 -6.4 0 0 1004.6 NA 0.0000 9999 1310 0 0 0
2019/09/02 08:17:00 BASE 15.82 226 21.40 219 -6.4 100 -6.4 0 0 1004.7 NA 0.0000 9999 1150 0 0 0
2019/09/02 08:18:00 BASE 14.77 228 21.40 219 -6.4 100 -6.4 0 0 1004.5 NA 0.0000 9999 1150 0 0 0
2019/09/02 08:19:00 BASE 17.03 224 21.40 219 -6.3 100 -6.3 0 0 1004.5 NA 0.0000 9999 1080 0 0 0
2019/09/02 08:20:00 BASE 16.75 210 21.40 219 -6.3 100 -6.3 0 0 1004.5 NA 0.0000 9999 1050 0 0 0
2019/09/02 08:21:00 BASE 14.96 203 21.40 219 -6.3 100 -6.3 0 0 1004.5 NA 0.0000 9999 1050 0 0 0
2019/09/02 08:22:00 BASE 15.74 204 21.40 219 -6.2 100 -6.2 0 0 1004.4 NA 0.0000 9999 1150 0 0 0
2019/09/02 08:23:00 BASE 18.29 209 21.61 209 -6.2 100 -6.2 0 0 1004.3 NA 0.0000 9999 1150 0 0 0
2019/09/02 08:24:00 BASE 18.05 214 21.61 209 -6.2 100 -6.3 0 0 1004.3 NA 0.0000 9999 1120 0 0 0
2019/09/02 08:25:00 BASE 17.29 216 21.61 209 -6.3 100 -6.3 0 0 1004.3 NA 0.0000 9999 950 0 0 0
2019/09/02 08:26:00 BASE 16.42 218 21.61 209 -6.3 100 -6.3 0 0 1004.4 NA 0.0000 9999 980 0 0 0
2019/09/02 08:27:00 BASE 15.58 219 21.61 209 -6.3 100 -6.3 0 0 1004.4 NA 0.0000 9999 1280 0 0 0
2019/09/02 08:28:00 BASE 17.18 220 21.61 209 -6.3 100 -6.3 0 0 1004.4 NA 0.0000 9999 1210 0 0 0
2019/09/02 08:29:00 BASE 16.49 217 21.61 209 -6.3 100 -6.3 0 0 1004.5 NA 0.0000 9999 1280 0 0 0
2019/09/02 08:30:00 BASE 15.67 215 21.61 209 -6.3 100 -6.3 0 0 1004.4 NA 0.0000 9999 1350 0 0 0
2019/09/02 08:31:00 BASE 15.28 212 21.61 209 -6.3 100 -6.3 0 0 1004.4 NA 0.0000 9999 1120 0 0 0
2019/09/02 08:32:00 BASE 15.62 215 21.61 209 -6.4 100 -6.4 0 0 1004.4 NA 0.0000 9999 1150 0 0 0
2019/09/02 08:33:00 BASE 15.63 220 20.11 219 -6.4 100 -6.4 0 0 1004.4 NA 0.0000 9999 1150 0 0 0
2019/09/02 08:34:00 BASE 13.22 216 20.11 219 -6.4 100 -6.4 0 0 1004.5 NA 0.0000 9999 1080 0 0 0
2019/09/02 08:35:00 BASE 11.48 213 19.75 225 -6.4 100 -6.4 0 0 1004.5 NA 0.0000 9999 920 0 0 0
2019/09/02 08:36:00 BASE 11.63 210 19.75 225 -6.4 100 -6.4 0 0 1004.5 NA 0.0000 9999 1080 0 0 0
2019/09/02 08:37:00 BASE 12.88 210 19.75 225 -6.4 100 -6.4 0 0 1004.5 NA 0.0000 9999 920 0 0 0
2019/09/02 08:38:00 BASE 13.16 212 18.21 218 -6.4 100 -6.4 0 0 1004.5 NA 0.0000 9999 1050 0 0 0
2019/09/02 08:39:00 BASE 12.26 213 18.21 218 -6.4 100 -6.4 0 0 1004.6 NA 0.0000 9999 1080 0 0 0
2019/09/02 08:40:00 BASE 12.25 211 18.16 220 -6.4 100 -6.4 0 0 1004.6 NA 0.0000 9999 1080 0 0 0
2019/09/02 08:41:00 BASE 12.60 205 18.16 220 -6.4 100 -6.4 0 0 1004.6 NA 0.0000 9999 1050 0 0 0
2019/09/02 08:42:00 BASE 12.62 204 16.67 215 -6.3 100 -6.3 0 0 1004.6 NA 0.0000 9999 1120 0 0 0
2019/09/02 08:43:00 BASE 13.13 209 15.43 213 -6.3 100 -6.3 0 0 1004.6 NA 0.0000 9999 980 0 0 0
2019/09/02 08:44:00 BASE 12.72 209 15.43 213 -6.3 100 -6.3 0 0 1004.7 NA 0.0000 9999 1050 0 0 0
2019/09/02 08:45:00 BASE 11.72 210 15.43 213 -6.3 100 -6.3 0 0 1004.7 NA 0.0000 9999 1120 0 0 0
2019/09/02 08:46:00 BASE 11.34 210 15.43 213 -6.3 100 -6.3 0 0 1004.6 NA 0.0000 9999 1180 0 0 0
2019/09/02 08:47:00 BASE 11.78 206 15.43 213 -6.3 100 -6.3 0 0 1004.6 NA 0.0000 9999 1250 0 0 0
2019/09/02 08:48:00 BASE 12.57 203 15.43 213 -6.3 100 -6.3 0 0 1004.6 NA 0.0000 9999 1250 0 0 0
2019/09/02 08:49:00 BASE 13.30 205 15.43 213 -6.3 100 -6.3 0 0 1004.6 NA 0.0000 9999 1120 0 0 0
2019/09/02 08:50:00 BASE 13.31 207 15.43 213 -6.3 100 -6.3 0 0 1004.6 NA 0.0000 9999 1050 0 0 0
2019/09/02 08:51:00 BASE 11.65 204 15.43 213 -6.3 100 -6.3 0 0 1004.7 NA 0.0000 9999 1020 0 0 0
2019/09/02 08:52:00 BASE 9.84 199 15.38 211 -6.3 100 -6.3 0 0 1004.7 NA 0.0000 9999 1150 0 0 0
2019/09/02 08:53:00 BASE 8.83 199 15.38 211 -6.3 100 -6.3 0 0 1004.7 NA 0.0000 9999 1120 0 0 0
2019/09/02 08:54:00 BASE 7.58 201 15.38 211 -6.4 100 -6.4 0 0 1004.7 NA 0.0000 9999 1080 0 0 0
2019/09/02 08:55:00 BASE 6.88 204 15.38 211 -6.4 100 -6.4 0 0 1004.7 NA 0.0000 9999 1150 0 0 0
2019/09/02 08:56:00 BASE 7.48 215 15.38 211 -6.4 100 -6.4 0 0 1004.6 NA 0.0000 9999 1150 0 0 0
2019/09/02 08:57:00 BASE 7.34 223 15.38 211 -6.4 100 -6.4 0 0 1004.5 NA 0.0000 9999 1080 0 0 0
2019/09/02 08:58:00 BASE 7.17 211 15.38 211 -6.3 100 -6.3 0 0 1004.4 NA 0.0000 9999 1120 0 0 0
2019/09/02 08:59:00 BASE 8.54 201 14.25 210 -6.3 100 -6.3 0 0 1004.4 NA 0.0000 9999 1120 0 0 0
2019/09/02 09:00:00 BASE 11.39 207 15.95 209 -6.2 100 -6.2 0 0 1004.4 NA 0.0000 9999 1150 0 0 0
2019/09/02 09:01:00 BASE 13.86 213 16.20 207 -6.2 100 -6.2 0 0 1004.4 NA 0.0000 9999 1210 0 0 0
2019/09/02 09:02:00 BASE 14.35 217 16.20 207 -6.2 100 -6.2 0 0 1004.4 NA 0.0000 9999 1080 0 0 0
2019/09/02 09:03:00 BASE 13.98 220 16.20 207 -6.3 100 -6.3 0 0 1004.4 NA 0.0000 9999 1180 0 0 0
2019/09/02 09:04:00 BASE 12.57 218 16.20 207 -6.3 100 -6.3 0 0 1004.5 NA 0.0000 9999 1280 0 0 0
2019/09/02 09:05:00 BASE 12.25 218 16.20 207 -6.3 100 -6.3 0 0 1004.4 NA 0.0000 9999 1180 0 0 0
2019/09/02 09:06:00 BASE 13.05 215 16.20 207 -6.3 100 -6.3 0 0 1004.4 NA 0.0000 9999 1150 0 0 0
2019/09/02 09:07:00 BASE 12.90 219 16.20 207 -6.3 100 -6.3 0 0 1004.4 NA 0.0000 9999 1150 0 0 0
2019/09/02 09:08:00 BASE 12.41 224 16.20 207 -6.4 100 -6.4 0 0 1004.4 NA 0.0000 9999 1210 0 0 0
2019/09/02 09:09:00 BASE 13.03 223 16.20 207 -6.4 100 -6.4 0 0 1004.4 NA 0.0000 9999 1080 0 0 0
2019/09/02 09:10:00 BASE 12.89 224 16.20 207 -6.4 100 -6.4 0 0 1004.5 NA 0.0000 9999 1210 0 0 0
2019/09/02 09:11:00 BASE 11.75 223 15.28 223 -6.4 100 -6.4 0 0 1004.4 NA 0.0000 9999 1150 0 0 0
2019/09/02 09:12:00 BASE 12.80 220 15.28 223 -6.5 100 -6.5 0 0 1004.4 NA 0.0000 9999 1210 1870 0 0
2019/09/02 09:13:00 BASE 13.37 218 14.82 225 -6.5 100 -6.5 0 0 1004.5 NA 0.0000 9999 1180 0 0 0
2019/09/02 09:14:00 BASE 12.21 212 14.82 225 -6.6 100 -6.6 0 0 1004.5 NA 0.0000 9999 950 0 0 0
2019/09/02 09:15:00 BASE 11.94 206 14.82 225 -6.6 100 -6.6 0 0 1004.5 NA 0.0000 9999 920 0 0 0
2019/09/02 09:16:00 BASE 12.41 207 14.82 225 -6.7 100 -6.7 0 0 1004.5 NA 0.0000 9999 920 0 0 0
2019/09/02 09:17:00 BASE 11.23 207 14.82 225 -6.8 100 -6.8 0 0 1004.5 NA 0.0000 9999 790 0 0 0
2019/09/02 09:18:00 BASE 9.81 207 14.82 225 -6.9 100 -6.9 0 0 1004.5 NA 0.0000 9999 750 0 0 0
2019/09/02 09:19:00 BASE 9.09 208 14.71 218 -6.9 100 -6.9 0 0 1004.5 NA 0.0000 9999 790 0 0 0
2019/09/02 09:20:00 BASE 9.10 209 14.71 218 -6.9 100 -6.9 0 0 1004.5 NA 0.0000 9999 790 0 0 0
2019/09/02 09:21:00 BASE 10.88 203 14.71 218 -6.9 100 -6.9 0 0 1004.4 NA 0.0000 9999 850 0 0 0
2019/09/02 09:22:00 BASE 10.85 199 13.74 209 -7.0 100 -7.0 0 0 1004.4 NA 0.0000 9999 850 0 0 0
2019/09/02 09:23:00 BASE 9.33 202 13.74 209 -7.0 100 -7.0 0 0 1004.4 NA 0.0000 9999 920 0 0 0
2019/09/02 09:24:00 BASE 9.92 194 13.94 184 -7.0 100 -7.0 0 0 1004.5 NA 0.0000 9999 950 0 0 0
2019/09/02 09:25:00 BASE 10.38 187 13.94 184 -7.0 100 -7.0 0 0 1004.5 NA 0.0000 9999 690 0 0 0
2019/09/02 09:26:00 BASE 9.68 187 13.94 184 -7.0 100 -7.0 0 0 1004.6 NA 0.0000 9999 850 0 0 0
2019/09/02 09:27:00 BASE 9.02 188 13.94 184 -7.0 100 -7.0 0 0 1004.6 NA 0.0000 9999 820 0 0 0
2019/09/02 09:28:00 BASE 8.16 195 13.94 184 -7.0 100 -7.0 0 0 1004.6 NA 0.0000 9999 1050 0 0 0
2019/09/02 09:29:00 BASE 7.61 197 13.94 184 -7.0 100 -7.0 0 0 1004.6 NA 0.0000 9999 890 0 0 0
2019/09/02 09:30:00 BASE 8.25 188 13.94 184 -7.0 100 -7.0 0 0 1004.6 NA 0.0000 9999 820 0 0 0
2019/09/02 09:31:00 BASE 8.94 180 13.94 184 -6.9 100 -6.9 0 0 1004.6 NA 0.0000 9999 820 0 0 0
2019/09/02 09:32:00 BASE 8.69 177 13.94 184 -6.9 100 -6.9 0 0 1004.6 NA 0.0000 9999 920 0 0 0
2019/09/02 09:33:00 BASE 8.52 179 13.94 184 -6.9 100 -6.9 0 0 1004.6 NA 0.0000 9999 920 0 0 0
2019/09/02 09:34:00 BASE 8.02 187 11.94 192 -6.9 100 -6.9 0 0 1004.6 NA 0.0000 9999 1080 0 0 0
2019/09/02 09:35:00 BASE 8.29 192 10.70 181 -6.9 100 -6.9 0 0 1004.6 NA 0.0000 9999 1020 0 0 0
2019/09/02 09:36:00 BASE 8.21 189 10.70 181 -6.9 100 -6.9 0 0 1004.6 NA 0.0000 9999 980 0 0 0
2019/09/02 09:37:00 BASE 6.60 186 10.70 181 -6.8 100 -6.8 0 0 1004.6 NA 0.0000 9999 1050 0 0 0
2019/09/02 09:38:00 BASE 6.11 187 10.70 181 -6.8 100 -6.8 0 0 1004.6 NA 0.0000 9999 1020 0 0 0
2019/09/02 09:39:00 BASE 6.83 184 10.70 181 -6.8 100 -6.8 0 0 1004.6 NA 0.0000 9999 1020 0 0 0
2019/09/02 09:40:00 BASE 6.87 178 10.34 190 -6.8 100 -6.8 0 0 1004.6 NA 0.0000 9999 1020 0 0 0
2019/09/02 09:41:00 BASE 6.25 175 10.29 189 -6.8 100 -6.8 0 0 1004.6 NA 0.0000 9999 1050 0 0 0
2019/09/02 09:42:00 BASE 6.02 182 10.29 189 -6.8 100 -6.8 0 0 1004.6 NA 0.0000 9999 1020 0 0 0
2019/09/02 09:43:00 BASE 5.81 184 10.29 189 -6.7 100 -6.7 0 0 1004.6 NA 0.0000 9999 1080 0 0 0
2019/09/02 09:44:00 BASE 6.86 179 10.29 189 -6.7 100 -6.7 0 0 1004.5 NA 0.0000 9999 1210 0 0 0
2019/09/02 09:45:00 BASE 8.97 181 12.14 189 -6.7 100 -6.7 0 0 1004.5 NA 0.0000 9999 1380 0 0 0
2019/09/02 09:46:00 BASE 10.29 188 12.14 189 -6.6 100 -6.6 0 0 1004.5 NA 0.0000 9999 1350 0 0 0
2019/09/02 09:47:00 BASE 8.74 194 12.14 189 -6.6 100 -6.6 0 0 1004.6 NA 0.0000 9999 1120 0 0 0
2019/09/02 09:48:00 BASE 7.08 196 12.14 189 -6.6 100 -6.6 0 0 1004.7 NA 0.0000 9999 1120 0 0 0
2019/09/02 09:49:00 BASE 6.70 194 12.14 189 -6.7 100 -6.7 0 0 1004.7 NA 0.0000 9999 1410 0 0 0
2019/09/02 09:50:00 BASE 7.34 186 12.14 189 -6.7 100 -6.7 0 0 1004.6 NA 0.0000 9999 1350 0 0 0
2019/09/02 09:51:00 BASE 7.80 184 12.14 189 -6.7 100 -6.7 0 0 1004.6 NA 0.0000 9999 1410 0 0 0
2019/09/02 09:52:00 BASE 8.04 203 12.14 189 -6.6 100 -6.6 0 0 1004.6 NA 0.0000 9999 1410 0 0 0
2019/09/02 09:53:00 BASE 8.96 217 12.14 189 -6.6 100 -6.6 0 0 1004.6 NA 0.0000 9999 1210 0 0 0
2019/09/02 09:54:00 BASE 8.77 214 12.14 189 -6.6 100 -6.6 0 0 1004.6 NA 0.0000 9999 1310 0 0 0
2019/09/02 09:55:00 BASE 7.44 210 11.88 187 -6.6 100 -6.6 0 0 1004.7 NA 0.0000 9999 1250 0 0 0
2019/09/02 09:56:00 BASE 7.15 207 10.70 212 -6.5 100 -6.5 0 0 1004.7 NA 0.0000 9999 1310 0 0 0
2019/09/02 09:57:00 BASE 8.37 206 10.70 212 -6.5 100 -6.5 0 0 1004.7 NA 0.0000 9999 1380 0 0 0
2019/09/02 09:58:00 BASE 7.95 203 10.70 212 -6.5 100 -6.5 0 0 1004.7 NA 0.0000 9999 1310 0 0 0
2019/09/02 09:59:00 BASE 6.70 202 10.70 212 -6.5 100 -6.5 0 0 1004.7 NA 0.0000 9999 1310 0 0 0
2019/09/02 10:00:00 BASE 6.06 207 10.70 212 -6.5 100 -6.5 0 0 1004.6 NA 0.0000 9999 1310 0 0 0
2019/09/02 10:01:00 BASE 5.67 208 10.70 212 -6.4 100 -6.4 0 0 1004.6 NA 0.0000 9999 1350 0 0 0
2019/09/02 10:02:00 BASE 5.73 203 10.70 212 -6.4 100 -6.4 0 0 1004.6 NA 0.0000 9999 1380 0 0 0
2019/09/02 10:03:00 BASE 5.75 197 10.39 212 -6.4 100 -6.4 0 0 1004.7 NA 0.0000 9999 1380 0 0 0
2019/09/02 10:04:00 BASE 5.29 186 9.41 203 -6.4 100 -6.4 0 0 1004.7 NA 0.0000 9999 1410 0 0 0
2019/09/02 10:05:00 BASE 6.16 188 9.41 206 -6.4 100 -6.4 0 0 1004.7 NA 0.0000 9999 1380 0 0 0
2019/09/02 10:06:00 BASE 7.03 203 9.41 206 -6.3 100 -6.3 0 0 1004.7 NA 0.0000 9999 1310 0 0 0
2019/09/02 10:07:00 BASE 6.60 208 9.41 206 -6.3 100 -6.3 0 0 1004.7 NA 0.0000 9999 1310 0 0 0
2019/09/02 10:08:00 BASE 6.34 203 9.41 206 -6.3 100 -6.3 0 0 1004.7 NA 0.0000 9999 1310 0 0 0
2019/09/02 10:09:00 BASE 6.35 192 9.41 206 -6.3 100 -6.3 0 0 1004.7 NA 0.0000 9999 1250 0 0 0
2019/09/02 10:10:00 BASE 7.01 183 9.41 206 -6.2 100 -6.2 0 0 1004.7 NA 0.0000 9999 1280 0 0 0
2019/09/02 10:11:00 BASE 7.32 185 9.41 206 -6.2 100 -6.2 0 0 1004.7 NA 0.0000 9999 1310 0 0 0
2019/09/02 10:12:00 BASE 7.23 197 9.41 206 -6.2 100 -6.2 0 0 1004.7 NA 0.0000 9999 1120 0 0 0
2019/09/02 10:13:00 BASE 7.43 202 9.41 206 -6.3 100 -6.3 0 0 1004.6 NA 0.0000 9999 1280 0 0 0
2019/09/02 10:14:00 BASE 6.79 205 9.41 206 -6.3 100 -6.3 0 0 1004.6 NA 0.0000 9999 1380 0 0 0
2019/09/02 10:15:00 BASE 5.55 211 8.59 198 -6.3 100 -6.3 0 0 1004.6 NA 0.0000 9999 1350 0 0 0
2019/09/02 10:16:00 BASE 5.86 222 8.59 198 -6.3 100 -6.3 0 0 1004.5 NA 0.0000 9999 1250 0 0 0
2019/09/02 10:17:00 BASE 6.48 232 8.59 198 -6.3 100 -6.3 0 0 1004.5 NA 0.0000 9999 1250 0 0 0
2019/09/02 10:18:00 BASE 6.55 233 8.59 198 -6.3 100 -6.3 0 0 1004.5 NA 0.0000 9999 1350 0 0 0
2019/09/02 10:19:00 BASE 6.93 237 8.59 198 -6.3 100 -6.3 0 0 1004.5 NA 0.0000 9999 1310 0 0 0
2019/09/02 10:20:00 BASE 7.01 234 8.59 198 -6.3 100 -6.3 0 0 1004.5 NA 0.0000 9999 1210 0 0 0
2019/09/02 10:21:00 BASE 7.46 229 9.77 229 -6.3 99 -6.4 0 0 1004.6 NA 0.0000 9999 1150 0 0 0
2019/09/02 10:22:00 BASE 7.42 226 9.77 229 -6.3 99 -6.3 0 0 1004.6 NA 0.0000 9999 1150 0 0 0
2019/09/02 10:23:00 BASE 7.09 224 9.77 229 -6.2 99 -6.3 0 0 1004.6 NA 0.0000 9999 1150 0 0 0
2019/09/02 10:24:00 BASE 6.89 222 9.77 229 -6.2 100 -6.3 0 0 1004.6 NA 0.0000 9999 1310 0 0 0
2019/09/02 10:25:00 BASE 6.83 217 9.77 229 -6.2 100 -6.3 0 0 1004.7 NA 0.0000 9999 1150 0 0 0
2019/09/02 10:26:00 BASE 6.53 213 9.77 229 -6.2 100 -6.2 0 0 1004.7 NA 0.0000 9999 1250 0 0 0
2019/09/02 10:27:00 BASE 5.95 208 9.77 229 -6.2 100 -6.2 0 0 1004.7 NA 0.0000 9999 1120 0 0 0
2019/09/02 10:28:00 BASE 5.39 210 9.77 229 -6.2 100 -6.2 0 0 1004.8 NA 0.0000 9999 1120 0 0 0
2019/09/02 10:29:00 BASE 5.25 214 9.77 229 -6.3 100 -6.3 0 0 1004.8 NA 0.0000 9999 1150 0 0 0
2019/09/02 10:30:00 BASE 6.15 215 9.77 229 -6.3 100 -6.3 0 0 1004.8 NA 0.0000 9999 1150 0 0 0
2019/09/02 10:31:00 BASE 7.22 218 9.41 219 -6.3 100 -6.3 0 0 1004.8 NA 0.0000 9999 1120 0 0 0
2019/09/02 10:32:00 BASE 8.02 219 9.41 219 -6.3 100 -6.3 0 0 1004.7 NA 0.0000 9999 1210 0 0 0
2019/09/02 10:33:00 BASE 8.17 216 9.41 219 -6.3 100 -6.3 0 0 1004.7 NA 0.0000 9999 1180 0 0 0
2019/09/02 10:34:00 BASE 8.39 213 9.57 209 -6.2 100 -6.2 0 0 1004.7 NA 0.0000 9999 1150 0 0 0
2019/09/02 10:35:00 BASE 8.62 209 9.57 209 -6.2 100 -6.2 0 0 1004.7 NA 0.0000 9999 1180 0 0 0
2019/09/02 10:36:00 BASE 8.53 209 9.57 209 -6.2 100 -6.2 0 0 1004.7 NA 0.0000 9999 1150 0 0 0
2019/09/02 10:37:00 BASE 8.08 206 9.57 209 -6.3 100 -6.3 0 0 1004.8 NA 0.0000 9999 1080 0 0 0
2019/09/02 10:38:00 BASE 7.38 194 9.57 209 -6.3 100 -6.3 0 0 1004.8 NA 0.0000 9999 1050 0 0 0
2019/09/02 10:39:00 BASE 6.64 190 9.57 209 -6.3 100 -6.3 0 0 1004.8 NA 0.0000 9999 1120 0 0 0
2019/09/02 10:40:00 BASE 6.46 198 9.57 209 -6.3 100 -6.3 0 0 1004.9 NA 0.0000 9999 1250 0 0 0
2019/09/02 10:41:00 BASE 7.29 203 9.57 209 -6.3 100 -6.3 0 0 1004.9 NA 0.0000 9999 1210 0 0 0
2019/09/02 10:42:00 BASE 7.37 207 9.57 209 -6.3 100 -6.3 0 0 1004.9 NA 0.0000 9999 1180 0 0 0
2019/09/02 10:43:00 BASE 6.33 203 9.57 209 -6.3 100 -6.3 0 0 1004.9 NA 0.0000 9999 1180 0 0 0
2019/09/02 10:44:00 BASE 4.96 197 9.41 197 -6.3 100 -6.3 0 0 1005.0 NA 0.0000 9999 1150 0 0 0
2019/09/02 10:45:00 BASE 4.15 197 9.41 197 -6.3 100 -6.3 0 0 1005.1 NA 0.0000 9999 1150 0 0 0
2019/09/02 10:46:00 BASE 5.23 194 9.41 197 -6.3 100 -6.3 1 0 1005.1 NA 0.0000 9999 1080 0 0 0
2019/09/02 10:47:00 BASE 6.61 181 8.54 187 -6.2 100 -6.2 1 0 1005.1 NA 0.0000 9999 1150 0 0 0
2019/09/02 10:48:00 BASE 6.49 178 8.49 202 -6.2 100 -6.2 1 0 1005.1 NA 0.0000 9999 1180 0 0 0
2019/09/02 10:49:00 BASE 5.42 191 8.49 202 -6.2 100 -6.2 1 0 1005.2 NA 0.0000 9999 1150 0 0 0
2019/09/02 10:50:00 BASE 4.58 202 8.13 204 -6.1 100 -6.1 1 0 1005.1 NA 0.0000 9999 1080 0 0 0
2019/09/02 10:51:00 BASE 6.32 202 10.96 203 -6.1 100 -6.1 1 0 1005.1 NA 0.0000 9999 1150 0 0 0
2019/09/02 10:52:00 BASE 7.92 210 10.96 203 -6.1 100 -6.1 1 0 1005.1 NA 0.0000 9999 1080 0 0 0
2019/09/02 10:53:00 BASE 7.04 212 10.96 203 -6.0 100 -6.0 1 0 1005.2 NA 0.0000 9999 1120 0 0 0
2019/09/02 10:54:01 BASE 6.85 204 10.96 203 -6.0 100 -6.0 1 0 1005.1 NA 0.0000 9999 1250 0 0 0
2019/09/02 10:55:00 BASE 7.68 201 10.96 203 -6.0 100 -6.0 2 0 1005.1 NA 0.0000 9999 1150 0 0 0
2019/09/02 10:56:00 BASE 7.14 197 10.96 203 -6.0 100 -6.0 2 0 1005.1 NA 0.0000 9999 1150 0 0 0
2019/09/02 10:57:00 BASE 6.36 202 10.96 203 -6.0 100 -6.0 2 0 1005.2 NA 0.0000 9999 1250 0 0 0
2019/09/02 10:58:00 BASE 6.06 215 10.96 203 -6.1 100 -6.1 2 0 1005.2 NA 0.0000 9999 1350 0 0 0
2019/09/02 10:59:00 BASE 6.06 213 10.96 203 -6.1 100 -6.1 3 0 1005.2 NA 0.0000 9999 1310 0 0 0
2019/09/02 11:00:00 BASE 6.38 198 10.96 203 -6.1 100 -6.1 3 0 1005.2 NA 0.0000 9999 1280 0 0 0
2019/09/02 11:01:00 BASE 6.19 195 10.44 184 -6.0 100 -6.0 3 0 1005.2 NA 0.0000 9999 1280 0 0 0
2019/09/02 11:02:00 BASE 5.97 200 10.44 184 -6.0 100 -6.0 3 0 1005.2 NA 0.0000 9999 1280 0 0 0
2019/09/02 11:03:00 BASE 5.82 197 10.44 184 -6.0 100 -6.0 3 0 1005.2 NA 0.0000 9999 1310 0 0 0
2019/09/02 11:04:00 BASE 5.91 193 10.44 184 -6.0 100 -6.0 4 0 1005.3 NA 0.0000 9999 1310 0 0 0
2019/09/02 11:05:00 BASE 6.73 189 8.13 182 -6.0 100 -6.0 4 0 1005.3 NA 0.0000 9999 1180 0 0 0
2019/09/02 11:06:00 BASE 7.84 189 9.21 190 -6.0 100 -6.0 4 0 1005.3 NA 0.0000 9999 1150 0 0 0
2019/09/02 11:07:00 BASE 7.60 197 9.21 190 -6.0 100 -6.0 4 0 1005.3 NA 0.0000 9999 1180 0 0 0
2019/09/02 11:08:00 BASE 6.91 198 9.21 190 -6.0 100 -6.0 4 0 1005.3 NA 0.0000 9999 1120 0 0 0
2019/09/02 11:09:00 BASE 7.36 192 9.21 187 -5.9 100 -5.9 5 0 1005.3 NA 0.0000 9999 1150 0 0 0
2019/09/02 11:10:00 BASE 7.81 189 9.21 187 -5.9 100 -5.9 5 0 1005.3 NA 0.0000 9999 1150 0 0 0
2019/09/02 11:11:01 BASE 6.95 190 9.21 187 -5.9 100 -5.9 5 0 1005.4 NA 0.0000 9999 1020 0 0 0
2019/09/02 11:12:01 BASE 6.28 191 9.21 187 -5.9 100 -5.9 6 0 1005.4 NA 0.0000 9999 1210 0 0 0
2019/09/02 11:13:00 BASE 6.79 189 9.21 187 -5.9 100 -5.9 6 0 1005.3 NA 0.0000 9999 1080 0 0 0
2019/09/02 11:14:00 BASE 6.96 186 9.21 187 -5.9 100 -5.9 7 0 1005.3 NA 0.0000 9999 1150 0 0 0
2019/09/02 11:15:00 BASE 6.01 195 9.21 187 -5.9 100 -5.9 8 0 1005.4 NA 0.0000 9999 1210 0 0 0
2019/09/02 11:16:00 BASE 5.69 200 9.21 187 -6.0 100 -6.0 9 0 1005.5 NA 0.0000 9999 1120 0 0 0
2019/09/02 11:17:00 BASE 6.15 194 9.21 187 -6.0 100 -6.0 9 0 1005.6 NA 0.0000 9999 1250 0 0 0
2019/09/02 11:18:00 BASE 6.72 196 9.21 187 -6.0 100 -6.0 9 0 1005.5 NA 0.0000 9999 1180 0 0 0
2019/09/02 11:19:00 BASE 6.58 198 8.59 192 -5.9 100 -5.9 9 0 1005.5 NA 0.0000 9999 1150 0 0 0
2019/09/02 11:20:00 BASE 5.82 194 8.08 198 -5.9 100 -5.9 10 0 1005.6 NA 0.0000 9999 1180 0 0 0
2019/09/02 11:21:00 BASE 5.67 192 8.08 198 -5.9 100 -5.9 11 0 1005.6 NA 0.0000 9999 1180 0 0 0
2019/09/02 11:22:00 BASE 4.94 195 8.08 198 -5.9 100 -5.9 10 0 1005.5 NA 0.0000 9999 1120 0 0 0
2019/09/02 11:23:00 BASE 5.07 200 8.08 198 -5.9 100 -5.9 11 0 1005.4 NA 0.0000 9999 1180 0 0 0
2019/09/02 11:24:00 BASE 6.64 205 8.28 206 -5.9 100 -5.9 11 0 1005.4 NA 0.0000 9999 1120 0 0 0
2019/09/02 11:25:00 BASE 7.69 208 9.77 211 -5.9 100 -5.9 12 0 1005.4 NA 0.0000 9999 1150 0 0 0
2019/09/02 11:26:00 BASE 7.91 206 9.77 211 -5.9 100 -5.9 12 0 1005.4 NA 0.0000 9999 1150 0 0 0
2019/09/02 11:27:00 BASE 7.16 200 9.77 211 -5.9 100 -5.9 12 0 1005.4 NA 0.0000 9999 1150 0 0 0
2019/09/02 11:28:00 BASE 6.71 202 9.77 211 -5.9 100 -5.9 12 0 1005.4 NA 0.0000 9999 1120 0 0 0
2019/09/02 11:29:00 BASE 6.44 207 9.77 211 -5.9 100 -5.9 12 0 1005.4 NA 0.0000 9999 1080 0 0 0
2019/09/02 11:30:00 BASE 6.18 204 9.77 211 -5.9 100 -5.9 12 0 1005.4 NA 0.0000 9999 1120 0 0 0
2019/09/02 11:31:00 BASE 6.18 198 9.77 211 -5.9 100 -5.9 12 0 1005.4 NA 0.0000 9999 1180 0 0 0
2019/09/02 11:32:00 BASE 5.61 197 9.77 211 -5.9 100 -5.9 13 0 1005.4 NA 0.0000 9999 1120 0 0 0
2019/09/02 11:33:00 BASE 4.83 200 9.77 211 -5.9 100 -5.9 14 0 1005.4 NA 0.0000 9999 1180 0 0 0
2019/09/02 11:34:00 BASE 4.15 208 9.77 211 -5.9 100 -5.9 14 0 1005.4 NA 0.0000 9999 1150 0 0 0
2019/09/02 11:35:00 BASE 3.89 212 9.05 203 -5.9 100 -5.9 14 0 1005.5 NA 0.0000 9999 1180 0 0 0
2019/09/02 11:36:00 BASE 3.94 214 7.97 202 -5.9 100 -5.9 14 0 1005.6 NA 0.0000 9999 1150 0 0 0
2019/09/02 11:37:00 BASE 4.22 216 7.97 202 -5.9 100 -5.9 15 0 1005.6 NA 0.0000 9999 1150 0 0 0
2019/09/02 11:38:00 BASE 4.29 212 7.41 193 -5.9 100 -5.9 16 0 1005.6 NA 0.0000 9999 1210 0 0 0
2019/09/02 11:39:00 BASE 4.49 201 7.41 193 -5.9 100 -5.9 17 0 1005.6 NA 0.0000 9999 1210 0 0 0
2019/09/02 11:40:00 BASE 4.58 192 7.25 200 -6.0 100 -6.0 17 0 1005.6 NA 0.0000 9999 1180 0 0 0
2019/09/02 11:41:00 BASE 4.71 194 5.92 194 -6.0 100 -6.0 17 0 1005.6 NA 0.0000 9999 1150 0 0 0
2019/09/02 11:42:00 BASE 4.47 198 5.76 199 -6.1 100 -6.1 16 0 1005.6 NA 0.0000 9999 1150 0 0 0
2019/09/02 11:43:00 BASE 3.55 202 5.76 199 -6.1 100 -6.1 16 0 1005.6 NA 0.0000 9999 1150 0 0 0
2019/09/02 11:44:00 BASE 3.16 208 5.76 199 -6.1 100 -6.1 16 0 1005.6 NA 0.0000 9999 1180 0 0 0
2019/09/02 11:45:00 BASE 2.65 201 5.76 199 -6.1 100 -6.1 16 0 1005.6 NA 0.0000 9999 1180 0 0 0
2019/09/02 11:46:00 BASE 2.01 180 5.76 199 -6.1 100 -6.1 16 0 1005.6 NA 0.0000 9999 1210 0 0 0
2019/09/02 11:47:00 BASE 1.97 172 5.76 199 -6.1 100 -6.1 18 0 1005.6 NA 0.0000 9999 1210 0 0 0
2019/09/02 11:48:00 BASE 2.15 179 5.76 199 -6.1 100 -6.1 19 0 1005.6 NA 0.0000 9999 1180 0 0 0
2019/09/02 11:49:00 BASE 2.07 190 5.76 199 -6.1 100 -6.1 19 0 1005.6 NA 0.0000 9999 1250 0 0 0
2019/09/02 11:50:00 BASE 2.10 193 5.76 199 -6.1 100 -6.1 19 0 1005.6 NA 0.0000 9999 1210 0 0 0
2019/09/02 11:51:00 BASE 2.35 189 4.37 190 -6.1 100 -6.1 19 0 1005.6 NA 0.0000 9999 1150 0 0 0
2019/09/02 11:52:00 BASE 2.46 185 3.76 201 -6.1 100 -6.1 20 0 1005.7 NA 0.0000 9999 1150 0 0 0
2019/09/02 11:53:00 BASE 2.47 182 3.50 221 -6.1 100 -6.1 20 0 1005.7 NA 0.0000 9999 1150 0 0 0
2019/09/02 11:54:00 BASE 2.36 181 3.24 177 -6.1 100 -6.1 20 0 1005.7 NA 0.0000 9999 1080 0 0 0
2019/09/02 11:55:00 BASE 2.09 184 3.24 177 -6.1 100 -6.1 21 0 1005.7 NA 0.0000 9999 1150 0 0 0
2019/09/02 11:56:00 BASE 1.68 190 3.24 177 -6.2 100 -6.2 21 0 1005.7 NA 0.0000 9999 1080 0 0 0
2019/09/02 11:57:00 BASE 1.04 190 3.24 177 -6.2 100 -6.2 22 0 1005.7 NA 0.0000 9999 1180 0 0 0
2019/09/02 11:58:00 BASE 0.88 203 3.24 177 -6.2 100 -6.2 23 0 1005.7 NA 0.0000 9999 1150 0 0 0
2019/09/02 11:59:00 BASE 1.65 223 3.24 177 -6.1 100 -6.1 23 0 1005.7 NA 0.0000 9999 1150 0 0 0
2019/09/02 12:00:00 BASE 2.25 228 3.24 177 -6.1 100 -6.1 24 0 1005.8 NA 0.0000 9999 1150 0 0 0
2019/09/02 12:01:00 BASE 2.20 220 3.24 177 -6.1 100 -6.1 25 0 1005.8 NA 0.0000 9999 1150 0 0 0
2019/09/02 12:02:01 BASE 1.45 208 2.68 227 -6.2 100 -6.2 26 0 1005.8 NA 0.0000 9999 1150 0 0 0
2019/09/02 12:03:01 BASE 0.42 183 2.68 227 -6.2 100 -6.2 26 0 1005.9 NA 0.0000 9999 1180 0 0 0
2019/09/02 12:04:01 BASE 0.16 124 2.68 227 -6.3 100 -6.3 26 0 1005.9 NA 0.0000 9999 1150 0 0 0
2019/09/02 12:05:01 BASE 1.08 75 2.68 227 -6.4 100 -6.4 27 0 1005.9 NA 0.0000 9999 1150 0 0 0
2019/09/02 12:06:01 BASE 1.73 57 2.68 227 -6.5 100 -6.5 28 0 1005.9 NA 0.0000 9999 1210 0 0 0
2019/09/02 12:07:01 BASE 1.44 38 2.68 227 -6.7 100 -6.7 28 0 1005.9 NA 0.0000 9999 1180 0 0 0
2019/09/02 12:08:01 BASE 1.12 42 2.68 227 -6.8 100 -6.8 28 0 1006.0 NA 0.0000 9999 1150 0 0 0
2019/09/02 12:09:01 BASE 1.16 56 2.68 227 -6.9 100 -6.9 27 0 1006.0 NA 0.0000 9999 1080 0 0 0
2019/09/02 12:10:01 BASE 1.48 50 2.31 213 -6.9 100 -6.9 26 0 1006.0 NA 0.0000 9999 1080 0 0 0
2019/09/02 12:11:00 BASE 1.66 43 2.06 57 -7.0 100 -7.0 27 0 1006.1 NA 0.0000 9999 1050 0 0 0
2019/09/02 12:12:00 BASE 1.73 54 2.06 57 -7.0 100 -7.0 29 0 1006.1 NA 0.0000 9999 1120 0 0 0
2019/09/02 12:13:00 BASE 2.06 59 2.62 49 -6.9 100 -6.9 31 0 1006.1 NA 0.0000 9999 1180 0 0 0
2019/09/02 12:14:00 BASE 2.33 61 3.09 69 -6.9 100 -6.9 34 0 1006.1 NA 0.0000 9999 1150 0 0 0
2019/09/02 12:15:01 BASE 1.80 67 3.09 69 -6.8 100 -6.8 42 0 1006.1 NA 0.0000 9999 950 0 0 0
2019/09/02 12:16:01 BASE 1.46 74 3.09 69 -6.8 100 -6.8 47 0 1006.1 NA 0.0000 9999 950 0 0 0
2019/09/02 12:17:00 BASE 1.37 134 3.09 69 -6.7 100 -6.7 52 0 1006.2 NA 0.0000 9999 1020 0 0 0
2019/09/02 12:18:00 BASE 1.44 204 3.09 69 -6.6 100 -6.6 53 0 1006.2 NA 0.0000 9999 1120 0 0 0
2019/09/02 12:19:00 BASE 0.88 187 3.09 69 -6.5 100 -6.5 59 0 1006.2 NA 0.0000 9999 1020 0 0 0
2019/09/02 12:20:00 BASE 0.65 152 3.09 69 -6.5 100 -6.5 65 0 1006.3 NA 0.0000 9999 1080 0 0 0
2019/09/02 12:21:00 BASE 1.13 172 3.09 69 -6.4 100 -6.4 59 0 1006.3 NA 0.0000 9999 1080 0 0 0
2019/09/02 12:22:00 BASE 0.82 196 3.09 69 -6.4 100 -6.4 53 0 1006.4 NA 0.0000 9999 1080 0 0 0
2019/09/02 12:23:00 BASE 1.30 196 3.55 193 -6.4 100 -6.4 50 0 1006.4 NA 0.0000 9999 1080 0 0 0
2019/09/02 12:24:00 BASE 2.92 192 4.99 180 -6.4 100 -6.4 55 0 1006.4 NA 0.0000 9999 1050 0 0 0
2019/09/02 12:25:00 BASE 3.95 188 4.99 180 -6.4 100 -6.4 59 0 1006.5 NA 0.0000 9999 1080 0 0 0
2019/09/02 12:26:00 BASE 4.37 188 6.17 195 -6.5 100 -6.5 48 0 1006.5 NA 0.0000 9999 1080 0 0 0
2019/09/02 12:27:00 BASE 4.58 190 6.17 195 -6.5 100 -6.5 45 0 1006.5 NA 0.0000 9999 1050 0 0 0
2019/09/02 12:28:00 BASE 4.33 199 6.17 195 -6.4 100 -6.4 42 0 1006.6 NA 0.0000 9999 1080 0 0 0
2019/09/02 12:29:00 BASE 4.37 204 6.17 195 -6.3 100 -6.3 42 0 1006.6 NA 0.0000 9999 1080 0 0 0
2019/09/02 12:30:01 BASE 4.65 204 6.17 195 -6.3 100 -6.3 48 0 1006.6 NA 0.0000 9999 1080 0 0 0
2019/09/02 12:31:01 BASE 4.26 205 6.17 195 -6.2 100 -6.2 45 0 1006.6 NA 0.0000 9999 1020 0 0 0
2019/09/02 12:32:00 BASE 3.00 206 6.17 195 -6.1 100 -6.1 43 0 1006.6 NA 0.0000 9999 980 0 0 0
2019/09/02 12:33:00 BASE 2.40 209 6.17 195 -6.1 100 -6.1 48 0 1006.6 NA 0.0000 9999 0 0 0 0
2019/09/02 12:34:00 BASE 1.63 220 6.17 195 -6.1 100 -6.1 57 0 1006.6 NA 0.0000 9999 1050 0 0 0
2019/09/02 12:35:00 BASE 1.11 219 6.17 195 -6.0 100 -6.0 60 0 1006.6 NA 0.0000 9999 1120 0 0 0
2019/09/02 12:36:00 BASE 1.21 210 6.02 203 -6.0 100 -6.0 59 0 1006.6 NA 0.0000 9999 1150 0 0 0
2019/09/02 12:37:00 BASE 0.53 199 5.20 208 -6.0 100 -6.0 64 0 1006.6 NA 0.0000 9999 0 0 0 0
2019/09/02 12:38:00 BASE 0.04 168 5.20 208 -6.0 100 -6.0 68 0 1006.6 NA 0.0000 9999 0 0 0 0
2019/09/02 12:39:00 BASE 0.66 92 5.20 208 -6.2 100 -6.2 68 0 1006.6 NA 0.0000 9999 0 0 0 0
2019/09/02 12:40:00 BASE 1.50 35 4.37 205 -6.3 100 -6.3 69 0 1006.6 NA 0.0000 9999 0 0 0 0
2019/09/02 12:41:00 BASE 1.66 27 3.55 197 -6.4 100 -6.4 71 0 1006.6 NA 0.0000 9999 0 0 0 0
2019/09/02 12:42:00 BASE 1.54 18 3.55 197 -6.6 100 -6.6 72 0 1006.6 NA 0.0000 9999 0 0 0 0
2019/09/02 12:43:00 BASE 1.41 11 2.06 31 -6.7 100 -6.7 84 0 1006.7 NA 0.0000 9999 0 0 0 0
2019/09/02 12:44:00 BASE 1.30 21 2.06 31 -6.7 100 -6.7 107 0 1006.7 NA 0.0000 9999 0 0 0 0
2019/09/02 12:45:00 BASE 0.70 39 2.06 31 -6.7 100 -6.7 128 0 1006.7 NA 0.0000 9999 0 0 0 0
2019/09/02 12:46:00 BASE 0.14 64 2.06 31 -6.7 100 -6.7 141 0 1006.6 NA 0.0000 9999 0 0 0 0
2019/09/02 12:47:00 BASE 0.05 103 2.06 31 -6.6 100 -6.6 132 0 1006.6 NA 0.0000 9999 0 0 0 0
2019/09/02 12:48:00 BASE 0.04 116 2.06 31 -6.5 100 -6.5 140 0 1006.6 NA 0.0000 9999 0 0 0 0
2019/09/02 12:49:00 BASE 0.33 130 2.06 31 -6.4 100 -6.4 118 0 1006.6 NA 0.0000 9999 0 0 0 0
2019/09/02 12:50:00 BASE 0.29 159 2.06 31 -6.3 100 -6.3 125 0 1006.6 NA 0.0000 9999 0 0 0 0
2019/09/02 12:51:00 BASE 0.00 192 1.75 10 -6.3 100 -6.3 138 0 1006.7 NA 0.0000 9999 0 0 0 0
2019/09/02 12:52:00 BASE 0.05 218 1.54 5 -6.3 100 -6.3 127 0 1006.7 NA 0.0000 9999 0 0 0 0
2019/09/02 12:53:00 BASE 0.05 212 1.44 42 -6.4 100 -6.4 117 0 1006.8 NA 0.0000 9999 0 0 0 0
2019/09/02 12:54:00 BASE 0.00 210 1.29 155 -6.5 100 -6.5 146 0 1006.9 NA 0.0000 9999 0 0 0 0
2019/09/02 12:55:00 BASE 0.00 215 1.29 155 -6.6 100 -6.6 143 0 1006.9 NA 0.0000 9999 0 0 0 0
2019/09/02 12:56:00 BASE 0.00 194 1.29 155 -6.6 100 -6.6 66 0 1006.9 NA 0.0000 9999 0 0 0 0
2019/09/02 12:57:00 BASE 0.27 154 1.29 137 -6.5 100 -6.5 68 0 1006.9 NA 0.0000 9999 0 0 0 0
2019/09/02 12:58:01 BASE 0.27 142 1.29 137 -6.5 100 -6.5 64 0 1006.9 NA 0.0000 9999 980 0 0 0
2019/09/02 12:59:00 BASE 0.00 158 1.29 137 -6.4 100 -6.4 68 0 1006.7 NA 0.0000 9999 920 0 0 0
2019/09/02 13:00:00 BASE 0.00 195 1.29 137 -6.4 100 -6.4 67 0 1006.7 NA 0.0000 9999 0 0 0 0
2019/09/02 13:01:00 BASE 0.43 215 2.11 208 -6.3 100 -6.3 102 0 1006.7 NA 0.0000 9999 0 0 0 0
2019/09/02 13:02:00 BASE 1.02 190 2.11 208 -6.2 100 -6.2 156 0 1006.7 NA 0.0000 9999 0 0 0 0
2019/09/02 13:03:00 BASE 1.01 161 2.31 157 -6.1 100 -6.1 150 0 1006.8 NA 0.0000 9999 0 0 0 0
2019/09/02 13:04:00 BASE 0.66 156 2.31 157 -6.0 100 -6.0 155 0 1006.9 NA 0.0000 9999 0 0 0 0
2019/09/02 13:05:00 BASE 1.22 111 2.47 65 -6.0 100 -6.0 157 0 1006.9 NA 0.0000 9999 0 0 0 0
2019/09/02 13:06:00 BASE 1.81 69 2.47 65 -6.0 100 -6.0 158 0 1007.0 NA 0.0000 9999 0 0 0 0
2019/09/02 13:07:00 BASE 1.45 70 2.47 65 -6.2 100 -6.2 160 0 1006.9 NA 0.0000 9999 0 0 0 0
2019/09/02 13:08:00 BASE 1.66 64 2.52 51 -6.3 100 -6.3 153 0 1006.9 NA 0.0000 9999 1020 0 0 0
2019/09/02 13:09:00 BASE 1.52 72 2.52 51 -6.4 100 -6.4 135 0 1007.0 NA 0.0000 9999 980 0 0 0
2019/09/02 13:10:00 BASE 0.74 87 2.52 51 -6.4 100 -6.4 129 0 1007.0 NA 0.0000 9999 980 0 0 0
2019/09/02 13:11:00 BASE 0.37 87 2.52 51 -6.4 100 -6.4 128 0 1007.0 NA 0.0000 9999 1020 0 0 0
2019/09/02 13:12:00 BASE 0.20 105 2.52 51 -6.3 100 -6.3 97 0 1007.0 NA 0.0000 9999 980 0 0 0
2019/09/02 13:13:00 BASE 0.90 139 3.40 211 -6.3 100 -6.3 96 0 1007.0 NA 0.0000 9999 950 0 0 0
2019/09/02 13:14:00 BASE 1.85 185 3.40 211 -6.3 100 -6.3 101 0 1007.0 NA 0.0000 9999 1020 0 0 0
2019/09/02 13:15:00 BASE 2.47 197 3.70 202 -6.3 100 -6.3 127 0 1007.1 NA 0.0000 9999 920 0 0 0
2019/09/02 13:16:00 BASE 2.50 186 3.70 202 -6.4 100 -6.4 116 0 1007.1 NA 0.0000 9999 980 0 0 0
2019/09/02 13:17:00 BASE 1.81 186 3.70 202 -6.5 100 -6.5 107 0 1007.0 NA 0.0000 9999 0 0 0 0
2019/09/02 13:18:01 BASE 1.22 186 3.70 202 -6.5 100 -6.5 118 0 1007.0 NA 0.0000 9999 0 0 0 0
2019/09/02 13:19:01 BASE 1.53 184 3.70 202 -6.5 100 -6.5 80 0 1007.1 NA 0.0000 9999 0 0 0 0
2019/09/02 13:20:01 BASE 2.44 194 3.70 202 -6.5 100 -6.5 101 0 1007.1 NA 0.0000 9999 0 0 0 0
2019/09/02 13:21:01 BASE 2.51 203 3.70 202 -6.4 100 -6.4 145 0 1007.1 NA 0.0000 9999 0 0 0 0
2019/09/02 13:22:01 BASE 2.24 192 3.70 202 -6.4 100 -6.4 88 0 1007.1 NA 0.0000 9999 0 0 0 0
2019/09/02 13:23:00 BASE 2.65 176 3.70 202 -6.4 100 -6.4 158 0 1007.1 NA 0.0000 9999 0 0 0 0
2019/09/02 13:24:00 BASE 3.13 172 3.70 202 -6.4 100 -6.4 80 0 1007.1 NA 0.0000 9999 0 0 0 0
2019/09/02 13:25:00 BASE 2.84 164 3.65 174 -6.4 100 -6.4 107 0 1007.2 NA 0.0000 9999 0 0 0 0
2019/09/02 13:26:00 BASE 2.32 162 3.65 174 -6.3 100 -6.3 184 0 1007.2 NA 0.0000 9999 0 0 0 0
2019/09/02 13:27:00 BASE 2.43 172 3.65 174 -6.3 100 -6.3 183 0 1007.2 NA 0.0000 9999 0 0 0 0
2019/09/02 13:28:00 BASE 2.98 181 3.65 174 -6.3 100 -6.3 186 0 1007.2 NA 0.0000 9999 0 0 0 0
2019/09/02 13:29:00 BASE 3.12 186 3.65 174 -6.2 100 -6.2 190 0 1007.3 NA 0.0000 9999 1150 0 0 0
2019/09/02 13:30:00 BASE 3.29 187 3.86 188 -6.2 100 -6.2 192 0 1007.3 NA 0.0000 9999 1050 0 0 0
2019/09/02 13:31:00 BASE 3.05 188 3.86 188 -6.1 100 -6.1 188 0 1007.3 NA 0.0000 9999 1020 0 0 0
2019/09/02 13:32:00 BASE 2.64 193 3.86 188 -6.1 100 -6.1 185 0 1007.2 NA 0.0000 9999 0 0 0 0
2019/09/02 13:33:00 BASE 2.54 194 3.86 188 -6.0 100 -6.0 187 0 1007.2 NA 0.0000 9999 0 0 0 0
2019/09/02 13:34:00 BASE 2.10 188 3.86 188 -6.0 100 -6.0 188 0 1007.2 NA 0.0000 9999 0 0 0 0
2019/09/02 13:35:00 BASE 1.85 184 3.86 188 -6.0 100 -6.0 189 0 1007.2 NA 0.0000 9999 0 0 0 0
2019/09/02 13:36:00 BASE 1.73 182 3.86 188 -5.9 100 -5.9 190 0 1007.2 NA 0.0000 9999 0 0 0 0
2019/09/02 13:37:00 BASE 1.32 180 3.86 188 -5.9 100 -5.9 191 0 1007.2 NA 0.0000 9999 0 0 0 0
2019/09/02 13:38:00 BASE 1.01 179 3.86 188 -5.9 100 -5.9 192 0 1007.2 NA 0.0000 9999 0 0 0 0
2019/09/02 13:39:00 BASE 1.05 185 3.86 188 -5.8 100 -5.8 194 0 1007.2 NA 0.0000 9999 0 0 0 0
2019/09/02 13:40:00 BASE 0.97 190 3.55 189 -5.8 100 -5.8 195 0 1007.2 NA 0.0000 9999 0 0 0 0
2019/09/02 13:41:00 BASE 1.08 177 3.45 205 -5.7 100 -5.7 197 0 1007.2 NA 0.0000 9999 0 0 0 0
2019/09/02 13:42:00 BASE 0.81 165 2.62 194 -5.7 100 -5.7 198 0 1007.3 NA 0.0000 9999 0 0 0 0
2019/09/02 13:43:00 BASE 0.23 149 2.21 189 -5.7 100 -5.7 199 0 1007.3 NA 0.0000 9999 0 0 0 0
2019/09/02 13:44:00 BASE 0.05 116 2.21 189 -5.7 100 -5.7 201 0 1007.3 NA 0.0000 9999 0 0 0 0
2019/09/02 13:45:00 BASE 0.88 76 2.47 45 -5.8 100 -5.8 202 0 1007.4 NA 0.0000 9999 0 0 0 0
2019/09/02 13:46:00 BASE 1.98 57 2.73 56 -6.0 100 -6.0 204 0 1007.5 NA 0.0000 9999 0 0 0 0
2019/09/02 13:47:00 BASE 2.48 52 3.09 48 -6.2 100 -6.2 205 0 1007.5 NA 0.0000 9999 0 0 0 0
2019/09/02 13:48:00 BASE 2.60 49 3.09 47 -6.3 100 -6.3 206 0 1007.5 NA 0.0000 9999 0 0 0 0
2019/09/02 13:49:00 BASE 2.07 55 3.09 47 -6.4 100 -6.4 207 0 1007.5 NA 0.0000 9999 0 0 0 0
2019/09/02 13:50:00 BASE 1.91 59 3.09 47 -6.3 100 -6.3 208 0 1007.6 NA 0.0000 9999 0 0 0 0
2019/09/02 13:51:00 BASE 2.22 59 3.09 47 -6.2 100 -6.2 209 0 1007.6 NA 0.0000 9999 0 0 0 0
2019/09/02 13:52:00 BASE 2.98 59 4.63 59 -6.2 100 -6.2 210 0 1007.6 NA 0.0000 9999 0 0 0 0
2019/09/02 13:53:00 BASE 4.21 59 5.09 58 -6.2 100 -6.2 212 0 1007.6 NA 0.0000 9999 0 0 0 0
2019/09/02 13:54:00 BASE 4.39 59 5.09 58 -6.2 100 -6.2 213 0 1007.6 NA 0.0000 9999 0 0 0 0
2019/09/02 13:55:00 BASE 3.52 54 5.09 58 -6.3 100 -6.3 215 0 1007.5 NA 0.0000 9999 0 0 0 0
2019/09/02 13:56:00 BASE 2.94 47 5.09 58 -6.3 100 -6.3 215 0 1007.5 NA 0.0000 9999 0 0 0 0
2019/09/02 13:57:00 BASE 2.97 45 5.09 58 -6.4 100 -6.4 217 0 1007.5 NA 0.0000 9999 0 0 0 0
2019/09/02 13:58:00 BASE 2.59 52 5.09 58 -6.4 100 -6.4 219 0 1007.6 NA 0.0000 9999 0 0 0 0
2019/09/02 13:59:00 BASE 2.51 78 5.09 58 -6.3 100 -6.3 220 0 1007.7 NA 0.0000 9999 0 0 0 0
2019/09/02 14:00:00 BASE 2.70 96 5.09 58 -6.3 100 -6.3 222 0 1007.7 NA 0.0000 9999 0 0 0 0
2019/09/02 14:01:00 BASE 1.45 99 5.09 58 -6.3 100 -6.3 223 0 1007.7 NA 0.0000 9999 0 0 0 0
2019/09/02 14:02:00 BASE 0.23 106 5.09 58 -6.2 100 -6.2 224 0 1007.7 NA 0.0000 9999 0 0 0 0
2019/09/02 14:03:00 BASE 0.00 102 4.48 64 -6.1 100 -6.1 226 0 1007.8 NA 0.0000 9999 0 0 0 0
2019/09/02 14:04:00 BASE 0.60 103 4.17 104 -6.0 100 -6.0 228 0 1007.8 NA 0.0000 9999 0 0 0 0
2019/09/02 14:05:00 BASE 1.67 117 4.17 104 -5.9 100 -5.9 231 0 1007.8 NA 0.0000 9999 0 0 0 0
2019/09/02 14:06:00 BASE 1.88 143 4.17 104 -5.8 100 -5.8 233 0 1007.8 NA 0.0000 9999 0 0 0 0
2019/09/02 14:07:00 BASE 1.72 163 4.17 104 -5.7 100 -5.7 236 0 1007.9 NA 0.0000 9999 0 0 0 0
2019/09/02 14:08:00 BASE 1.61 154 4.17 104 -5.6 100 -5.6 240 0 1007.9 NA 0.0000 9999 0 0 0 0
2019/09/02 14:09:00 BASE 1.75 145 3.76 100 -5.6 100 -5.6 244 0 1007.8 NA 0.0000 9999 0 0 0 0
2019/09/02 14:10:00 BASE 2.27 158 2.52 158 -5.7 100 -5.7 248 0 1007.8 NA 0.0000 9999 0 0 0 0
2019/09/02 14:11:00 BASE 2.74 173 3.65 184 -5.7 100 -5.7 252 0 1007.8 NA 0.0000 9999 0 0 0 0
2019/09/02 14:12:00 BASE 2.98 179 3.65 184 -5.8 100 -5.8 252 0 1007.8 NA 0.0000 9999 0 0 0 0
2019/09/02 14:13:00 BASE 2.95 186 3.65 184 -5.9 100 -5.9 257 0 1007.8 NA 0.0000 9999 0 0 0 0
2019/09/02 14:14:00 BASE 3.21 189 4.22 180 -5.8 100 -5.8 262 0 1007.8 NA 0.0000 9999 0 0 0 0
2019/09/02 14:15:00 BASE 3.24 189 4.22 180 -5.8 100 -5.8 268 0 1007.7 NA 0.0000 9999 0 0 0 0
2019/09/02 14:16:00 BASE 3.16 199 4.22 180 -5.7 100 -5.7 261 0 1007.7 NA 0.0000 9999 0 0 0 0
2019/09/02 14:17:00 BASE 3.25 205 4.22 180 -5.7 100 -5.7 246 0 1007.7 NA 0.0000 9999 0 0 0 0
2019/09/02 14:18:00 BASE 2.83 199 4.22 180 -5.7 100 -5.7 278 0 1007.8 NA 0.0000 9999 0 0 0 0
2019/09/02 14:19:00 BASE 2.21 183 4.22 180 -5.9 100 -5.9 287 0 1007.8 NA 0.0000 9999 0 0 0 0
2019/09/02 14:20:00 BASE 2.36 174 4.22 180 -6.0 100 -6.0 285 0 1007.8 NA 0.0000 9999 0 0 0 0
2019/09/02 14:21:00 BASE 2.79 181 4.22 180 -6.0 100 -6.0 295 0 1007.8 NA 0.0000 9999 0 0 0 0
2019/09/02 14:22:00 BASE 2.61 194 4.22 180 -6.0 100 -6.0 287 0 1007.8 NA 0.0000 9999 0 0 0 0
2019/09/02 14:23:00 BASE 2.37 202 4.22 180 -5.9 100 -5.9 288 0 1007.8 NA 0.0000 9999 15490 20670 0 0
2019/09/02 14:24:00 BASE 2.31 200 3.50 205 -5.8 100 -5.8 266 0 1007.8 NA 0.0000 9999 0 0 0 0
2019/09/02 14:25:00 BASE 1.75 197 3.50 205 -5.7 100 -5.7 165 0 1007.8 NA 0.0000 9999 0 0 0 0
2019/09/02 14:26:00 BASE 0.79 187 3.50 205 -5.7 100 -5.7 142 0 1007.8 NA 0.0000 9999 0 0 0 0
2019/09/02 14:27:00 BASE 0.27 163 3.24 189 -5.7 100 -5.7 128 0 1007.8 NA 0.0000 9999 0 0 0 0
2019/09/02 14:28:00 BASE 0.25 144 3.24 189 -5.6 100 -5.6 130 0 1007.8 NA 0.0000 9999 0 0 0 0
2019/09/02 14:29:00 BASE 0.28 118 3.24 189 -5.6 100 -5.6 134 0 1007.9 NA 0.0000 9999 0 0 0 0
2019/09/02 14:30:00 BASE 0.84 111 3.24 189 -5.5 100 -5.5 146 0 1008.0 NA 0.0000 9999 16470 20310 0 0
2019/09/02 14:31:00 BASE 1.40 118 2.73 198 -5.4 100 -5.4 150 0 1008.0 NA 0.0000 9999 0 0 0 0
2019/09/02 14:32:00 BASE 1.50 132 2.62 200 -5.3 100 -5.3 150 0 1008.1 NA 0.0000 9999 16630 0 0 0
2019/09/02 14:33:00 BASE 1.48 165 2.57 154 -5.1 100 -5.1 145 0 1008.2 NA 0.0000 9999 16240 0 0 0
2019/09/02 14:34:00 BASE 0.86 189 2.57 154 -5.0 100 -5.0 150 0 1008.2 NA 0.0000 9999 0 0 0 0
2019/09/02 14:35:00 BASE 1.49 200 3.29 212 -4.9 100 -4.9 147 0 1008.2 NA 0.0000 9999 0 0 0 0
2019/09/02 14:36:00 BASE 2.72 202 3.29 212 -4.9 100 -4.9 141 0 1008.2 NA 0.0000 9999 16860 0 0 0
2019/09/02 14:37:00 BASE 2.63 201 3.29 212 -4.8 100 -4.8 139 0 1008.2 NA 0.0000 9999 16310 0 0 0
2019/09/02 14:38:00 BASE 2.28 189 3.29 212 -4.8 100 -4.8 138 0 1008.1 NA 0.0000 9999 17160 0 0 0
2019/09/02 14:39:00 BASE 1.58 172 3.29 212 -4.8 100 -4.8 137 0 1008.0 NA 0.0000 9999 0 0 0 0
2019/09/02 14:40:00 BASE 1.00 121 3.29 212 -4.8 100 -4.8 140 0 1008.0 NA 0.0000 9999 0 0 0 0
2019/09/02 14:41:00 BASE 1.00 62 3.29 212 -4.9 100 -4.9 147 0 1008.0 NA 0.0000 9999 15810 0 0 0
2019/09/02 14:42:00 BASE 0.50 16 3.29 212 -5.1 100 -5.1 156 0 1008.0 NA 0.0000 9999 0 0 0 0
2019/09/02 14:43:00 BASE 0.12 10 3.29 212 -5.2 100 -5.2 169 0 1008.0 NA 0.0000 9999 0 0 0 0
2019/09/02 14:44:00 BASE 1.03 57 3.29 212 -5.5 100 -5.5 144 0 1008.1 NA 0.0000 9999 0 0 0 0
2019/09/02 14:45:00 BASE 1.29 94 3.24 212 -5.6 100 -5.6 138 0 1008.0 NA 0.0000 9999 15520 0 0 0
2019/09/02 14:46:00 BASE 1.03 128 3.04 209 -5.7 100 -5.7 159 0 1008.0 NA 0.0000 9999 0 0 0 0
2019/09/02 14:47:00 BASE 1.10 180 2.31 177 -5.6 100 -5.6 149 0 1008.0 NA 0.0000 9999 0 0 0 0
2019/09/02 14:48:00 BASE 0.64 238 2.21 58 -5.5 100 -5.5 172 0 1008.1 NA 0.0000 9999 0 0 0 0
2019/09/02 14:49:00 BASE 0.20 235 2.21 58 -5.3 100 -5.3 176 0 1008.2 NA 0.0000 9999 0 0 0 0
2019/09/02 14:50:00 BASE 0.83 132 3.45 121 -5.3 100 -5.3 181 0 1008.2 NA 0.0000 9999 0 0 0 0
2019/09/02 14:51:00 BASE 2.30 126 3.55 135 -5.2 100 -5.2 176 0 1008.3 NA 0.0000 9999 0 0 0 0
2019/09/02 14:52:00 BASE 2.76 155 3.55 135 -5.1 100 -5.1 276 0 1008.3 NA 0.0000 9999 0 0 0 0
2019/09/02 14:53:00 BASE 2.02 159 3.55 135 -5.0 100 -5.0 203 0 1008.3 NA 0.0000 9999 0 0 0 0
2019/09/02 14:54:00 BASE 1.67 114 3.55 135 -4.9 100 -4.9 203 0 1008.3 NA 0.0000 9999 0 0 0 0
2019/09/02 14:55:00 BASE 2.04 93 3.55 135 -4.8 100 -4.8 265 0 1008.3 NA 0.0000 9999 0 0 0 0
2019/09/02 14:56:00 BASE 2.30 95 3.70 141 -4.6 100 -4.6 286 0 1008.2 NA 0.0000 9999 0 0 0 0
2019/09/02 14:57:00 BASE 3.17 107 4.84 150 -4.4 100 -4.4 285 0 1008.3 NA 0.0000 9999 0 0 0 0
2019/09/02 14:58:00 BASE 4.75 128 6.22 146 -4.2 99 -4.4 283 0 1008.3 NA 0.0000 9999 0 0 0 0
2019/09/02 14:59:00 BASE 5.83 144 8.39 152 -4.1 96 -4.6 274 0 1008.3 NA 0.0000 9999 0 0 0 0
2019/09/02 15:00:00 BASE 7.69 138 12.09 127 -4.0 93 -5.0 280 0 1008.2 NA 0.0000 9999 0 0 0 0
2019/09/02 15:01:00 BASE 12.61 134 18.98 128 -4.0 90 -5.4 280 0 1008.1 NA 0.0000 9999 0 0 0 0
2019/09/02 15:02:00 BASE 18.57 133 24.28 130 -3.9 87 -5.8 281 0 1007.9 NA 0.0000 SQ 9999 0 0 0 0
2019/09/02 15:03:00 BASE 21.28 133 24.44 139 -3.7 84 -6.0 282 0 1007.9 NA 0.0000 SQ 9999 0 0 0 0
2019/09/02 15:04:00 BASE 19.73 132 24.44 139 -3.5 83 -5.9 282 0 1008.0 NA 0.0000 SQ 9999 0 0 0 0
2019/09/02 15:05:00 BASE 17.18 129 24.44 139 -3.1 81 -6.0 283 0 1008.0 NA 0.0000 9999 0 0 0 0
2019/09/02 15:06:00 BASE 20.78 130 27.93 131 -2.8 78 -6.1 283 0 1007.7 NA 0.0000 9999 0 0 0 0
2019/09/02 15:07:00 BASE 23.73 131 27.93 131 -2.6 75 -6.5 283 0 1007.7 NA 0.0000 9999 0 0 0 0
2019/09/02 15:08:00 BASE 21.33 132 27.93 131 -2.4 71 -7.1 284 0 1007.8 NA 0.0000 9999 0 0 0 0
2019/09/02 15:09:00 BASE 20.61 132 27.93 131 -2.3 66 -7.8 284 0 1007.8 NA 0.0000 9999 0 0 0 0
2019/09/02 15:10:00 BASE 23.11 130 29.32 134 -2.2 63 -8.3 284 0 1007.6 NA 0.0000 9999 0 0 0 0
2019/09/02 15:11:00 BASE 25.48 128 29.32 134 -2.2 61 -8.8 284 0 1007.7 NA 0.0000 9999 0 0 0 0
2019/09/02 15:12:00 BASE 27.08 127 31.07 124 -2.2 59 -9.2 285 0 1007.6 NA 0.0000 9999 0 0 0 0
2019/09/02 15:13:00 BASE 27.19 126 31.07 124 -2.1 57 -9.5 284 0 1007.7 NA 0.0000 9999 0 0 0 0
2019/09/02 15:14:00 BASE 25.88 126 31.07 124 -2.1 56 -9.8 285 0 1007.7 NA 0.0000 9999 0 0 0 0
2019/09/02 15:15:00 BASE 26.05 127 31.07 124 -2.1 54 -10.1 286 0 1007.8 NA 0.0000 9999 0 0 0 0
2019/09/02 15:16:00 BASE 26.00 130 31.07 124 -2.0 53 -10.3 287 0 1007.8 NA 0.0000 9999 0 0 0 0
2019/09/02 15:17:00 BASE 25.49 131 31.07 124 -2.0 52 -10.5 289 0 1007.9 NA 0.0000 9999 0 0 0 0
2019/09/02 15:18:00 BASE 24.26 127 31.07 124 -2.0 51 -10.7 290 0 1007.9 NA 0.0000 9999 0 0 0 0
2019/09/02 15:19:00 BASE 23.96 127 31.07 124 -2.0 51 -10.8 291 0 1007.9 NA 0.0000 9999 0 0 0 0
2019/09/02 15:20:00 BASE 24.13 128 31.07 124 -2.0 50 -11.0 292 0 1007.9 NA 0.0000 9999 0 0 0 0
2019/09/02 15:21:00 BASE 24.03 128 31.07 124 -2.0 50 -11.1 291 0 1008.0 NA 0.0000 9999 0 0 0 0
2019/09/02 15:22:00 BASE 22.89 127 30.40 127 -2.0 50 -11.2 291 0 1008.1 NA 0.0000 9999 0 0 0 0
2019/09/02 15:23:00 BASE 22.56 128 30.40 127 -2.1 49 -11.3 291 0 1008.1 NA 0.0000 9999 0 0 0 0
2019/09/02 15:24:00 BASE 22.72 128 30.40 127 -2.1 49 -11.3 292 0 1008.2 NA 0.0000 9999 0 0 0 0
2019/09/02 15:25:00 BASE 20.77 125 28.14 128 -2.1 49 -11.3 292 0 1008.4 NA 0.0000 9999 0 0 0 0
2019/09/02 15:26:00 BASE 18.77 126 27.93 130 -2.1 50 -11.2 292 0 1008.5 NA 0.0000 9999 0 0 0 0
2019/09/02 15:27:00 BASE 19.17 126 27.93 130 -2.1 50 -11.1 292 0 1008.5 NA 0.0000 9999 0 0 0 0
2019/09/02 15:28:00 BASE 20.55 126 27.93 130 -2.2 51 -11.0 293 0 1008.5 NA 0.0000 9999 0 0 0 0
2019/09/02 15:29:00 BASE 20.05 124 27.57 121 -2.2 51 -10.9 294 0 1008.6 NA 0.0000 9999 0 0 0 0
2019/09/02 15:30:00 BASE 19.70 121 27.57 121 -2.2 51 -10.9 294 0 1008.6 NA 0.0000 9999 0 0 0 0
2019/09/02 15:31:00 BASE 19.66 117 27.57 121 -2.1 50 -11.1 295 0 1008.7 NA 0.0000 9999 0 0 0 0
2019/09/02 15:32:00 BASE 18.38 111 27.57 121 -2.1 50 -11.2 296 0 1008.8 NA 0.0000 9999 0 0 0 0
2019/09/02 15:33:00 BASE 17.42 110 24.74 133 -2.1 49 -11.4 297 0 1008.8 NA 0.0000 9999 0 0 0 0
2019/09/02 15:34:00 BASE 15.66 105 24.74 133 -2.1 48 -11.5 299 0 1009.0 NA 0.0000 9999 0 0 0 0
2019/09/02 15:35:00 BASE 13.36 96 24.74 133 -2.1 48 -11.6 299 0 1009.1 NA 0.0000 9999 0 0 0 0
2019/09/02 15:36:00 BASE 13.79 99 24.74 133 -2.2 49 -11.6 300 0 1009.0 NA 0.0000 9999 0 0 0 0
2019/09/02 15:37:00 BASE 15.08 106 24.13 129 -2.3 49 -11.6 301 0 1009.0 NA 0.0000 9999 0 0 0 0
2019/09/02 15:38:00 BASE 16.33 111 22.33 112 -2.4 49 -11.6 302 0 1008.9 NA 0.0000 9999 0 0 0 0
2019/09/02 15:39:00 BASE 16.26 114 22.33 112 -2.4 49 -11.7 301 0 1008.9 NA 0.0000 9999 0 0 0 0
2019/09/02 15:40:00 BASE 15.84 113 22.33 112 -2.4 49 -11.7 300 0 1009.0 NA 0.0000 9999 0 0 0 0
2019/09/02 15:41:00 BASE 15.42 113 19.14 117 -2.3 48 -11.8 298 0 1009.0 NA 0.0000 9999 0 0 0 0
2019/09/02 15:42:00 BASE 15.19 117 19.14 117 -2.2 48 -11.7 299 0 1008.9 NA 0.0000 9999 0 0 0 0
2019/09/02 15:43:00 BASE 15.79 118 19.14 117 -2.1 48 -11.7 301 0 1008.9 NA 0.0000 9999 0 0 0 0
2019/09/02 15:44:00 BASE 16.03 117 19.14 117 -2.1 48 -11.6 300 0 1008.8 NA 0.0000 9999 0 0 0 0
2019/09/02 15:45:00 BASE 15.73 114 19.14 117 -2.1 48 -11.6 300 0 1008.9 NA 0.0000 9999 0 0 0 0
2019/09/02 15:46:00 BASE 16.39 112 19.14 117 -2.1 48 -11.6 301 0 1008.7 NA 0.0000 9999 0 0 0 0
2019/09/02 15:47:00 BASE 19.45 116 22.64 115 -2.1 48 -11.6 300 0 1008.5 NA 0.0000 9999 0 0 0 0
2019/09/02 15:48:00 BASE 21.10 118 22.64 115 -2.1 48 -11.7 302 0 1008.5 NA 0.0000 9999 0 0 0 0
2019/09/02 15:49:00 BASE 20.24 119 22.64 115 -2.0 47 -11.8 304 0 1008.7 NA 0.0000 9999 0 0 0 0
2019/09/02 15:50:00 BASE 18.88 118 22.64 115 -2.0 47 -11.8 305 0 1008.8 NA 0.0000 9999 0 0 0 0
2019/09/02 15:51:00 BASE 17.43 116 22.64 115 -1.9 47 -11.8 305 0 1009.0 NA 0.0000 9999 0 0 0 0
2019/09/02 15:52:00 BASE 17.25 111 22.64 115 -1.9 47 -11.8 306 0 1009.0 NA 0.0000 9999 0 0 0 0
2019/09/02 15:53:00 BASE 17.94 110 22.64 115 -2.0 48 -11.7 305 0 1008.9 NA 0.0000 9999 0 0 0 0
2019/09/02 15:54:00 BASE 18.14 113 22.64 115 -2.2 48 -11.7 305 0 1008.9 NA 0.0000 9999 0 0 0 0
2019/09/02 15:55:00 BASE 18.09 113 22.64 115 -2.2 48 -11.8 307 0 1008.9 NA 0.0000 9999 0 0 0 0
2019/09/02 15:56:00 BASE 17.60 111 22.64 115 -2.2 48 -11.9 307 0 1008.9 NA 0.0000 9999 0 0 0 0
2019/09/02 15:57:00 BASE 17.29 110 21.92 117 -2.2 47 -11.9 307 0 1008.9 NA 0.0000 9999 0 0 0 0
2019/09/02 15:58:00 BASE 17.55 110 21.40 116 -2.1 46 -12.0 308 0 1009.0 NA 0.0000 9999 0 0 0 0
2019/09/02 15:59:00 BASE 18.08 111 20.06 113 -2.1 46 -12.0 308 0 1009.0 NA 0.0000 9999 0 0 0 0
2019/09/02 16:00:00 BASE 18.73 115 20.58 118 -2.1 46 -12.0 307 0 1009.0 NA 0.0000 9999 0 0 0 0
2019/09/02 16:01:00 BASE 18.84 120 20.58 118 -2.0 46 -12.1 307 0 1009.0 NA 0.0000 9999 0 0 0 0
2019/09/02 16:02:00 BASE 17.87 125 20.58 118 -2.0 46 -12.1 308 0 1009.0 NA 0.0000 9999 0 0 0 0
2019/09/02 16:03:00 BASE 17.12 126 20.58 118 -1.9 45 -12.2 307 0 1008.9 NA 0.0000 9999 0 0 0 0
2019/09/02 16:04:00 BASE 17.63 128 20.58 118 -1.8 45 -12.2 307 0 1008.8 NA 0.0000 9999 0 0 0 0
2019/09/02 16:05:00 BASE 17.12 136 20.58 118 -1.7 44 -12.3 307 0 1008.9 NA 0.0000 9999 0 0 0 0
2019/09/02 16:06:00 BASE 16.21 141 20.58 118 -1.7 45 -12.1 307 0 1008.9 NA 0.0000 9999 0 0 0 0
2019/09/02 16:07:00 BASE 16.09 141 20.58 118 -1.7 45 -12.1 307 0 1008.9 NA 0.0000 9999 0 0 0 0
2019/09/02 16:08:00 BASE 16.12 140 20.58 118 -1.8 46 -11.9 246 0 1008.9 NA 0.0000 9999 0 0 0 0
2019/09/02 16:09:00 BASE 16.62 142 20.58 118 -1.8 47 -11.7 261 0 1008.8 NA 0.0000 9999 0 0 0 0
2019/09/02 16:10:00 BASE 17.59 144 20.32 143 -1.9 48 -11.5 308 0 1008.8 NA 0.0000 9999 0 0 0 0
2019/09/02 16:11:00 BASE 18.46 145 20.32 143 -1.8 48 -11.5 309 0 1008.9 NA 0.0000 9999 0 0 0 0
2019/09/02 16:12:00 BASE 17.53 147 20.32 143 -1.8 48 -11.4 309 0 1009.0 NA 0.0000 9999 0 0 0 0
2019/09/02 16:13:00 BASE 17.42 148 20.94 149 -1.7 48 -11.4 309 0 1008.9 NA 0.0000 9999 0 0 0 0
2019/09/02 16:14:00 BASE 17.82 146 20.94 149 -1.7 47 -11.5 311 0 1008.9 NA 0.0000 9999 0 0 0 0
2019/09/02 16:15:00 BASE 16.88 145 20.94 149 -1.6 47 -11.6 310 0 1008.9 NA 0.0000 9999 0 0 0 0
2019/09/02 16:16:00 BASE 16.93 146 20.94 149 -1.6 46 -11.6 309 0 1008.8 NA 0.0000 9999 0 0 0 0
2019/09/02 16:17:00 BASE 17.86 145 20.94 149 -1.5 46 -11.6 309 0 1008.8 NA 0.0000 9999 0 0 0 0
2019/09/02 16:18:00 BASE 18.18 142 20.94 149 -1.5 46 -11.6 309 0 1008.8 NA 0.0000 9999 0 0 0 0
2019/09/02 16:19:00 BASE 18.92 136 24.64 132 -1.5 46 -11.6 307 0 1008.7 NA 0.0000 9999 0 0 0 0
2019/09/02 16:20:00 BASE 19.84 132 24.64 132 -1.5 46 -11.7 305 0 1008.7 NA 0.0000 9999 0 0 0 0
2019/09/02 16:21:00 BASE 21.13 130 25.57 137 -1.5 45 -11.8 306 0 1008.6 NA 0.0000 9999 0 0 0 0
2019/09/02 16:22:00 BASE 23.79 131 27.68 139 -1.5 45 -11.9 308 0 1008.4 NA 0.0000 9999 0 0 0 0
2019/09/02 16:23:00 BASE 26.62 133 31.64 133 -1.4 44 -12.1 309 0 1008.3 NA 0.0000 9999 0 0 0 0
2019/09/02 16:24:00 BASE 26.83 133 31.64 133 -1.4 44 -12.2 308 0 1008.3 NA 0.0000 9999 0 0 0 0
2019/09/02 16:25:00 BASE 25.99 134 31.64 133 -1.3 44 -12.1 309 0 1008.4 NA 0.0000 9999 0 0 0 0
2019/09/02 16:26:00 BASE 26.56 134 31.64 133 -1.3 44 -12.0 309 0 1008.4 NA 0.0000 9999 0 0 0 0
2019/09/02 16:27:00 BASE 25.72 136 31.64 133 -1.3 44 -11.9 309 0 1008.6 NA 0.0000 9999 0 0 0 0
2019/09/02 16:28:00 BASE 24.23 141 31.64 133 -1.4 45 -11.8 308 0 1008.7 NA 0.0000 9999 0 0 0 0
2019/09/02 16:29:00 BASE 23.53 142 31.64 133 -1.4 46 -11.6 309 0 1008.9 NA 0.0000 9999 0 0 0 0
2019/09/02 16:30:00 BASE 23.04 139 31.64 133 -1.4 46 -11.7 306 0 1009.0 NA 0.0000 9999 0 0 0 0
2019/09/02 16:31:00 BASE 20.87 135 31.64 133 -1.4 45 -11.7 305 0 1009.1 NA 0.0000 9999 0 0 0 0
2019/09/02 16:32:00 BASE 19.99 131 31.64 133 -1.4 45 -11.7 306 0 1009.1 NA 0.0000 9999 0 0 0 0
2019/09/02 16:33:00 BASE 21.31 127 30.51 143 -1.4 45 -11.8 304 0 1009.1 NA 0.0000 9999 0 0 0 0
2019/09/02 16:34:00 BASE 23.68 128 30.51 143 -1.4 45 -11.9 303 0 1009.0 NA 0.0000 9999 0 0 0 0
2019/09/02 16:35:00 BASE 25.42 129 29.63 133 -1.4 44 -12.0 304 0 1009.1 NA 0.0000 9999 0 0 0 0
2019/09/02 16:36:00 BASE 25.02 128 29.63 133 -1.4 45 -12.0 304 0 1009.1 NA 0.0000 9999 0 0 0 0
2019/09/02 16:37:00 BASE 26.61 128 31.07 131 -1.5 45 -12.0 302 0 1009.0 NA 0.0000 9999 0 0 0 0
2019/09/02 16:38:00 BASE 27.55 129 31.07 131 -1.5 44 -12.1 301 0 1009.0 NA 0.0000 9999 0 0 0 0
2019/09/02 16:39:00 BASE 25.65 131 31.07 131 -1.5 44 -12.3 298 0 1009.1 NA 0.0000 9999 0 0 0 0
2019/09/02 16:40:00 BASE 22.88 129 31.07 131 -1.5 44 -12.3 300 0 1009.3 NA 0.0000 9999 0 0 0 0
2019/09/02 16:41:00 BASE 22.88 128 31.07 131 -1.5 43 -12.4 301 0 1009.3 NA 0.0000 9999 0 0 0 0
2019/09/02 16:42:00 BASE 23.75 130 31.07 131 -1.5 42 -12.6 300 0 1009.5 NA 0.0000 9999 0 0 0 0
2019/09/02 16:43:00 BASE 22.02 131 31.07 131 -1.5 42 -12.8 300 0 1009.7 NA 0.0000 9999 0 0 0 0
2019/09/02 16:44:00 BASE 20.13 133 31.07 131 -1.5 42 -12.8 301 0 1009.8 NA 0.0000 9999 0 0 0 0
2019/09/02 16:45:00 BASE 18.24 133 31.07 131 -1.5 42 -12.8 298 0 1010.0 NA 0.0000 9999 0 0 0 0
2019/09/02 16:46:00 BASE 16.44 131 31.07 131 -1.5 42 -12.7 292 0 1010.0 NA 0.0000 9999 0 0 0 0
2019/09/02 16:47:00 BASE 16.10 131 28.29 130 -1.5 43 -12.5 290 0 1009.9 NA 0.0000 9999 0 0 0 0
2019/09/02 16:48:00 BASE 16.83 132 27.93 130 -1.5 44 -12.3 290 0 1009.9 NA 0.0000 9999 0 0 0 0
2019/09/02 16:49:00 BASE 17.03 136 27.11 128 -1.5 44 -12.2 291 0 1009.9 NA 0.0000 9999 0 0 0 0
2019/09/02 16:50:00 BASE 16.63 138 27.11 128 -1.5 44 -12.3 290 0 1009.9 NA 0.0000 9999 0 0 0 0
2019/09/02 16:51:00 BASE 15.46 130 26.08 131 -1.5 43 -12.4 291 0 1010.2 NA 0.0000 9999 0 0 0 0
2019/09/02 16:52:00 BASE 14.14 122 22.17 128 -1.5 43 -12.4 285 0 1010.3 NA 0.0000 9999 0 0 0 0
2019/09/02 16:53:00 BASE 13.39 120 22.02 137 -1.5 43 -12.4 287 0 1010.3 NA 0.0000 9999 0 0 0 0
2019/09/02 16:54:00 BASE 13.35 122 21.04 128 -1.6 43 -12.4 288 0 1010.3 NA 0.0000 9999 0 0 0 0
2019/09/02 16:55:00 BASE 14.24 127 20.78 114 -1.6 44 -12.4 287 0 1010.3 NA 0.0000 9999 0 0 0 0
2019/09/02 16:56:00 BASE 14.66 131 20.78 114 -1.7 44 -12.5 288 0 1010.3 NA 0.0000 9999 0 0 0 0
2019/09/02 16:57:00 BASE 13.65 134 20.78 114 -1.8 44 -12.5 284 0 1010.3 NA 0.0000 9999 0 0 0 0
2019/09/02 16:58:00 BASE 13.05 139 20.47 136 -1.8 44 -12.5 283 0 1010.3 NA 0.0000 9999 0 0 0 0
2019/09/02 16:59:00 BASE 13.28 140 18.67 137 -1.8 44 -12.4 277 0 1010.3 NA 0.0000 9999 0 0 0 0
2019/09/02 17:00:00 BASE 12.30 142 16.62 114 -1.9 45 -12.3 277 0 1010.3 NA 0.0000 9999 0 0 0 0
2019/09/02 17:01:00 BASE 10.90 141 16.62 114 -1.9 45 -12.2 279 0 1010.3 NA 0.0000 9999 0 0 0 0
2019/09/02 17:02:00 BASE 10.80 137 16.57 126 -1.9 45 -12.1 280 0 1010.3 NA 0.0000 9999 0 0 0 0
2019/09/02 17:03:00 BASE 11.57 136 16.57 126 -1.9 46 -12.1 289 0 1010.3 NA 0.0000 9999 0 0 0 0
2019/09/02 17:04:00 BASE 12.15 132 16.57 126 -1.9 46 -12.1 287 0 1010.3 NA 0.0000 9999 0 0 0 0
2019/09/02 17:05:00 BASE 11.67 129 16.57 126 -1.9 46 -12.1 279 0 1010.3 NA 0.0000 9999 0 0 0 0
2019/09/02 17:06:00 BASE 11.83 127 15.28 126 -1.9 46 -12.1 277 0 1010.2 NA 0.0000 9999 0 0 0 0
2019/09/02 17:07:00 BASE 13.00 124 15.28 126 -1.9 46 -12.1 271 0 1010.1 NA 0.0000 9999 0 0 0 0
2019/09/02 17:08:00 BASE 14.21 123 17.18 127 -2.0 46 -12.1 274 0 1010.2 NA 0.0000 9999 0 0 0 0
2019/09/02 17:09:00 BASE 15.15 123 17.18 127 -2.0 46 -12.0 269 0 1010.2 NA 0.0000 9999 0 0 0 0
2019/09/02 17:10:00 BASE 16.66 123 20.47 121 -2.0 46 -12.0 269 0 1010.2 NA 0.0000 9999 0 0 0 0
2019/09/02 17:11:00 BASE 17.67 122 20.47 121 -2.0 46 -12.1 269 0 1010.2 NA 0.0000 9999 0 0 0 0
2019/09/02 17:12:00 BASE 18.33 121 21.56 116 -2.0 46 -12.1 274 0 1010.1 NA 0.0000 9999 0 0 0 0
2019/09/02 17:13:00 BASE 18.29 116 21.56 116 -2.0 46 -12.2 278 0 1010.2 NA 0.0000 9999 0 0 0 0
2019/09/02 17:14:00 BASE 17.52 112 21.56 116 -2.0 45 -12.3 287 0 1010.2 NA 0.0000 9999 0 0 0 0
2019/09/02 17:15:00 BASE 18.52 109 21.56 116 -2.0 46 -12.2 290 0 1010.2 NA 0.0000 9999 0 0 0 0
2019/09/02 17:16:00 BASE 20.30 106 23.72 104 -2.1 46 -12.1 289 0 1010.1 NA 0.0000 9999 0 0 0 0
2019/09/02 17:17:00 BASE 21.44 104 23.97 107 -2.1 47 -11.9 288 0 1010.2 NA 0.0000 9999 0 0 0 0
2019/09/02 17:18:00 BASE 21.63 103 23.97 107 -2.2 48 -11.7 286 0 1010.1 NA 0.0000 9999 0 0 0 0
2019/09/02 17:19:00 BASE 21.59 105 23.97 110 -2.2 48 -11.8 285 0 1010.1 NA 0.0000 9999 0 0 0 0
2019/09/02 17:20:00 BASE 21.52 112 23.97 110 -2.2 47 -12.0 285 0 1010.2 NA 0.0000 9999 0 0 0 0
2019/09/02 17:21:00 BASE 20.86 117 23.97 110 -2.1 46 -12.2 284 0 1010.3 NA 0.0000 9999 0 0 0 0
2019/09/02 17:22:00 BASE 19.13 120 23.97 110 -2.1 45 -12.5 284 0 1010.5 NA 0.0000 9999 0 0 0 0
2019/09/02 17:23:00 BASE 17.93 123 23.97 110 -2.0 44 -12.7 282 0 1010.6 NA 0.0000 9999 0 0 0 0
2019/09/02 17:24:00 BASE 17.15 126 23.97 110 -2.0 44 -12.7 281 0 1010.6 NA 0.0000 9999 0 0 0 0
2019/09/02 17:25:00 BASE 16.33 127 23.97 110 -2.0 44 -12.7 280 0 1010.7 NA 0.0000 9999 0 0 0 0
2019/09/02 17:26:00 BASE 16.33 127 23.97 110 -2.0 44 -12.7 279 0 1010.8 NA 0.0000 9999 0 0 0 0
2019/09/02 17:27:00 BASE 17.06 129 23.97 110 -2.0 44 -12.7 279 0 1010.8 NA 0.0000 9999 0 0 0 0
2019/09/02 17:28:00 BASE 17.29 129 23.97 110 -2.0 44 -12.6 278 0 1010.8 NA 0.0000 9999 0 0 0 0
2019/09/02 17:29:00 BASE 16.46 127 23.41 113 -2.0 44 -12.6 277 0 1010.8 NA 0.0000 9999 0 0 0 0
2019/09/02 17:30:00 BASE 15.69 128 22.69 119 -2.0 44 -12.6 276 0 1010.8 NA 0.0000 9999 0 0 0 0
2019/09/02 17:31:00 BASE 16.11 130 19.91 124 -2.0 44 -12.5 276 0 1010.7 NA 0.0000 9999 0 0 0 0
2019/09/02 17:32:00 BASE 17.33 132 20.11 132 -2.0 44 -12.5 275 0 1010.7 NA 0.0000 9999 0 0 0 0
2019/09/02 17:33:00 BASE 17.11 135 20.11 132 -2.0 44 -12.6 275 0 1010.7 NA 0.0000 9999 0 0 0 0
2019/09/02 17:34:00 BASE 17.22 134 22.07 132 -2.0 44 -12.6 274 0 1010.5 NA 0.0000 9999 0 0 0 0
2019/09/02 17:35:00 BASE 18.63 136 22.07 132 -2.0 44 -12.7 274 0 1010.4 NA 0.0000 9999 0 0 0 0
2019/09/02 17:36:00 BASE 19.61 139 23.72 147 -1.9 43 -13.0 274 0 1010.3 NA 0.0000 9999 0 0 0 0
2019/09/02 17:37:00 BASE 19.24 141 23.72 147 -1.8 42 -13.2 274 0 1010.3 NA 0.0000 9999 0 0 0 0
2019/09/02 17:38:00 BASE 18.50 140 23.72 147 -1.8 41 -13.3 273 0 1010.3 NA 0.0000 9999 0 0 0 0
2019/09/02 17:39:00 BASE 18.11 138 23.72 147 -1.7 40 -13.5 274 0 1010.4 NA 0.0000 9999 0 0 0 0
2019/09/02 17:40:00 BASE 16.90 134 23.72 147 -1.7 40 -13.5 274 0 1010.4 NA 0.0000 9999 0 0 0 0
2019/09/02 17:41:00 BASE 17.85 129 23.72 147 -1.7 41 -13.4 273 0 1010.3 NA 0.0000 9999 0 0 0 0
2019/09/02 17:42:00 BASE 18.42 127 23.72 147 -1.8 42 -13.2 272 0 1010.5 NA 0.0000 9999 0 0 0 0
2019/09/02 17:43:00 BASE 16.78 128 23.72 147 -1.9 43 -12.9 273 0 1010.6 NA 0.0000 9999 0 0 0 0
2019/09/02 17:44:00 BASE 16.34 129 23.72 147 -1.9 44 -12.7 271 0 1010.7 NA 0.0000 9999 0 0 0 0
2019/09/02 17:45:00 BASE 16.90 128 23.72 147 -2.0 44 -12.5 269 0 1010.7 NA 0.0000 9999 0 0 0 0
2019/09/02 17:46:00 BASE 16.62 127 21.81 143 -2.0 45 -12.5 268 0 1010.8 NA 0.0000 9999 0 0 0 0
2019/09/02 17:47:00 BASE 17.01 128 21.81 143 -2.1 45 -12.3 266 0 1010.8 NA 0.0000 9999 0 0 0 0
2019/09/02 17:48:00 BASE 18.88 127 22.28 121 -2.1 46 -12.3 260 0 1010.7 NA 0.0000 9999 0 0 0 0
2019/09/02 17:49:00 BASE 19.15 121 22.28 121 -2.1 46 -12.3 256 0 1010.7 NA 0.0000 9999 0 0 0 0
2019/09/02 17:50:00 BASE 18.67 116 22.28 121 -2.1 46 -12.3 253 0 1010.8 NA 0.0000 9999 0 0 0 0
2019/09/02 17:51:00 BASE 18.61 109 22.28 121 -2.2 46 -12.2 252 0 1010.7 NA 0.0000 9999 0 0 0 0
2019/09/02 17:52:00 BASE 19.52 108 22.28 121 -2.2 46 -12.2 249 0 1010.7 NA 0.0000 9999 0 0 0 0
2019/09/02 17:53:00 BASE 20.17 112 22.28 121 -2.2 46 -12.2 247 0 1010.7 NA 0.0000 9999 0 0 0 0
2019/09/02 17:54:00 BASE 19.03 111 22.28 121 -2.3 46 -12.2 249 0 1010.7 NA 0.0000 9999 0 0 0 0
2019/09/02 17:55:00 BASE 17.99 107 22.28 121 -2.3 47 -12.1 253 0 1010.8 NA 0.0000 9999 0 0 0 0
2019/09/02 17:56:00 BASE 17.34 103 22.28 121 -2.5 48 -11.9 252 0 1010.9 NA 0.0000 9999 0 0 0 0
2019/09/02 17:57:00 BASE 16.51 101 22.28 121 -2.5 49 -11.8 251 0 1010.9 NA 0.0000 9999 0 0 0 0
2019/09/02 17:58:00 BASE 15.45 101 21.56 104 -2.7 50 -11.7 250 0 1010.9 NA 0.0000 9999 0 0 0 0
2019/09/02 17:59:00 BASE 14.43 99 21.56 104 -2.8 51 -11.6 254 0 1010.9 NA 0.0000 9999 0 0 0 0
2019/09/02 18:00:00 BASE 13.98 101 21.56 104 -2.9 51 -11.7 261 0 1010.9 NA 0.0000 9999 0 0 0 0
2019/09/02 18:01:00 BASE 15.15 106 21.50 111 -2.9 50 -11.9 261 0 1010.9 NA 0.0000 9999 0 0 0 0
2019/09/02 18:02:00 BASE 16.11 109 21.50 111 -2.8 49 -12.0 260 0 1010.9 NA 0.0000 9999 0 0 0 0
2019/09/02 18:03:00 BASE 15.35 111 20.99 118 -2.8 49 -12.1 258 0 1010.9 NA 0.0000 9999 0 0 0 0
2019/09/02 18:04:00 BASE 15.74 113 20.99 118 -2.7 48 -12.2 256 0 1011.0 NA 0.0000 9999 0 0 0 0
2019/09/02 18:05:00 BASE 17.17 115 20.99 118 -2.6 47 -12.3 255 0 1010.9 NA 0.0000 9999 0 0 0 0
2019/09/02 18:06:00 BASE 17.43 119 20.99 118 -2.5 47 -12.4 254 0 1011.0 NA 0.0000 9999 0 0 0 0
2019/09/02 18:07:00 BASE 17.90 120 20.99 118 -2.4 46 -12.4 252 0 1010.9 NA 0.0000 9999 0 0 0 0
2019/09/02 18:08:00 BASE 17.90 119 20.99 118 -2.3 46 -12.4 249 0 1010.9 NA 0.0000 9999 0 0 0 0
2019/09/02 18:09:00 BASE 17.11 119 20.99 118 -2.3 46 -12.5 247 0 1010.9 NA 0.0000 9999 0 0 0 0
2019/09/02 18:10:00 BASE 16.81 117 20.99 118 -2.2 46 -12.4 248 0 1010.9 NA 0.0000 9999 0 0 0 0
2019/09/02 18:11:00 BASE 16.16 116 19.55 127 -2.3 46 -12.3 246 0 1010.9 NA 0.0000 9999 0 0 0 0
2019/09/02 18:12:00 BASE 15.58 119 19.55 127 -2.3 47 -12.2 246 0 1010.9 NA 0.0000 9999 0 0 0 0
2019/09/02 18:13:00 BASE 15.72 120 19.55 127 -2.4 48 -12.0 241 0 1010.9 NA 0.0000 9999 0 0 0 0
2019/09/02 18:14:00 BASE 16.01 118 19.55 127 -2.5 49 -11.8 240 0 1010.8 NA 0.0000 9999 0 0 0 0
2019/09/02 18:15:00 BASE 16.23 115 19.55 127 -2.6 49 -11.8 236 0 1010.7 NA 0.0000 9999 0 0 0 0
2019/09/02 18:16:00 BASE 16.99 115 19.55 127 -2.7 49 -11.8 234 0 1010.6 NA 0.0000 9999 0 0 0 0
2019/09/02 18:17:00 BASE 18.05 114 19.45 115 -2.7 49 -11.9 233 0 1010.6 NA 0.0000 9999 0 0 0 0
2019/09/02 18:18:00 BASE 18.16 112 19.45 115 -2.7 49 -11.9 233 0 1010.5 NA 0.0000 9999 0 0 0 0
2019/09/02 18:19:00 BASE 18.14 110 19.81 113 -2.7 49 -11.9 231 0 1010.5 NA 0.0000 9999 0 0 0 0
2019/09/02 18:20:00 BASE 19.33 112 22.38 117 -2.7 49 -11.9 231 0 1010.5 NA 0.0000 9999 0 0 0 0
2019/09/02 18:21:00 BASE 21.04 116 23.20 114 -2.7 49 -11.9 231 0 1010.5 NA 0.0000 9999 0 0 0 0
2019/09/02 18:22:00 BASE 21.18 120 23.20 114 -2.7 49 -11.9 229 0 1010.5 NA 0.0000 9999 0 0 0 0
2019/09/02 18:23:00 BASE 20.55 122 23.20 114 -2.7 49 -11.9 228 0 1010.5 NA 0.0000 9999 0 0 0 0
2019/09/02 18:24:00 BASE 19.98 124 23.20 114 -2.6 48 -12.0 230 0 1010.6 NA 0.0000 9999 0 0 0 0
2019/09/02 18:25:00 BASE 19.81 125 23.20 114 -2.5 48 -12.1 229 0 1010.7 NA 0.0000 9999 0 0 0 0
2019/09/02 18:26:00 BASE 20.28 126 23.20 114 -2.5 47 -12.1 232 0 1010.8 NA 0.0000 9999 0 0 0 0
2019/09/02 18:27:00 BASE 19.02 127 23.20 114 -2.4 47 -12.1 229 0 1010.9 NA 0.0000 9999 0 0 0 0
2019/09/02 18:28:00 BASE 17.58 125 23.20 114 -2.4 47 -12.0 229 0 1011.0 NA 0.0000 9999 0 0 0 0
2019/09/02 18:29:00 BASE 17.15 125 23.20 114 -2.3 48 -12.0 225 0 1011.2 NA 0.0000 9999 0 0 0 0
2019/09/02 18:30:00 BASE 16.55 128 23.20 114 -2.3 48 -11.8 222 0 1011.3 NA 0.0000 9999 0 0 0 0
2019/09/02 18:31:00 BASE 16.73 128 23.10 128 -2.3 48 -11.7 222 0 1011.4 NA 0.0000 9999 0 0 0 0
2019/09/02 18:32:00 BASE 17.16 128 23.10 128 -2.3 48 -11.7 221 0 1011.4 NA 0.0000 9999 0 0 0 0
2019/09/02 18:33:00 BASE 16.47 127 23.10 128 -2.2 48 -11.7 216 0 1011.5 NA 0.0000 9999 0 0 0 0
2019/09/02 18:34:00 BASE 16.11 129 23.10 128 -2.2 49 -11.6 214 0 1011.5 NA 0.0000 9999 0 0 0 0
2019/09/02 18:35:00 BASE 17.27 133 23.10 128 -2.1 49 -11.5 206 0 1011.3 NA 0.0000 9999 0 0 0 0
2019/09/02 18:36:00 BASE 18.00 134 20.42 141 -2.1 49 -11.4 206 0 1011.3 NA 0.0000 9999 0 0 0 0
2019/09/02 18:37:00 BASE 18.50 136 23.25 147 -2.1 49 -11.4 205 0 1011.2 NA 0.0000 9999 0 0 0 0
2019/09/02 18:38:00 BASE 19.09 136 23.25 147 -2.0 49 -11.2 204 0 1011.2 NA 0.0000 9999 0 0 0 0
2019/09/02 18:39:00 BASE 21.46 133 26.55 129 -2.0 50 -11.2 205 0 1011.0 NA 0.0000 9999 0 0 0 0
2019/09/02 18:40:00 BASE 23.95 129 26.55 129 -2.0 50 -11.1 204 0 1011.0 NA 0.0000 9999 0 0 0 0
2019/09/02 18:41:00 BASE 23.34 126 26.60 124 -2.0 50 -11.0 202 0 1011.0 NA 0.0000 9999 0 0 0 0
2019/09/02 18:42:00 BASE 22.62 126 26.60 124 -2.0 51 -10.9 201 0 1010.9 NA 0.0000 9999 0 0 0 0
2019/09/02 18:43:01 BASE 22.73 127 26.60 124 -2.0 51 -10.9 200 0 1010.9 NA 0.0000 9999 0 0 0 0
2019/09/02 18:44:00 BASE 23.51 126 26.60 127 -2.0 51 -10.9 201 0 1010.8 NA 0.0000 9999 0 0 0 0
2019/09/02 18:45:00 BASE 23.42 128 26.60 127 -2.0 51 -10.9 196 0 1010.9 NA 0.0000 9999 0 0 0 0
2019/09/02 18:46:00 BASE 23.39 132 26.60 127 -2.0 50 -11.0 195 0 1010.8 NA 0.0000 9999 0 0 0 0
2019/09/02 18:47:00 BASE 23.61 132 26.60 127 -2.0 49 -11.2 194 0 1010.9 NA 0.0000 9999 0 0 0 0
2019/09/02 18:48:00 BASE 24.31 131 27.27 138 -2.0 49 -11.4 195 0 1010.9 NA 0.0000 9999 0 0 0 0
2019/09/02 18:49:00 BASE 24.89 131 27.68 128 -1.9 48 -11.5 195 0 1011.0 NA 0.0000 9999 0 0 0 0
2019/09/02 18:50:00 BASE 23.82 135 27.68 128 -1.9 48 -11.6 192 0 1011.0 NA 0.0000 9999 0 0 0 0
2019/09/02 18:51:00 BASE 22.68 136 27.68 128 -1.9 48 -11.5 191 0 1011.1 NA 0.0000 9999 0 0 0 0
2019/09/02 18:52:00 BASE 22.25 132 27.68 128 -1.9 48 -11.3 190 0 1011.2 NA 0.0000 9999 0 0 0 0
2019/09/02 18:53:00 BASE 22.29 132 27.68 128 -1.9 49 -11.3 188 0 1011.2 NA 0.0000 9999 0 0 0 0
2019/09/02 18:54:00 BASE 22.65 132 27.68 128 -1.9 49 -11.2 186 0 1011.2 NA 0.0000 9999 0 0 0 0
2019/09/02 18:55:00 BASE 22.70 132 27.68 128 -1.9 49 -11.1 183 0 1011.2 NA 0.0000 9999 0 0 0 0
2019/09/02 18:56:00 BASE 22.62 134 27.68 128 -1.9 49 -11.2 181 0 1011.2 NA 0.0000 9999 0 0 0 0
2019/09/02 18:57:00 BASE 21.89 134 27.68 128 -1.9 49 -11.2 178 0 1011.2 NA 0.0000 9999 0 0 0 0
2019/09/02 18:58:00 BASE 21.67 131 27.68 128 -1.9 50 -11.1 177 0 1011.2 NA 0.0000 9999 0 0 0 0
2019/09/02 18:59:00 BASE 21.46 127 26.70 143 -1.9 50 -11.0 176 0 1011.3 NA 0.0000 9999 0 0 0 0
2019/09/02 19:00:00 BASE 20.91 126 26.70 143 -2.0 51 -10.9 174 0 1011.3 NA 0.0000 9999 0 0 0 0
2019/09/02 19:01:00 BASE 21.19 127 26.70 143 -2.0 51 -10.8 172 0 1011.3 NA 0.0000 9999 0 0 0 0
2019/09/02 19:02:00 BASE 20.39 126 26.70 143 -2.0 51 -10.7 169 0 1011.4 NA 0.0000 9999 0 0 0 0
2019/09/02 19:03:00 BASE 19.50 125 26.70 143 -2.1 52 -10.7 165 0 1011.4 NA 0.0000 9999 0 0 0 0
2019/09/02 19:04:00 BASE 19.32 126 26.70 143 -2.1 52 -10.6 164 0 1011.4 NA 0.0000 9999 0 0 0 0
2019/09/02 19:05:00 BASE 20.08 127 26.70 143 -2.1 52 -10.6 163 0 1011.4 NA 0.0000 9999 0 0 0 0
2019/09/02 19:06:00 BASE 19.48 129 24.44 128 -2.1 52 -10.6 161 0 1011.4 NA 0.0000 9999 0 0 0 0
2019/09/02 19:07:00 BASE 20.55 129 25.62 124 -2.1 52 -10.7 156 0 1011.3 NA 0.0000 9999 0 0 0 0
2019/09/02 19:08:00 BASE 22.82 129 25.62 124 -2.1 51 -10.9 156 0 1011.3 NA 0.0000 9999 0 0 0 0
2019/09/02 19:09:00 BASE 23.30 130 25.72 134 -2.1 50 -11.1 154 0 1011.4 NA 0.0000 9999 0 0 0 0
2019/09/02 19:10:00 BASE 22.42 130 25.72 134 -2.0 50 -11.2 152 0 1011.4 NA 0.0000 9999 0 0 0 0
2019/09/02 19:11:00 BASE 21.45 130 25.72 134 -2.0 49 -11.2 149 0 1011.4 NA 0.0000 9999 0 0 0 0
2019/09/02 19:12:00 BASE 21.23 130 25.72 134 -2.0 49 -11.2 144 0 1011.5 NA 0.0000 9999 0 0 0 0
2019/09/02 19:13:00 BASE 21.22 130 25.72 134 -2.0 49 -11.2 140 0 1011.5 NA 0.0000 9999 0 0 0 0
2019/09/02 19:14:00 BASE 20.92 126 25.72 134 -2.0 49 -11.2 139 0 1011.6 NA 0.0000 9999 0 0 0 0
2019/09/02 19:15:00 BASE 19.83 119 25.72 134 -1.9 50 -11.0 138 0 1011.6 NA 0.0000 9999 0 0 0 0
2019/09/02 19:16:00 BASE 18.90 119 25.72 134 -1.9 50 -11.0 135 0 1011.7 NA 0.0000 9999 0 0 0 0
2019/09/02 19:17:00 BASE 17.88 125 25.72 134 -1.9 50 -10.9 134 0 1011.7 NA 0.0000 9999 0 0 0 0
2019/09/02 19:18:00 BASE 16.82 130 25.72 134 -1.9 51 -10.8 132 0 1011.7 NA 0.0000 9999 0 0 0 0
2019/09/02 19:19:00 BASE 16.37 130 24.64 124 -2.0 51 -10.7 129 0 1011.7 NA 0.0000 9999 0 0 0 0
2019/09/02 19:20:00 BASE 16.09 129 24.64 124 -2.0 52 -10.6 126 0 1011.8 NA 0.0000 9999 0 0 0 0
2019/09/02 19:21:00 BASE 17.98 130 24.13 130 -2.0 52 -10.6 123 0 1011.7 NA 0.0000 9999 0 0 0 0
2019/09/02 19:22:00 BASE 20.57 130 24.13 130 -2.1 52 -10.6 120 0 1011.6 NA 0.0000 9999 0 0 0 0
2019/09/02 19:23:00 BASE 20.78 130 22.89 132 -2.1 52 -10.6 118 0 1011.7 NA 0.0000 9999 0 0 0 0
2019/09/02 19:24:00 BASE 19.64 128 22.89 132 -2.1 52 -10.7 113 0 1011.8 NA 0.0000 9999 0 0 0 0
2019/09/02 19:25:00 BASE 16.51 123 22.89 132 -2.1 52 -10.6 110 0 1011.9 NA 0.0000 9999 0 0 0 0
2019/09/02 19:26:00 BASE 16.42 122 22.89 132 -2.1 52 -10.6 108 0 1011.9 NA 0.0000 9999 0 0 0 0
2019/09/02 19:27:00 BASE 16.71 123 22.89 132 -2.1 53 -10.5 106 0 1012.0 NA 0.0000 9999 0 0 0 0
2019/09/02 19:28:00 BASE 14.78 123 22.89 132 -2.2 54 -10.3 102 0 1012.1 NA 0.0000 9999 0 0 0 0
2019/09/02 19:29:00 BASE 14.02 123 22.89 132 -2.3 54 -10.2 100 0 1012.1 NA 0.0000 9999 0 0 0 0
2019/09/02 19:30:00 BASE 14.33 125 22.89 132 -2.3 55 -10.2 98 0 1012.2 NA 0.0000 9000 0 0 0 0
2019/09/02 19:31:00 BASE 13.33 128 22.89 132 -2.3 55 -10.3 96 0 1012.2 NA 0.0000 9999 0 0 0 0
2019/09/02 19:32:00 BASE 12.94 130 22.89 132 -2.4 55 -10.2 94 0 1012.2 NA 0.0000 9999 0 0 0 0
2019/09/02 19:33:00 BASE 15.11 132 21.56 132 -2.4 55 -10.2 90 0 1012.2 NA 0.0000 9000 0 0 0 0
2019/09/02 19:34:00 BASE 17.09 133 21.56 132 -2.4 55 -10.2 88 0 1012.1 NA 0.0000 9000 0 0 0 0
2019/09/02 19:35:00 BASE 17.80 131 21.56 132 -2.3 54 -10.3 87 0 1012.2 NA 0.0000 9000 0 0 0 0
2019/09/02 19:36:00 BASE 17.06 129 19.34 134 -2.3 54 -10.5 86 0 1012.1 NA 0.0000 9000 0 0 0 0
2019/09/02 19:37:00 BASE 15.88 130 19.34 134 -2.3 53 -10.6 85 0 1012.2 NA 0.0000 HZ 9999 0 0 0 0
2019/09/02 19:38:00 BASE 14.27 128 19.34 134 -2.3 53 -10.6 84 0 1012.3 NA 0.0000 HZ 9999 0 0 0 0
2019/09/02 19:39:00 BASE 12.07 123 19.34 134 -2.3 53 -10.5 83 0 1012.4 NA 0.0000 HZ 9000 0 0 0 0
2019/09/02 19:40:00 BASE 11.00 119 19.34 134 -2.3 54 -10.4 82 0 1012.4 NA 0.0000 HZ 9000 0 0 0 0
2019/09/02 19:41:00 BASE 11.53 117 19.34 134 -2.4 55 -10.3 82 0 1012.4 NA 0.0000 HZ 9000 0 0 0 0
2019/09/02 19:42:00 BASE 11.86 119 19.34 134 -2.5 55 -10.4 82 0 1012.4 NA 0.0000 HZ 9000 0 0 0 0
2019/09/02 19:43:01 BASE 11.19 118 19.34 134 -2.5 54 -10.5 83 0 1012.5 NA 0.0000 HZ 9000 0 0 0 0
2019/09/02 19:44:00 BASE 9.99 115 18.73 125 -2.5 54 -10.7 82 0 1012.5 NA 0.0000 HZ 9000 0 0 0 0
2019/09/02 19:45:00 BASE 9.02 116 17.54 133 -2.6 53 -10.9 82 0 1012.6 NA 0.0000 HZ 9999 0 0 0 0
2019/09/02 19:46:00 BASE 8.94 118 16.31 132 -2.7 53 -11.0 82 0 1012.6 NA 0.0000 HZ 9999 0 0 0 0
2019/09/02 19:47:00 BASE 9.15 117 15.69 132 -2.8 53 -11.0 83 0 1012.6 NA 0.0000 HZ 9999 0 0 0 0
2019/09/02 19:48:00 BASE 8.97 112 13.27 119 -2.9 53 -11.1 83 0 1012.6 NA 0.0000 HZ 9999 0 0 0 0
2019/09/02 19:49:00 BASE 7.86 97 13.27 119 -3.0 54 -11.1 82 0 1012.7 NA 0.0000 HZ 9999 0 0 0 0
2019/09/02 19:50:00 BASE 6.10 82 12.76 116 -3.1 54 -11.0 80 0 1012.7 NA 0.0000 HZ 9999 0 0 0 0
2019/09/02 19:51:00 BASE 5.22 77 12.76 116 -3.1 55 -11.0 79 0 1012.8 NA 0.0000 HZ 9999 0 0 0 0
2019/09/02 19:52:00 BASE 5.05 78 11.94 124 -3.1 55 -10.9 79 0 1012.8 NA 0.0000 HZ 9999 0 0 0 0
2019/09/02 19:53:00 BASE 5.35 78 10.44 124 -3.2 55 -11.0 79 0 1012.8 NA 0.0000 9999 0 0 0 0
2019/09/02 19:54:00 BASE 5.40 71 10.44 124 -3.2 55 -11.0 77 0 1012.8 NA 0.0000 9999 0 0 0 0
2019/09/02 19:55:00 BASE 5.08 69 10.24 120 -3.2 54 -11.1 76 0 1012.9 NA 0.0000 9000 0 0 0 0
2019/09/02 19:56:00 BASE 4.72 71 9.83 121 -3.2 54 -11.1 76 0 1012.9 NA 0.0000 9000 0 0 0 0
2019/09/02 19:57:00 BASE 4.73 73 9.83 121 -3.2 54 -11.2 76 0 1012.9 NA 0.0000 9999 0 0 0 0
2019/09/02 19:58:00 BASE 5.05 86 8.23 93 -3.2 54 -11.2 76 0 1012.9 NA 0.0000 9999 0 0 0 0
2019/09/02 19:59:00 BASE 5.43 102 7.51 111 -3.3 54 -11.3 75 0 1012.9 NA 0.0000 9999 0 0 0 0
2019/09/02 20:00:00 BASE 5.68 106 7.51 111 -3.2 53 -11.4 74 0 1012.9 NA 0.0000 9999 0 0 0 0
2019/09/02 20:01:00 BASE 6.03 107 7.51 111 -3.2 53 -11.5 73 0 1012.9 NA 0.0000 HZ 9999 0 0 0 0
2019/09/02 20:02:00 BASE 6.26 112 7.51 111 -3.1 52 -11.6 72 0 1012.9 NA 0.0000 HZ 9999 0 0 0 0
2019/09/02 20:03:00 BASE 6.35 118 8.33 127 -3.0 52 -11.5 71 0 1012.9 NA 0.0000 HZ 9999 0 0 0 0
2019/09/02 20:04:00 BASE 6.63 120 8.33 127 -2.9 52 -11.4 69 0 1012.9 NA 0.0000 HZ 9999 0 0 0 0
2019/09/02 20:05:00 BASE 6.43 113 8.33 127 -2.8 52 -11.4 66 0 1012.9 NA 0.0000 9999 0 0 0 0
2019/09/02 20:06:00 BASE 6.43 110 8.33 119 -2.7 51 -11.3 65 0 1012.9 NA 0.0000 9000 0 0 0 0
2019/09/02 20:07:00 BASE 7.10 120 8.39 127 -2.6 51 -11.3 63 0 1012.9 NA 0.0000 9999 0 0 0 0
2019/09/02 20:08:00 BASE 7.63 128 9.47 137 -2.5 50 -11.5 62 0 1013.0 NA 0.0000 HZ 9999 0 0 0 0
2019/09/02 20:09:00 BASE 7.83 130 9.47 137 -2.5 50 -11.5 61 0 1013.0 NA 0.0000 HZ 9999 0 0 0 0
2019/09/02 20:10:00 BASE 7.53 133 9.47 137 -2.5 50 -11.5 60 0 1013.0 NA 0.0000 HZ 9999 0 0 0 0
2019/09/02 20:11:00 BASE 7.35 138 9.47 137 -2.5 50 -11.5 59 0 1013.1 NA 0.0000 HZ 9000 0 0 0 0
2019/09/02 20:12:00 BASE 7.98 139 9.57 147 -2.5 50 -11.6 58 0 1013.2 NA 0.0000 HZ 9000 0 0 0 0
2019/09/02 20:13:00 BASE 8.16 135 9.57 147 -2.6 50 -11.6 57 0 1013.3 NA 0.0000 HZ 9999 0 0 0 0
2019/09/02 20:14:00 BASE 7.96 129 9.57 147 -2.6 50 -11.6 58 0 1013.3 NA 0.0000 HZ 9999 0 0 0 0
2019/09/02 20:15:00 BASE 8.46 126 9.57 147 -2.7 50 -11.6 57 0 1013.3 NA 0.0000 HZ 9999 0 0 0 0
2019/09/02 20:16:00 BASE 9.13 126 9.67 124 -2.7 51 -11.4 56 0 1013.3 NA 0.0000 9999 0 0 0 0
2019/09/02 20:17:00 BASE 9.20 125 9.67 124 -2.7 52 -11.2 54 0 1013.3 NA 0.0000 9999 0 0 0 0
2019/09/02 20:18:00 BASE 9.17 125 9.67 124 -2.6 52 -11.1 51 0 1013.4 NA 0.0000 9999 0 0 0 0
2019/09/02 20:19:00 BASE 9.12 123 9.67 124 -2.5 52 -11.0 48 0 1013.4 NA 0.0000 9999 0 0 0 0
2019/09/02 20:20:00 BASE 8.71 120 9.67 124 -2.4 52 -10.9 47 0 1013.4 NA 0.0000 9999 0 0 0 0
2019/09/02 20:21:00 BASE 8.13 120 9.67 124 -2.3 51 -11.1 46 0 1013.4 NA 0.0000 9999 0 0 0 0
2019/09/02 20:22:00 BASE 8.05 123 9.67 124 -2.3 51 -11.2 45 0 1013.4 NA 0.0000 9999 0 0 0 0
2019/09/02 20:23:00 BASE 8.25 124 9.67 124 -2.4 50 -11.3 44 0 1013.4 NA 0.0000 9999 0 0 0 0
2019/09/02 20:24:00 BASE 8.34 125 9.67 124 -2.4 49 -11.5 43 0 1013.4 NA 0.0000 9999 0 0 0 0
2019/09/02 20:25:00 BASE 8.39 126 9.67 124 -2.4 48 -11.8 41 0 1013.4 NA 0.0000 9999 0 0 0 0
2019/09/02 20:26:00 BASE 8.14 127 9.62 120 -2.4 48 -12.0 40 0 1013.4 NA 0.0000 9999 0 0 0 0
2019/09/02 20:27:00 BASE 8.53 131 9.93 132 -2.3 47 -12.2 39 0 1013.4 NA 0.0000 9999 0 0 0 0
2019/09/02 20:28:00 BASE 9.03 134 9.93 132 -2.3 46 -12.4 38 0 1013.5 NA 0.0000 9999 0 0 0 0
2019/09/02 20:29:00 BASE 9.08 139 9.93 132 -2.4 46 -12.5 37 0 1013.5 NA 0.0000 9999 0 0 0 0
2019/09/02 20:30:00 BASE 8.87 137 9.93 132 -2.4 46 -12.6 36 0 1013.6 NA 0.0000 9999 0 0 0 0
2019/09/02 20:31:00 BASE 8.70 131 9.93 132 -2.5 45 -12.7 35 0 1013.6 NA 0.0000 9999 0 0 0 0
2019/09/02 20:32:00 BASE 9.32 128 10.60 126 -2.5 45 -12.8 34 0 1013.5 NA 0.0000 9999 0 0 0 0
2019/09/02 20:33:00 BASE 9.66 123 10.60 126 -2.5 45 -12.9 33 0 1013.5 NA 0.0000 9999 0 0 0 0
2019/09/02 20:34:00 BASE 10.12 121 11.99 124 -2.5 45 -13.0 32 0 1013.5 NA 0.0000 9999 0 0 0 0
2019/09/02 20:35:00 BASE 10.56 118 11.99 124 -2.5 44 -13.0 30 0 1013.6 NA 0.0000 9999 0 0 0 0
2019/09/02 20:36:00 BASE 10.33 115 11.99 120 -2.5 44 -13.0 29 0 1013.6 NA 0.0000 9999 0 0 0 0
2019/09/02 20:37:00 BASE 9.94 114 11.99 120 -2.6 45 -13.0 28 0 1013.7 NA 0.0000 9999 0 0 0 0
2019/09/02 20:38:00 BASE 9.58 113 11.99 120 -2.9 46 -13.0 27 0 1013.7 NA 0.0000 9999 0 0 0 0
2019/09/02 20:39:00 BASE 9.04 108 11.99 120 -3.2 47 -12.9 26 0 1013.7 NA 0.0000 9999 0 0 0 0
2019/09/02 20:40:00 BASE 8.79 101 11.99 120 -3.7 49 -12.9 25 0 1013.8 NA 0.0000 9999 0 0 0 0
2019/09/02 20:41:00 BASE 9.01 98 11.99 120 -4.1 51 -12.8 24 0 1013.8 NA 0.0000 9999 0 0 0 0
2019/09/02 20:42:00 BASE 8.69 102 11.99 120 -4.3 52 -12.8 23 0 1013.8 NA 0.0000 9999 0 0 0 0
2019/09/02 20:43:00 BASE 7.99 106 11.99 120 -4.3 51 -12.9 22 0 1013.9 NA 0.0000 9999 0 0 0 0
2019/09/02 20:44:00 BASE 7.92 108 11.99 120 -4.2 51 -13.0 21 0 1013.9 NA 0.0000 9999 0 0 0 0
2019/09/02 20:45:00 BASE 8.27 111 11.99 120 -4.0 50 -13.0 20 0 1014.0 NA 0.0000 9999 0 0 0 0
2019/09/02 20:46:00 BASE 8.17 115 10.19 115 -3.8 49 -13.1 19 0 1014.0 NA 0.0000 9999 0 0 0 0
2019/09/02 20:47:00 BASE 7.80 120 10.08 123 -3.7 48 -13.1 19 0 1014.1 NA 0.0000 9999 0 0 0 0
2019/09/02 20:48:00 BASE 7.64 129 9.77 95 -3.6 48 -13.0 18 0 1014.1 NA 0.0000 9999 0 0 0 0
2019/09/02 20:49:00 BASE 7.66 139 9.77 95 -3.5 48 -12.9 17 0 1014.1 NA 0.0000 9999 0 0 0 0
2019/09/02 20:50:00 BASE 7.69 145 9.62 102 -3.3 48 -12.8 16 0 1014.1 NA 0.0000 9999 0 0 0 0
2019/09/02 20:51:00 BASE 7.88 146 9.57 113 -3.1 47 -12.7 15 0 1014.1 NA 0.0000 9999 0 0 0 0
2019/09/02 20:52:00 BASE 7.73 144 9.57 113 -2.9 47 -12.6 15 0 1014.1 NA 0.0000 9999 0 0 0 0
2019/09/02 20:53:00 BASE 7.60 143 9.57 113 -2.8 47 -12.6 14 0 1014.1 NA 0.0000 9999 0 0 0 0
2019/09/02 20:54:00 BASE 7.61 144 9.26 146 -2.7 47 -12.5 13 0 1014.2 NA 0.0000 9999 0 0 0 0
2019/09/02 20:55:00 BASE 7.10 145 9.26 146 -2.6 47 -12.5 12 0 1014.2 NA 0.0000 9999 0 0 0 0
2019/09/02 20:56:00 BASE 6.76 145 9.26 146 -2.6 46 -12.5 12 0 1014.2 NA 0.0000 9999 0 0 0 0
2019/09/02 20:57:00 BASE 6.59 146 9.26 146 -2.6 46 -12.5 11 0 1014.3 NA 0.0000 9999 0 0 0 0
2019/09/02 20:58:01 BASE 6.62 145 9.26 146 -2.6 46 -12.6 11 0 1014.4 NA 0.0000 9999 0 0 0 0
2019/09/02 20:59:00 BASE 6.78 141 9.26 146 -2.7 47 -12.6 10 0 1014.4 NA 0.0000 9999 0 0 0 0
2019/09/02 21:00:00 BASE 6.55 138 9.26 146 -2.8 47 -12.6 9 0 1014.5 NA 0.0000 9999 0 0 0 0
2019/09/02 21:01:00 BASE 6.30 136 9.26 146 -2.8 47 -12.6 9 0 1014.5 NA 0.0000 9999 0 0 0 0
2019/09/02 21:02:00 BASE 6.19 135 9.26 146 -2.9 47 -12.6 8 0 1014.5 NA 0.0000 9999 0 0 0 0
2019/09/02 21:03:00 BASE 5.93 132 8.59 150 -3.1 47 -12.7 8 0 1014.6 NA 0.0000 9999 0 0 0 0
2019/09/02 21:04:00 BASE 5.59 129 7.92 153 -3.2 48 -12.8 7 0 1014.6 NA 0.0000 9999 0 0 0 0
2019/09/02 21:05:00 BASE 5.49 123 7.92 153 -3.4 48 -12.8 7 0 1014.6 NA 0.0000 9999 0 0 0 0
2019/09/02 21:06:00 BASE 5.52 121 7.51 146 -3.6 48 -13.0 6 0 1014.6 NA 0.0000 9999 0 0 0 0
2019/09/02 21:07:00 BASE 5.48 120 7.51 146 -3.7 48 -13.0 6 0 1014.6 NA 0.0000 9999 0 0 0 0
2019/09/02 21:08:00 BASE 5.22 117 7.15 140 -3.8 48 -13.1 5 0 1014.6 NA 0.0000 9999 0 0 0 0
2019/09/02 21:09:00 BASE 5.25 116 7.05 142 -3.8 48 -13.2 5 0 1014.6 NA 0.0000 9999 0 0 0 0
2019/09/02 21:10:00 BASE 5.24 118 7.05 142 -3.6 48 -13.1 5 0 1014.6 NA 0.0000 9999 0 0 0 0
2019/09/02 21:11:00 BASE 4.77 123 6.94 139 -3.6 47 -13.2 4 0 1014.6 NA 0.0000 9999 0 0 0 0
2019/09/02 21:12:00 BASE 4.85 135 6.38 132 -3.5 47 -13.2 4 0 1014.6 NA 0.0000 9999 0 0 0 0
2019/09/02 21:13:00 BASE 5.44 146 6.38 132 -3.4 47 -13.1 3 0 1014.7 NA 0.0000 9999 0 0 0 0
2019/09/02 21:14:00 BASE 5.59 150 6.84 154 -3.3 47 -12.9 3 0 1014.7 NA 0.0000 9999 0 0 0 0
2019/09/02 21:15:00 BASE 5.66 156 6.94 149 -3.2 48 -12.7 3 0 1014.7 NA 0.0000 9999 0 0 0 0
2019/09/02 21:16:00 BASE 5.41 154 6.94 149 -3.2 49 -12.5 3 0 1014.7 NA 0.0000 9999 0 0 0 0
2019/09/02 21:17:00 BASE 5.74 145 7.36 140 -3.2 50 -12.2 2 0 1014.7 NA 0.0000 9999 0 0 0 0
2019/09/02 21:18:00 BASE 6.65 147 7.36 140 -3.2 51 -11.9 2 0 1014.7 NA 0.0000 9999 0 0 0 0
2019/09/02 21:19:00 BASE 6.47 152 7.36 140 -3.1 52 -11.6 2 0 1014.7 NA 0.0000 9999 0 0 0 0
2019/09/02 21:20:00 BASE 5.30 147 7.36 140 -3.1 53 -11.3 1 0 1014.7 NA 0.0000 9999 0 0 0 0
2019/09/02 21:21:00 BASE 4.13 140 7.36 140 -3.0 54 -11.1 1 0 1014.7 NA 0.0000 9999 0 0 0 0
2019/09/02 21:22:00 BASE 3.99 142 7.36 140 -2.9 54 -10.9 1 0 1014.7 NA 0.0000 9999 0 0 0 0
2019/09/02 21:23:00 BASE 4.01 145 7.36 140 -2.9 55 -10.8 1 0 1014.7 NA 0.0000 9999 0 0 0 0
2019/09/02 21:24:00 BASE 3.55 147 7.36 140 -2.9 55 -10.7 1 0 1014.8 NA 0.0000 9999 0 0 0 0
2019/09/02 21:25:00 BASE 3.22 149 7.36 140 -2.9 55 -10.6 1 0 1014.8 NA 0.0000 9999 0 0 0 0
2019/09/02 21:26:00 BASE 2.75 146 7.36 140 -2.9 55 -10.7 1 0 1014.8 NA 0.0000 9999 0 0 0 0
2019/09/02 21:27:00 BASE 2.08 149 7.15 154 -2.9 55 -10.7 0 0 1014.8 NA 0.0000 9999 0 0 0 0
2019/09/02 21:28:00 BASE 1.59 157 6.58 156 -2.8 55 -10.7 0 0 1014.9 NA 0.0000 9999 0 0 0 0
2019/09/02 21:29:00 BASE 1.58 167 5.92 153 -2.8 54 -10.8 0 0 1015.0 NA 0.0000 9999 0 0 0 0
2019/09/02 21:30:00 BASE 2.08 181 5.35 142 -2.8 54 -10.8 0 0 1015.0 NA 0.0000 9999 0 0 0 0
2019/09/02 21:31:00 BASE 2.04 181 4.99 143 -2.7 54 -10.6 0 0 1015.0 NA 0.0000 9999 0 0 0 0
2019/09/02 21:32:00 BASE 1.09 170 4.48 151 -2.7 54 -10.6 0 0 1015.0 NA 0.0000 9999 0 0 0 0
2019/09/02 21:33:00 BASE 2.78 233 6.28 304 -2.9 54 -10.9 0 0 1015.1 NA 0.0000 9999 0 0 0 0
2019/09/02 21:34:00 BASE 4.92 299 6.28 306 -3.3 54 -11.3 0 0 1015.1 NA 0.0000 9999 0 0 0 0
2019/09/02 21:35:00 BASE 4.20 299 6.28 306 -3.6 54 -11.5 0 0 1015.1 NA 0.0000 9999 0 0 0 0
2019/09/02 21:36:00 BASE 2.87 274 6.28 306 -3.9 54 -11.8 0 0 1015.2 NA 0.0000 9999 0 0 0 0
2019/09/02 21:37:00 BASE 1.85 268 6.28 306 -4.1 55 -11.9 0 0 1015.2 NA 0.0000 9999 0 0 0 0
2019/09/02 21:38:00 BASE 1.88 260 6.28 306 -4.0 56 -11.6 0 0 1015.2 NA 0.0000 9999 0 0 0 0
2019/09/02 21:39:00 BASE 2.22 268 6.28 306 -3.7 56 -11.1 0 0 1015.3 NA 0.0000 9999 0 0 0 0
2019/09/02 21:40:00 BASE 2.43 313 6.28 306 -3.5 57 -10.7 0 0 1015.3 NA 0.0000 9999 0 0 0 0
2019/09/02 21:41:00 BASE 2.24 337 6.28 306 -3.4 58 -10.4 0 0 1015.3 NA 0.0000 9999 0 0 0 0
2019/09/02 21:42:00 BASE 2.12 349 6.28 306 -3.4 60 -10.1 0 0 1015.3 NA 0.0000 9999 0 0 0 0
2019/09/02 21:43:00 BASE 2.18 3 6.28 306 -3.3 60 -9.9 0 0 1015.3 NA 0.0000 9999 0 0 0 0
2019/09/02 21:44:00 BASE 2.05 15 4.42 299 -3.4 61 -10.0 0 0 1015.3 NA 0.0000 9999 0 0 0 0
2019/09/02 21:45:00 BASE 2.12 6 3.70 254 -3.4 61 -9.9 0 0 1015.3 NA 0.0000 9999 0 0 0 0
2019/09/02 21:46:00 BASE 2.31 356 3.70 254 -3.4 61 -9.8 0 0 1015.4 NA 0.0000 9999 0 0 0 0
2019/09/02 21:47:00 BASE 2.58 14 3.70 254 -3.5 61 -9.9 0 0 1015.5 NA 0.0000 9999 0 0 0 0
2019/09/02 21:48:00 BASE 2.77 31 3.60 33 -3.7 61 -10.2 0 0 1015.6 NA 0.0000 9999 0 0 0 0
2019/09/02 21:49:00 BASE 3.32 27 4.42 24 -4.0 60 -10.6 0 0 1015.6 NA 0.0000 9999 0 0 0 0
2019/09/02 21:50:00 BASE 3.69 33 4.42 24 -4.3 60 -10.9 0 0 1015.6 NA 0.0000 9999 0 0 0 0
2019/09/02 21:51:00 BASE 3.00 41 4.42 24 -4.5 60 -11.2 0 0 1015.6 NA 0.0000 9999 0 0 0 0
2019/09/02 21:52:00 BASE 2.46 46 4.42 24 -4.7 60 -11.3 0 0 1015.6 NA 0.0000 9999 0 0 0 0
2019/09/02 21:53:00 BASE 2.69 48 4.42 24 -4.7 60 -11.2 0 0 1015.6 NA 0.0000 9999 0 0 0 0
2019/09/02 21:54:00 BASE 3.22 50 4.42 24 -4.5 61 -11.0 0 0 1015.6 NA 0.0000 9999 0 0 0 0
2019/09/02 21:55:00 BASE 3.11 81 4.42 24 -4.4 60 -10.9 0 0 1015.6 NA 0.0000 9999 0 0 0 0
2019/09/02 21:56:00 BASE 2.59 103 4.42 24 -4.4 60 -11.0 0 0 1015.7 NA 0.0000 9999 0 0 0 0
2019/09/02 21:57:00 BASE 2.24 85 4.42 24 -4.3 60 -10.9 0 0 1015.7 NA 0.0000 9999 0 0 0 0
2019/09/02 21:58:00 BASE 1.78 65 4.42 24 -4.3 60 -10.9 0 0 1015.7 NA 0.0000 9999 0 0 0 0
2019/09/02 21:59:00 BASE 1.10 62 4.06 53 -4.3 61 -10.8 0 0 1015.8 NA 0.0000 9999 0 0 0 0
2019/09/02 22:00:00 BASE 0.93 22 4.06 53 -4.2 61 -10.5 0 0 1015.8 NA 0.0000 9999 0 0 0 0
2019/09/02 22:01:00 BASE 1.19 319 4.06 53 -4.0 62 -10.2 0 0 1015.8 NA 0.0000 9999 0 0 0 0
2019/09/02 22:02:00 BASE 1.38 249 4.06 53 -3.8 63 -9.8 0 0 1015.8 NA 0.0000 9999 0 0 0 0
2019/09/02 22:03:00 BASE 1.73 268 4.06 53 -3.7 63 -9.7 0 0 1015.9 NA 0.0000 9999 0 0 0 0
2019/09/02 22:04:00 BASE 1.19 317 3.19 99 -3.5 63 -9.5 0 0 1015.9 NA 0.0000 9999 0 0 0 0
2019/09/02 22:05:00 BASE 0.26 16 2.62 62 -3.6 64 -9.5 0 0 1015.9 NA 0.0000 9999 0 0 0 0
2019/09/02 22:06:00 BASE 0.59 58 2.62 62 -3.7 64 -9.6 0 0 1015.9 NA 0.0000 9999 0 0 0 0
2019/09/02 22:07:00 BASE 0.81 52 2.62 62 -3.8 64 -9.6 0 0 1015.8 NA 0.0000 9999 0 0 0 0
2019/09/02 22:08:00 BASE 0.48 66 2.52 19 -3.9 65 -9.5 0 0 1015.8 NA 0.0000 9999 0 0 0 0
2019/09/02 22:09:00 BASE 0.40 97 2.52 19 -3.9 65 -9.5 0 0 1015.8 NA 0.0000 9999 0 0 0 0
2019/09/02 22:10:00 BASE 0.14 144 2.31 329 -3.9 66 -9.4 0 0 1015.9 NA 0.0000 9999 0 0 0 0
2019/09/02 22:11:00 BASE 0.00 117 2.31 329 -3.9 66 -9.3 0 0 1015.9 NA 0.0000 9999 0 0 0 0
2019/09/02 22:12:00 BASE 1.07 116 4.53 215 -3.8 66 -9.2 0 0 1015.9 NA 0.0000 9999 0 0 0 0
2019/09/02 22:13:00 BASE 2.20 219 4.53 215 -3.8 66 -9.2 0 0 1016.0 NA 0.0000 9999 0 0 0 0
2019/09/02 22:14:00 BASE 1.65 215 4.53 215 -3.8 67 -9.0 0 0 1016.1 NA 0.0000 9999 0 0 0 0
2019/09/02 22:15:00 BASE 0.93 218 4.53 215 -3.7 67 -8.9 0 0 1016.1 NA 0.0000 9999 0 0 0 0
2019/09/02 22:16:00 BASE 1.40 274 4.53 215 -3.7 68 -8.8 0 0 1016.1 NA 0.0000 9999 0 0 0 0
2019/09/02 22:17:00 BASE 2.13 295 4.53 215 -3.7 68 -8.6 0 0 1016.1 NA 0.0000 9999 0 0 0 0
2019/09/02 22:18:00 BASE 1.69 325 4.53 215 -3.7 69 -8.5 0 0 1016.1 NA 0.0000 9999 0 0 0 0
2019/09/02 22:19:00 BASE 1.33 29 4.53 215 -3.6 70 -8.4 0 0 1016.1 NA 0.0000 9999 0 0 0 0
2019/09/02 22:20:00 BASE 1.08 48 4.53 215 -3.6 70 -8.2 0 0 1016.1 NA 0.0000 9999 0 0 0 0
2019/09/02 22:21:00 BASE 0.73 9 4.53 215 -3.5 70 -8.1 0 0 1016.1 NA 0.0000 9999 0 0 0 0
2019/09/02 22:22:00 BASE 0.64 12 3.65 279 -3.5 70 -8.1 0 0 1016.1 NA 0.0000 9999 0 0 0 0
2019/09/02 22:23:00 BASE 1.03 3 3.65 279 -3.4 70 -8.1 0 0 1016.2 NA 0.0000 9999 0 0 0 0
2019/09/02 22:24:00 BASE 1.73 13 3.65 279 -3.5 70 -8.2 0 0 1016.3 NA 0.0000 9999 0 0 0 0
2019/09/02 22:25:00 BASE 2.36 17 3.65 279 -3.6 69 -8.4 0 0 1016.3 NA 0.0000 9999 0 0 0 0
2019/09/02 22:26:00 BASE 2.28 7 3.65 279 -3.7 69 -8.4 0 0 1016.3 NA 0.0000 9999 0 0 0 0
2019/09/02 22:27:00 BASE 1.45 8 3.50 25 -3.8 69 -8.6 0 0 1016.3 NA 0.0000 9999 0 0 0 0
2019/09/02 22:28:00 BASE 1.60 2 3.50 25 -4.0 70 -8.7 0 0 1016.2 NA 0.0000 9999 0 0 0 0
2019/09/02 22:29:00 BASE 1.47 330 3.50 25 -4.0 70 -8.6 0 0 1016.2 NA 0.0000 9999 0 0 0 0
2019/09/02 22:30:00 BASE 0.80 244 3.50 25 -4.0 71 -8.5 0 0 1016.1 NA 0.0000 9999 0 0 0 0
2019/09/02 22:31:00 BASE 0.83 284 3.50 25 -3.9 71 -8.3 0 0 1016.2 NA 0.0000 9999 0 0 0 0
2019/09/02 22:32:00 BASE 1.26 337 3.50 25 -3.9 72 -8.2 0 0 1016.3 NA 0.0000 9999 0 0 0 0
2019/09/02 22:33:00 BASE 1.50 2 3.50 25 -3.7 73 -7.9 0 0 1016.3 NA 0.0000 9999 0 0 0 0
2019/09/02 22:34:00 BASE 1.65 17 3.50 25 -3.7 73 -7.9 0 0 1016.3 NA 0.0000 9999 0 0 0 0
2019/09/02 22:35:00 BASE 1.87 20 2.83 159 -3.8 73 -8.0 0 0 1016.3 NA 0.0000 9999 0 0 0 0
2019/09/02 22:36:00 BASE 2.39 25 3.34 23 -4.0 72 -8.2 0 0 1016.3 NA 0.0000 9999 0 0 0 0
2019/09/02 22:37:00 BASE 3.00 31 3.34 32 -4.2 72 -8.4 0 0 1016.3 NA 0.0000 9999 0 0 0 0
2019/09/02 22:38:00 BASE 3.16 36 3.76 42 -4.4 72 -8.6 0 0 1016.4 NA 0.0000 9999 0 0 0 0
2019/09/02 22:39:00 BASE 3.63 38 4.42 28 -4.6 73 -8.8 0 0 1016.4 NA 0.0000 9999 0 0 0 0
2019/09/02 22:40:00 BASE 4.05 32 4.53 23 -4.7 73 -8.8 0 0 1016.4 NA 0.0000 9999 0 0 0 0
2019/09/02 22:41:00 BASE 4.19 23 4.58 20 -4.8 73 -8.8 0 0 1016.4 NA 0.0000 9999 0 0 0 0
2019/09/02 22:42:00 BASE 4.23 20 4.58 20 -4.8 74 -8.7 0 0 1016.4 NA 0.0000 9999 0 0 0 0
2019/09/02 22:43:00 BASE 4.09 20 4.58 20 -4.7 74 -8.6 0 0 1016.5 NA 0.0000 9999 0 0 0 0
2019/09/02 22:44:00 BASE 3.84 20 4.58 20 -4.6 75 -8.4 0 0 1016.5 NA 0.0000 9999 0 0 0 0
2019/09/02 22:45:00 BASE 3.34 23 4.58 20 -4.4 75 -8.2 0 0 1016.5 NA 0.0000 9999 0 0 0 0
2019/09/02 22:46:00 BASE 2.88 35 4.58 20 -4.3 75 -8.1 0 0 1016.5 NA 0.0000 9999 0 0 0 0
2019/09/02 22:47:00 BASE 2.63 37 4.58 20 -4.3 75 -8.0 0 0 1016.5 NA 0.0000 9999 0 0 0 0
2019/09/02 22:48:00 BASE 2.56 33 4.58 20 -4.2 75 -8.0 0 0 1016.5 NA 0.0000 9999 0 0 0 0
2019/09/02 22:49:00 BASE 2.25 41 4.58 20 -4.2 75 -8.0 0 0 1016.5 NA 0.0000 9999 0 0 0 0
2019/09/02 22:50:00 BASE 2.20 41 4.58 20 -4.2 75 -8.1 0 0 1016.5 NA 0.0000 9999 0 0 0 0
2019/09/02 22:51:00 BASE 2.35 30 4.48 20 -4.2 74 -8.1 0 0 1016.5 NA 0.0000 9999 0 0 0 0
2019/09/02 22:52:00 BASE 2.20 19 4.48 20 -4.2 74 -8.2 0 0 1016.6 NA 0.0000 9999 0 0 0 0
2019/09/02 22:53:00 BASE 2.33 21 3.86 24 -4.3 74 -8.3 0 0 1016.6 NA 0.0000 9999 0 0 0 0
2019/09/02 22:54:00 BASE 2.59 29 3.76 24 -4.3 73 -8.4 0 0 1016.6 NA 0.0000 9999 0 0 0 0
2019/09/02 22:55:00 BASE 2.84 31 3.76 24 -4.4 73 -8.5 0 0 1016.6 NA 0.0000 9999 0 0 0 0
2019/09/02 22:56:00 BASE 3.26 40 3.91 52 -4.5 73 -8.6 0 0 1016.6 NA 0.0000 9999 0 0 0 0
2019/09/02 22:57:00 BASE 3.77 49 4.48 42 -4.6 73 -8.7 0 0 1016.6 NA 0.0000 9999 0 0 0 0
2019/09/02 22:58:00 BASE 4.31 50 4.89 52 -4.7 73 -8.8 0 0 1016.7 NA 0.0000 9999 0 0 0 0
2019/09/02 22:59:00 BASE 4.59 49 5.09 49 -4.8 73 -8.9 0 0 1016.7 NA 0.0000 9999 0 0 0 0
2019/09/02 23:00:00 BASE 4.52 49 5.09 49 -4.9 73 -8.9 0 0 1016.7 NA 0.0000 9999 0 0 0 0
2019/09/02 23:01:00 BASE 3.62 49 5.09 49 -5.0 73 -9.0 0 0 1016.7 NA 0.0000 9999 0 0 0 0
2019/09/02 23:02:00 BASE 3.44 46 5.09 49 -5.0 74 -9.0 0 0 1016.7 NA 0.0000 9999 0 0 0 0
2019/09/02 23:03:00 BASE 4.05 41 5.09 49 -5.1 74 -9.0 0 0 1016.7 NA 0.0000 9999 0 0 0 0
2019/09/02 23:04:00 BASE 3.94 42 5.09 49 -5.1 74 -9.0 0 0 1016.7 NA 0.0000 9999 0 0 0 0
2019/09/02 23:05:00 BASE 3.55 45 5.09 49 -5.0 74 -8.9 0 0 1016.7 NA 0.0000 9999 0 0 0 0
2019/09/02 23:06:00 BASE 3.07 42 5.09 49 -5.0 74 -8.9 0 0 1016.7 NA 0.0000 9999 0 0 0 0
2019/09/02 23:07:00 BASE 3.06 35 5.09 49 -4.9 74 -8.8 0 0 1016.7 NA 0.0000 9999 0 0 0 0
2019/09/02 23:08:00 BASE 3.69 33 5.09 49 -4.9 74 -8.7 0 0 1016.7 NA 0.0000 9999 0 0 0 0
2019/09/02 23:09:00 BASE 4.05 33 4.99 49 -4.8 74 -8.6 0 0 1016.7 NA 0.0000 9999 0 0 0 0
2019/09/02 23:10:00 BASE 3.96 34 4.42 31 -4.7 74 -8.6 0 0 1016.7 NA 0.0000 9999 0 0 0 0
2019/09/02 23:11:00 BASE 3.67 31 4.42 31 -4.7 74 -8.6 0 0 1016.7 NA 0.0000 9999 0 0 0 0
2019/09/02 23:12:00 BASE 3.17 28 4.42 31 -4.8 74 -8.7 0 0 1016.7 NA 0.0000 9999 0 0 0 0
2019/09/02 23:13:00 BASE 2.94 29 4.42 31 -4.8 74 -8.7 0 0 1016.7 NA 0.0000 9999 0 0 0 0
2019/09/02 23:14:00 BASE 3.02 32 4.42 31 -4.8 74 -8.8 0 0 1016.7 NA 0.0000 9999 0 0 0 0
2019/09/02 23:15:00 BASE 3.29 34 4.42 31 -4.8 74 -8.7 0 0 1016.7 NA 0.0000 9999 0 0 0 0
2019/09/02 23:16:00 BASE 3.66 34 4.42 31 -4.8 74 -8.7 0 0 1016.7 NA 0.0000 9999 0 0 0 0
2019/09/02 23:17:00 BASE 3.82 39 4.42 31 -4.8 75 -8.7 0 0 1016.7 NA 0.0000 9999 0 0 0 0
2019/09/02 23:18:00 BASE 3.94 47 4.42 31 -4.9 75 -8.7 0 0 1016.7 NA 0.0000 9999 0 0 0 0
2019/09/02 23:19:00 BASE 4.07 50 4.48 51 -4.9 75 -8.7 0 0 1016.7 NA 0.0000 9999 0 0 0 0
2019/09/02 23:20:00 BASE 4.17 49 4.58 49 -5.0 75 -8.7 0 0 1016.8 NA 0.0000 9999 0 0 0 0
2019/09/02 23:21:00 BASE 4.11 47 4.58 49 -5.0 75 -8.7 0 0 1016.9 NA 0.0000 9999 0 0 0 0
2019/09/02 23:22:00 BASE 4.01 46 4.58 49 -5.0 75 -8.8 0 0 1016.9 NA 0.0000 9999 0 0 0 0
2019/09/02 23:23:00 BASE 4.12 45 4.58 49 -5.0 75 -8.8 0 0 1016.9 NA 0.0000 9999 0 0 0 0
2019/09/02 23:24:00 BASE 4.41 43 4.78 46 -5.1 75 -8.9 0 0 1016.9 NA 0.0000 9999 0 0 0 0
2019/09/02 23:25:00 BASE 4.41 41 4.78 46 -5.2 75 -9.0 0 0 1016.9 NA 0.0000 9999 0 0 0 0
2019/09/02 23:26:00 BASE 4.13 41 4.78 46 -5.3 75 -9.1 0 0 1016.9 NA 0.0000 9999 0 0 0 0
2019/09/02 23:27:00 BASE 4.06 43 4.78 46 -5.4 75 -9.2 0 0 1016.9 NA 0.0000 9999 0 0 0 0
2019/09/02 23:28:00 BASE 4.11 45 4.78 46 -5.4 75 -9.2 0 0 1016.9 NA 0.0000 9999 0 0 0 0
2019/09/02 23:29:00 BASE 3.95 48 4.78 46 -5.4 75 -9.1 0 0 1016.9 NA 0.0000 9999 0 0 0 0
2019/09/02 23:30:00 BASE 3.55 50 4.78 46 -5.3 75 -9.0 0 0 1016.9 NA 0.0000 9999 0 0 0 0
2019/09/02 23:31:00 BASE 3.15 48 4.78 46 -5.2 75 -8.9 0 0 1016.9 NA 0.0000 9999 0 0 0 0
2019/09/02 23:32:00 BASE 2.85 47 4.78 46 -5.1 75 -8.8 0 0 1016.9 NA 0.0000 9999 0 0 0 0
2019/09/02 23:33:00 BASE 2.75 44 4.78 46 -5.0 75 -8.7 0 0 1016.9 NA 0.0000 9999 0 0 0 0
2019/09/02 23:34:00 BASE 2.86 34 4.63 37 -4.9 75 -8.7 0 0 1016.9 NA 0.0000 9999 0 0 0 0
2019/09/02 23:35:00 BASE 3.11 23 4.48 48 -4.9 75 -8.7 0 0 1016.9 NA 0.0000 9999 0 0 0 0
2019/09/02 23:36:00 BASE 3.31 20 4.48 48 -4.8 74 -8.7 0 0 1016.9 NA 0.0000 9999 0 0 0 0
2019/09/02 23:37:00 BASE 3.53 18 4.48 48 -4.8 74 -8.8 0 0 1016.9 NA 0.0000 9999 0 0 0 0
2019/09/02 23:38:00 BASE 3.64 17 4.27 45 -4.9 74 -8.9 0 0 1016.9 NA 0.0000 9999 0 0 0 0
2019/09/02 23:39:00 BASE 3.59 14 3.96 16 -4.9 73 -8.9 0 0 1017.0 NA 0.0000 9999 0 0 0 0
2019/09/02 23:40:00 BASE 3.59 9 3.96 16 -5.0 73 -9.0 0 0 1017.0 NA 0.0000 9999 0 0 0 0
2019/09/02 23:41:00 BASE 3.41 2 3.96 16 -5.0 73 -9.1 0 0 1017.0 NA 0.0000 9999 0 0 0 0
2019/09/02 23:42:00 BASE 3.02 356 3.96 16 -5.1 73 -9.2 0 0 1017.0 NA 0.0000 9999 0 0 0 0
2019/09/02 23:43:00 BASE 2.65 1 3.96 16 -5.1 73 -9.2 0 0 1017.0 NA 0.0000 9999 0 0 0 0
2019/09/02 23:44:00 BASE 2.47 10 3.96 16 -5.1 73 -9.2 0 0 1017.0 NA 0.0000 9999 0 0 0 0
2019/09/02 23:45:00 BASE 2.41 17 3.96 16 -5.1 73 -9.2 0 0 1017.0 NA 0.0000 9999 0 0 0 0
2019/09/02 23:46:00 BASE 2.45 22 3.96 16 -5.1 74 -9.1 0 0 1017.0 NA 0.0000 9999 0 0 0 0
2019/09/02 23:47:00 BASE 2.35 26 3.96 16 -5.1 74 -9.1 0 0 1017.0 NA 0.0000 9999 0 0 0 0
2019/09/02 23:48:00 BASE 2.26 28 3.91 11 -5.1 74 -9.0 0 0 1017.0 NA 0.0000 9999 0 0 0 0
2019/09/02 23:49:00 BASE 2.37 34 3.81 14 -5.1 74 -9.0 0 0 1017.0 NA 0.0000 9999 0 0 0 0
2019/09/02 23:50:00 BASE 2.40 36 3.65 353 -5.1 74 -9.0 0 0 1017.0 NA 0.0000 9999 0 0 0 0
2019/09/02 23:51:00 BASE 2.25 36 3.24 347 -5.0 74 -9.0 0 0 1016.9 NA 0.0000 9999 0 0 0 0
2019/09/02 23:52:00 BASE 2.18 35 2.98 37 -5.0 74 -8.9 0 0 1016.9 NA 0.0000 9999 0 0 0 0
2019/09/02 23:53:00 BASE 2.03 24 2.98 37 -5.0 74 -8.9 0 0 1016.9 NA 0.0000 9999 0 0 0 0
2019/09/02 23:54:00 BASE 1.95 11 2.98 37 -4.9 74 -8.8 0 0 1016.9 NA 0.0000 9999 0 0 0 0
2019/09/02 23:55:00 BASE 2.10 358 2.98 37 -4.9 74 -8.8 0 0 1016.9 NA 0.0000 9999 0 0 0 0
2019/09/02 23:56:00 BASE 2.04 346 2.98 37 -4.8 74 -8.8 0 0 1016.9 NA 0.0000 9999 0 0 0 0
2019/09/02 23:57:00 BASE 2.11 337 2.98 37 -4.8 74 -8.7 0 0 1016.9 NA 0.0000 9999 0 0 0 0
2019/09/02 23:58:00 BASE 2.23 334 2.98 37 -4.7 74 -8.7 0 0 1016.9 NA 0.0000 9999 0 0 0 0
2019/09/02 23:59:00 BASE 1.61 334 2.98 37 -4.7 74 -8.7 0 0 1016.9 NA 0.0000 9999 0 0 0 0